Date StartTime U_cm/s V_cm/s W_cm/s Ustd_cm/s Vstd_cm/s Wstd_cm/s Uvar_(cm/s)^2 Vvar_(cm/s)^2 Wvar_(cm/s)^2 KE_(m/s)^2 TurbulentKE_(m/s)^2 HorizWindSpeed_cm/s FrictionSpeec_cm/s DragCoef SpeedOfSound_m/s SonicTemperature_C Pressure_mb 
08/31/2013  00:00:00      -83.946       28.352      -18.965       35.882       37.810       25.062     1287.535     1429.570      628.128        0.578        0.167       88.604       14.716        0.028      344.764       21.815      864.051
08/31/2013  00:01:00     -181.343       11.321      -18.343       45.001       26.379       17.581     2025.129      695.846      309.090        1.819        0.152      181.696       21.060        0.013      344.829       21.926      864.042
08/31/2013  00:02:00     -174.416       27.325      -20.996       38.520       25.653       24.608     1483.809      658.067      605.560        1.718        0.137      176.543       19.296        0.012      344.801       21.877      864.035
08/31/2013  00:03:00     -188.425       60.857      -20.131       55.263       39.063       27.090     3054.046     1525.956      733.895        2.246        0.266      198.009       19.898        0.010      344.964       22.155      864.015
08/31/2013  00:04:00     -127.115       74.963      -12.016       63.344       46.827       41.674     4012.474     2192.789     1736.701        1.493        0.397      147.573       32.519        0.049      344.981       22.186      863.995
08/31/2013  00:05:00     -113.420       60.235       -6.966       50.728       30.860       31.497     2573.374      952.366      992.050        1.053        0.226      128.423       29.140        0.051      345.017       22.247      863.999
08/31/2013  00:06:00     -135.371       50.275      -18.167       42.330       34.522       27.236     1791.790     1191.744      741.778        1.245        0.186      144.405       16.292        0.013      345.056       22.315      864.000
08/31/2013  00:07:00     -128.206        9.374      -18.109       35.527       30.150       18.631     1262.144      909.029      347.106        0.968        0.126      128.548        9.170        0.005      344.862       21.983      864.012
08/31/2013  00:08:00     -167.845        4.462      -18.233       41.091       31.961       21.215     1688.459     1021.526      450.087        1.584        0.158      167.904       18.605        0.012      344.676       21.664      864.029
08/31/2013  00:09:00     -181.507       28.526      -18.784       44.235       28.690       20.907     1956.715      823.122      437.086        1.866        0.161      183.735       19.771        0.012      344.669       21.650      864.028
08/31/2013  00:10:00     -138.086       23.196      -19.660       42.441       24.082       18.187     1801.243      579.929      330.757        1.135        0.136      140.021       12.516        0.008      344.652       21.622      864.027
08/31/2013  00:11:00     -130.504       18.789      -20.846       40.699       22.843       16.892     1656.405      521.810      285.332        1.014        0.123      131.850        8.809        0.004      344.850       21.960      864.035
08/31/2013  00:12:00     -116.386       29.863      -14.977       35.977       27.967       18.070     1294.348      782.168      326.539        0.853        0.120      120.156       15.523        0.017      344.749       21.788      864.041
08/31/2013  00:13:00      -68.444       -7.014      -14.183       27.083       20.802       16.824      733.480      432.740      283.040        0.319        0.072       68.802       16.353        0.056      344.774       21.831      864.049
08/31/2013  00:14:00      -65.582      -13.175       -8.341       29.923       17.793       14.018      895.407      316.584      196.515        0.298        0.070       66.892       14.533        0.047      344.737       21.768      864.051
08/31/2013  00:15:00      -52.388       -1.176       -3.771       28.700       27.819       17.794      823.683      773.904      316.630        0.234        0.096       52.401       15.494        0.087      344.737       21.768      864.052
08/31/2013  00:16:00      -84.804       12.944       -7.569       32.743       33.031       16.583     1072.130     1091.016      274.992        0.493        0.122       85.786       15.780        0.034      344.769       21.823      864.049
08/31/2013  00:17:00      -96.845        7.881       -6.024       42.746       30.041       18.155     1827.227      902.447      329.596        0.627        0.153       97.165        8.100        0.007      344.710       21.721      864.049
08/31/2013  00:18:00     -126.694        4.617      -11.280       33.291       30.558       16.067     1108.299      933.764      258.139        0.925        0.115      126.778       15.499        0.015      344.678       21.666      864.054
08/31/2013  00:19:00     -118.479        6.801       -8.768       37.387       32.182       19.636     1397.814     1035.703      385.565        0.849        0.141      118.674       16.587        0.020      344.650       21.620      864.061
08/31/2013  00:20:00     -123.678      -14.482       -9.291       26.687       21.710       18.253      712.213      471.305      333.179        0.855        0.076      124.523       15.839        0.016      344.714       21.727      864.053
08/31/2013  00:21:00     -105.974      -10.996       -5.717       30.016       23.071       14.892      900.936      532.276      221.780        0.652        0.083      106.543       13.251        0.015      344.656       21.631      864.047
08/31/2013  00:22:00      -94.933        4.389       -4.903       27.120       20.866       12.984      735.492      435.395      168.595        0.520        0.067       95.035       11.747        0.015      344.680       21.669      864.042
08/31/2013  00:23:00      -79.018       50.523       -8.655       46.115       28.912       21.827     2126.615      835.910      476.417        0.615        0.172       93.789       21.794        0.054      344.994       22.208      864.042
08/31/2013  00:24:00      -96.806       45.523      -10.222       56.823       28.262       26.238     3228.879      798.722      688.434        0.813        0.236      106.975       27.548        0.066      345.225       22.602      864.036
08/31/2013  00:25:00     -138.766        6.492      -19.806       27.843       18.273       13.067      775.246      333.888      170.744        1.048        0.064      138.918        6.261        0.002      345.037       22.283      864.041
08/31/2013  00:26:00     -116.112       -3.142       -3.859       36.127       39.655       19.552     1305.136     1572.505      382.270        0.838        0.163      116.154       13.360        0.013      344.807       21.888      864.048
08/31/2013  00:27:00     -178.523       25.017      -15.934       19.360       27.281       15.238      374.805      744.277      232.209        1.705        0.068      180.267        9.863        0.003      344.850       21.960      864.053
08/31/2013  00:28:00     -157.215       21.701      -18.507       16.909       21.173       13.580      285.899      448.313      184.403        1.322        0.046      158.706        9.539        0.004      344.763       21.813      864.035
08/31/2013  00:29:00     -148.926       27.774      -15.666       21.657       17.336       10.816      469.008      300.548      116.989        1.204        0.044      151.494        6.808        0.002      344.953       22.139      864.030
08/31/2013  00:30:00     -116.946        3.853      -11.841       16.852       24.028       13.888      284.001      577.364      192.888        0.744        0.053      117.009        8.783        0.006      344.895       22.040      864.030
08/31/2013  00:31:00     -136.571       -4.239      -14.192       41.513       30.932       22.066     1723.336      956.805      486.916        1.102        0.158      136.637       24.975        0.033      344.819       21.907      864.025
08/31/2013  00:32:00     -159.863       40.172      -19.907       32.130       23.540       18.946     1032.337      554.117      358.968        1.476        0.097      164.833       12.379        0.006      344.977       22.179      864.014
08/31/2013  00:33:00     -149.300       20.212      -14.329       23.971       22.444       15.746      574.605      503.735      247.935        1.212        0.066      150.662        9.886        0.004      344.935       22.109      864.003
08/31/2013  00:34:00     -140.064        3.758      -12.718       15.861       16.504        9.890      251.585      272.393       97.813        1.021        0.031      140.115        5.998        0.002      344.888       22.028      864.004
08/31/2013  00:35:00     -118.664      -19.432      -15.365       35.307       32.321       18.971     1246.578     1044.662      359.890        0.867        0.133      120.245       17.714        0.022      344.674       21.659      863.997
08/31/2013  00:36:00     -116.943        3.215       -5.842       55.249       35.249       20.727     3052.421     1242.486      429.600        0.922        0.236      116.987       24.279        0.043      344.537       21.426      863.984
08/31/2013  00:37:00     -185.505       49.453      -10.138       25.093       22.896       17.123      629.641      524.214      293.201        1.920        0.072      191.984        8.666        0.002      344.743       21.777      863.961
08/31/2013  00:38:00     -163.926       32.053      -17.744       35.575       33.644       22.638     1265.594     1131.886      512.494        1.556        0.145      167.030       19.852        0.014      344.633       21.592      863.951
08/31/2013  00:39:00     -168.994       24.012      -15.980       25.072       29.332       18.561      628.612      860.337      344.493        1.561        0.092      170.691       10.725        0.004      344.647       21.614      863.944
08/31/2013  00:40:00     -103.301       11.437      -12.002       52.313       37.510       25.497     2736.616     1407.002      650.112        0.787        0.240      103.932       25.853        0.062      344.546       21.441      863.953
08/31/2013  00:41:00      -96.308      -15.424       -3.359       48.187       38.773       22.431     2321.975     1503.328      503.136        0.693        0.216       97.535       21.989        0.051      344.529       21.412      863.949
08/31/2013  00:42:00      -79.335       14.445      -13.651       27.679       51.298       22.970      766.111     2631.481      527.611        0.531        0.196       80.640       21.066        0.068      344.628       21.581      863.943
08/31/2013  00:43:00     -116.140      -22.868      -12.603       36.516       37.201       17.972     1333.450     1383.939      322.990        0.860        0.152      118.370        5.648        0.002      344.474       21.320      863.939
08/31/2013  00:44:00     -119.547      -31.011      -11.807       23.825       30.076       25.506      567.611      904.579      650.551        0.876        0.106      123.504       18.401        0.022      344.420       21.225      863.944
08/31/2013  00:45:00     -125.641      -14.136      -16.572       37.987       38.450       23.448     1443.017     1478.399      549.827        0.986        0.174      126.434       18.585        0.022      344.491       21.346      863.953
08/31/2013  00:46:00     -138.515      -34.839       -5.106       47.137       32.439       24.660     2221.860     1052.284      608.097        1.215        0.194      142.829       21.791        0.023      344.463       21.298      863.959
08/31/2013  00:47:00     -164.367      -13.586      -11.185       42.293       32.007       24.415     1788.704     1024.416      596.076        1.537        0.170      164.928       21.869        0.018      344.466       21.303      863.970
08/31/2013  00:48:00     -117.672      -28.241       -2.986       52.439       47.882       33.573     2749.872     2292.702     1127.145        1.041        0.308      121.014       32.046        0.070      344.434       21.250      863.979
08/31/2013  00:49:00     -165.605      -12.294      -14.319       42.850       39.527       23.912     1836.148     1562.407      571.776        1.587        0.199      166.060       22.892        0.019      344.471       21.314      863.990
08/31/2013  00:50:00     -131.906      -22.664       -5.033       46.038       36.552       20.785     2119.486     1336.039      431.999        1.091        0.194      133.839       22.675        0.029      344.497       21.357      863.986
08/31/2013  00:51:00     -114.231      -28.649       -7.702       29.936       20.985       17.055      896.187      440.379      290.861        0.778        0.081      117.768        8.246        0.005      344.474       21.318      863.984
08/31/2013  00:52:00      -83.539      -46.366        2.581       19.850       20.797       14.610      394.025      432.516      213.458        0.509        0.052       95.544       10.245        0.011      344.433       21.247      863.988
08/31/2013  00:53:00     -100.715      -34.960       -4.019       29.416       26.789       20.965      865.316      717.653      439.522        0.670        0.101      106.610       18.650        0.031      344.421       21.226      864.008
08/31/2013  00:54:00     -102.102      -45.541      -17.564       19.996       18.301       14.140      399.849      334.933      199.940        0.687        0.047      111.798        6.072        0.003      344.477       21.324      864.013
08/31/2013  00:55:00      -96.197      -16.743       -4.760       33.505       24.810       19.203     1122.598      615.527      368.748        0.583        0.105       97.643       15.411        0.025      344.430       21.244      864.015
08/31/2013  00:56:00     -109.527      -27.593       -4.262       31.536       34.171       22.400      994.529     1167.661      501.770        0.772        0.133      112.949       18.543        0.027      344.437       21.256      864.015
08/31/2013  00:57:00      -93.113      -13.758       -4.588       26.666       19.863       15.917      711.072      394.523      253.343        0.512        0.068       94.124       15.196        0.026      344.391       21.175      864.027
08/31/2013  00:58:00      -83.015      -19.599       -5.060       21.469       22.055       15.532      460.900      486.433      241.245        0.424        0.059       85.297       14.564        0.029      344.422       21.228      864.040
08/31/2013  00:59:00      -96.202      -40.352       -6.826       20.558       30.567       13.758      422.618      934.327      189.280        0.624        0.077      104.322       10.699        0.011      344.463       21.297      864.052
08/31/2013  01:00:00      -91.490      -24.663      -12.034       19.618       16.255       10.600      384.848      264.230      112.362        0.494        0.038       94.756        8.937        0.009      344.427       21.237      864.054
08/31/2013  01:01:00      -82.055        8.142       -7.340       19.562       19.452       11.683      382.674      378.392      136.490        0.388        0.045       82.458        9.580        0.013      344.478       21.326      864.075
08/31/2013  01:02:00      -92.802      -36.153        3.102       44.298       31.862       17.981     1962.285     1015.203      323.323        0.661        0.165       99.596       15.864        0.025      344.363       21.129      864.076
08/31/2013  01:03:00     -133.231      -38.638       -8.263       20.578       34.358       15.610      423.435     1180.438      243.670        1.058        0.092      138.721       12.236        0.008      344.345       21.098      864.077
08/31/2013  01:04:00     -113.555      -25.154       -9.197       19.267       19.217       11.212      371.207      369.297      125.700        0.724        0.043      116.308        9.482        0.007      344.353       21.112      864.065
08/31/2013  01:05:00     -101.962       -4.787       -7.054       21.079       21.801       13.332      444.345      475.302      177.745        0.578        0.055      102.074        9.245        0.008      344.331       21.075      864.069
08/31/2013  01:06:00      -94.479       -3.175      -11.008       17.869       15.793       11.408      319.284      249.433      130.141        0.488        0.035       94.533        8.465        0.008      344.286       20.997      864.056
08/31/2013  01:07:00     -142.305      -25.547       -7.628       31.049       25.442       18.116      964.023      647.320      328.192        1.145        0.097      144.580       15.023        0.011      344.297       21.016      864.043
08/31/2013  01:08:00     -149.517      -30.308      -14.296       25.259       20.362       15.834      637.996      414.595      250.706        1.239        0.065      152.558        6.509        0.002      344.250       20.935      864.034
08/31/2013  01:09:00     -134.396      -39.330       -9.758       15.448       17.802       14.470      238.628      316.908      209.373        1.023        0.038      140.033        9.072        0.004      344.168       20.794      864.041
08/31/2013  01:10:00     -142.112      -47.283       -8.051       18.141       26.115       12.834      329.093      682.012      164.700        1.184        0.059      149.772        8.259        0.003      344.189       20.830      864.045
08/31/2013  01:11:00     -120.466      -23.875       -3.980       47.761       24.213       19.714     2281.101      586.255      388.646        0.918        0.163      122.809       24.356        0.039      344.168       20.795      864.046
08/31/2013  01:12:00      -55.435       -1.018       -0.767       28.938       27.139       14.911      837.428      736.539      222.334        0.244        0.090       55.445        7.590        0.019      344.021       20.544      864.041
08/31/2013  01:13:00      -32.809        5.974        1.291       26.861       13.763       13.536      721.493      189.429      183.211        0.110        0.055       33.349       14.123        0.179      343.982       20.477      864.035
08/31/2013  01:14:00       29.794       -5.933        4.704       24.785       23.482       21.766      614.275      551.405      473.779        0.129        0.082       30.379       11.571        0.145      343.399       19.482      864.034
08/31/2013  01:15:00       -6.971      -20.438        4.852       22.285       14.427       13.605      496.624      208.147      185.096        0.069        0.044       21.594        9.535        0.195      343.505       19.664      864.025
08/31/2013  01:16:00      -85.722      -17.554       -8.451       15.651       16.582       14.210      244.955      274.958      201.927        0.422        0.036       87.501       11.309        0.017      344.053       20.598      864.013
08/31/2013  01:17:00     -108.524      -31.481       -5.480       25.938       26.103       16.214      672.782      681.348      262.906        0.721        0.081      112.997       12.155        0.012      343.996       20.502      863.990
08/31/2013  01:18:00     -127.825      -15.323      -20.702       27.145       21.072       10.642      736.862      444.020      113.255        0.915        0.065      128.741        8.682        0.005      343.900       20.338      863.975
08/31/2013  01:19:00      -56.487       -4.679       -5.831       28.812       18.949       16.250      830.135      359.073      264.060        0.235        0.073       56.680       15.807        0.078      343.829       20.219      863.965
08/31/2013  01:20:00      -40.358      -14.432      -11.706       18.773       17.072       11.164      352.412      291.451      124.639        0.137        0.038       42.861        3.445        0.006      343.859       20.266      863.955
08/31/2013  01:21:00      -13.227        9.410        7.260       24.583       15.893       14.863      604.306      252.579      220.917        0.070        0.054       16.233       15.157        0.872      343.738       20.062      863.965
08/31/2013  01:22:00      -48.552       -1.636       -3.496       17.294       24.152       19.148      299.081      583.337      366.656        0.181        0.062       48.579       18.664        0.148      343.900       20.338      863.988
08/31/2013  01:23:00      -41.987      -24.149      -12.348       39.681       21.626       15.717     1574.614      467.705      247.021        0.239        0.114       48.437       20.286        0.175      343.891       20.323      863.998
08/31/2013  01:24:00      -63.731      -41.124      -12.849       25.842       22.043       16.320      667.789      485.897      266.356        0.367        0.071       75.848        3.404        0.002      343.920       20.372      864.003
08/31/2013  01:25:00      -96.615      -20.246       -7.636       14.955       12.821       12.496      223.666      164.376      156.160        0.517        0.027       98.713        9.603        0.009      343.848       20.249      864.001
08/31/2013  01:26:00      -59.862      -19.944       -9.437       12.567       11.051        5.292      157.926      122.128       28.003        0.219        0.015       63.097        4.237        0.005      343.912       20.359      863.999
08/31/2013  01:27:00      -67.556      -11.259      -10.468        9.475        9.860        7.275       89.769       97.213       52.923        0.252        0.012       68.488        3.570        0.003      343.948       20.420      863.981
08/31/2013  01:28:00      -59.792       -6.219       -6.575        9.559       14.291        6.649       91.373      204.231       44.211        0.200        0.017       60.115        5.968        0.010      343.950       20.425      863.974
08/31/2013  01:29:00      -76.916       -9.008      -13.834        8.972       12.610        8.139       80.488      159.013       66.251        0.325        0.015       77.442        6.184        0.006      343.954       20.429      863.970
08/31/2013  01:30:00     -106.877      -18.467      -15.692       11.073        7.331        7.086      122.609       53.739       50.217        0.612        0.011      108.461        6.216        0.003      343.924       20.380      863.977
08/31/2013  01:31:00     -120.764      -18.415      -17.735       16.159       12.500       12.197      261.110      156.240      148.778        0.790        0.028      122.160        7.990        0.004      343.846       20.245      863.969
08/31/2013  01:32:00     -127.913      -30.491      -17.497       12.599       13.352       11.062      158.744      178.289      122.372        0.903        0.023      131.496        6.611        0.003      343.741       20.065      863.963
08/31/2013  01:33:00     -100.898      -32.526       -8.449       13.152       14.844       13.667      172.970      220.341      186.800        0.594        0.029      106.011        6.666        0.004      343.719       20.029      863.955
08/31/2013  01:34:00      -85.437      -37.956      -12.522       17.379        9.603        7.963      302.015       92.210       63.407        0.468        0.023       93.489        6.330        0.005      343.854       20.261      863.956
08/31/2013  01:35:00      -88.941      -34.089      -10.267       15.588       10.796       10.317      242.985      116.558      106.448        0.482        0.023       95.250        3.225        0.001      343.872       20.290      863.951
08/31/2013  01:36:00     -110.213      -41.623      -12.538        9.758       13.539        9.873       95.216      183.310       97.481        0.721        0.019      117.811        5.532        0.002      343.843       20.240      863.942
08/31/2013  01:37:00     -125.656      -28.683      -16.965       10.256       20.410       11.011      105.184      416.586      121.244        0.877        0.032      128.888        7.200        0.003      343.793       20.157      863.935
08/31/2013  01:38:00     -126.370      -20.267      -16.499       24.119       17.145       12.765      581.716      293.958      162.939        0.885        0.052      127.984       12.305        0.009      343.780       20.133      863.934
08/31/2013  01:39:00     -124.540      -51.921      -10.613       19.779       17.696       17.546      391.211      313.145      307.863        0.967        0.051      134.930       13.732        0.010      343.594       19.814      863.939
08/31/2013  01:40:00     -108.195        2.670       -5.841       41.124       41.515       25.909     1691.148     1723.523      671.253        0.792        0.204      108.228       22.683        0.044      343.433       19.541      863.935
08/31/2013  01:41:00      -60.133       24.104       12.304       37.395       38.043       29.175     1398.398     1447.303      851.165        0.402        0.185       64.784       22.022        0.116      343.339       19.381      863.926
08/31/2013  01:42:00      -43.049        1.214        3.279       27.191       33.859       21.094      739.373     1146.409      444.977        0.210        0.117       43.066       16.937        0.155      343.452       19.573      863.918
08/31/2013  01:43:00      -10.558      -12.372       -1.709       25.997       19.340       14.178      675.850      374.017      201.017        0.076        0.063       16.264        8.687        0.285      343.395       19.476      863.913
08/31/2013  01:44:00      -43.344      -20.059       -1.055       28.972       29.146       17.188      839.379      849.510      295.442        0.213        0.099       47.760        8.954        0.035      343.522       19.694      863.916
08/31/2013  01:45:00      -79.517      -46.850        6.442       26.008       41.381       20.798      676.436     1712.398      432.552        0.569        0.141       92.293       14.106        0.023      343.570       19.776      863.901
08/31/2013  01:46:00      -41.208       29.731       10.452       39.346       28.221       21.093     1548.091      796.445      444.897        0.274        0.139       50.813       21.479        0.179      343.447       19.566      863.886
08/31/2013  01:47:00     -102.328       -3.777        0.595       42.767       31.737       23.072     1828.999     1007.237      532.307        0.693        0.168      102.398       25.430        0.062      343.503       19.660      863.888
08/31/2013  01:48:00     -175.868       11.355      -10.387       51.489       30.899       24.624     2651.066      954.717      606.341        1.769        0.211      176.234       26.066        0.022      343.625       19.867      863.886
08/31/2013  01:49:00     -142.424       18.296       -9.493       62.489       40.566       24.557     3904.824     1645.636      603.066        1.343        0.308      143.594       24.651        0.029      343.571       19.775      863.877
08/31/2013  01:50:00     -125.104        7.900      -12.654       49.788       38.631       23.765     2478.865     1492.355      564.779        1.020        0.227      125.353       22.257        0.032      343.549       19.739      863.863
08/31/2013  01:51:00      -91.979       11.068        0.143       50.119       29.162       24.096     2511.911      850.405      580.631        0.626        0.197       92.643       20.668        0.050      343.614       19.850      863.851
08/31/2013  01:52:00      -36.994        9.489        8.214       34.704       31.675       21.241     1204.363     1003.293      451.194        0.209        0.133       38.192       19.037        0.248      343.513       19.678      863.846
08/31/2013  01:53:00      -46.578      -46.077        2.512       46.614       31.862       20.292     2172.820     1015.199      411.771        0.395        0.180       65.518       16.307        0.062      343.407       19.496      863.840
08/31/2013  01:54:00      -43.448       -1.776        8.052       37.045       31.336       19.507     1372.339      981.970      380.519        0.234        0.137       43.484       14.070        0.105      343.368       19.431      863.826
08/31/2013  01:55:00      -89.141      -51.892        0.386       44.931       30.967       18.449     2018.834      958.935      340.349        0.698        0.166      103.145       15.211        0.022      343.458       19.583      863.827
08/31/2013  01:56:00     -139.617      -64.797       -1.024       28.834       32.609       21.078      831.382     1063.355      444.302        1.302        0.117      153.921       16.711        0.012      343.483       19.628      863.834
08/31/2013  01:57:00     -136.555      -74.494       -3.011       48.682       26.923       22.204     2369.975      724.824      493.018        1.390        0.179      155.552       20.512        0.017      343.531       19.708      863.839
08/31/2013  01:58:00     -153.270      -77.343      -10.238       33.158       27.087       18.788     1099.431      733.694      353.006        1.588        0.109      171.679       13.811        0.006      343.555       19.751      863.835
08/31/2013  01:59:00     -138.276      -70.856       -1.608       34.428       29.256       19.788     1185.273      855.921      391.558        1.329        0.122      155.374       17.803        0.013      343.587       19.803      863.839
08/31/2013  02:00:00      -79.430      -71.513        2.563       63.343       37.214       24.707     4012.353     1384.859      610.460        0.872        0.300      106.879       31.385        0.086      343.552       19.743      863.840
08/31/2013  02:01:00     -116.503      -89.386       -9.781       36.633       28.717       20.208     1341.969      824.678      408.360        1.212        0.129      146.842       15.679        0.011      343.559       19.755      863.836
08/31/2013  02:02:00     -106.272      -59.155       -3.911       29.938       36.203       18.639      896.266     1310.657      347.417        0.868        0.128      121.627       18.343        0.023      343.519       19.686      863.828
08/31/2013  02:03:00     -114.528      -35.527       -3.696       35.412       27.801       17.372     1253.984      772.895      301.770        0.836        0.116      119.912       17.735        0.022      343.670       19.945      863.831
08/31/2013  02:04:00      -63.275      -26.820        6.173       39.331       28.106       17.243     1546.899      789.929      297.332        0.370        0.132       68.725       16.370        0.057      343.637       19.889      863.841
08/31/2013  02:05:00      -90.998      -50.249       -4.784       27.145       22.220       17.322      736.845      493.738      300.048        0.618        0.077      103.950       15.130        0.021      343.574       19.781      863.837
08/31/2013  02:06:00      -75.709      -34.144        1.456       31.846       18.514       16.806     1014.148      342.765      282.449        0.427        0.082       83.053       16.733        0.041      343.441       19.555      863.829
08/31/2013  02:07:00      -86.276      -13.213       -5.031       17.549       19.412       11.126      307.966      376.839      123.788        0.423        0.040       87.282        7.201        0.007      343.545       19.730      863.816
08/31/2013  02:08:00      -69.783       -6.372       -3.341       21.963       20.876       15.703      482.380      435.799      246.570        0.304        0.058       70.074       12.510        0.032      343.496       19.650      863.798
08/31/2013  02:09:00      -87.541      -18.550       -3.411       24.403       20.902       13.755      595.508      436.874      189.201        0.462        0.061       89.484       10.821        0.015      343.609       19.840      863.786
08/31/2013  02:10:00     -113.062      -40.493       -4.246       14.813       15.224        8.825      219.437      231.761       77.873        0.748        0.026      120.095        8.025        0.004      343.679       19.960      863.788
08/31/2013  02:11:00     -107.328      -40.611       -6.513       13.425       13.968       10.792      180.219      195.105      116.465        0.685        0.025      114.754        6.584        0.003      343.565       19.765      863.786
08/31/2013  02:12:00      -80.581      -26.649       -3.096       20.495       10.960       11.194      420.063      120.113      125.308        0.394        0.033       84.873        9.709        0.013      343.473       19.608      863.784
08/31/2013  02:13:00      -38.885      -23.954        5.276       28.760       17.310       14.102      827.150      299.619      198.868        0.172        0.066       45.671       14.185        0.096      343.384       19.459      863.779
08/31/2013  02:14:00       -4.529      -17.657       11.953       23.021       19.858       14.612      529.950      394.356      213.502        0.081        0.057       18.229       13.437        0.543      343.123       19.015      863.794
08/31/2013  02:15:00       16.196       -4.710       17.039       25.973       17.571       15.890      674.612      308.735      252.486        0.091        0.062       16.867       11.132        0.436      342.935       18.693      863.801
08/31/2013  02:16:00        6.459       -9.979        0.661       25.806       19.567       15.606      665.935      382.879      243.543        0.072        0.065       11.887       13.644        1.317      343.016       18.830      863.792
08/31/2013  02:17:00      -30.392       -9.835       -4.340       11.547       12.352        9.230      133.335      152.569       85.186        0.071        0.019       31.944        7.953        0.062      343.492       19.643      863.786
08/31/2013  02:18:00      -50.413      -25.898       -5.057       11.096       16.737        8.812      123.122      280.128       77.647        0.186        0.024       56.676        6.536        0.013      343.524       19.695      863.762
08/31/2013  02:19:00      -64.593      -30.820      -13.820        9.952       13.939        8.720       99.049      194.299       76.044        0.284        0.018       71.569        6.738        0.009      343.466       19.595      863.752
08/31/2013  02:20:00      -66.987      -21.195      -14.046       10.744       10.720        7.459      115.434      114.920       55.630        0.271        0.014       70.260        4.214        0.004      343.364       19.423      863.747
08/31/2013  02:21:00      -83.520      -29.992      -13.582       12.823       12.263       10.179      164.441      150.380      103.605        0.424        0.021       88.742        6.689        0.006      343.281       19.283      863.748
08/31/2013  02:22:00      -98.556      -49.423      -12.991       16.825       18.454       14.633      283.088      340.537      214.125        0.658        0.042      110.254        9.833        0.008      343.196       19.137      863.759
08/31/2013  02:23:00      -90.007      -55.200       -8.752       22.100       22.823       16.822      488.407      520.885      282.964        0.626        0.065      105.585       11.156        0.011      343.153       19.064      863.778
08/31/2013  02:24:00      -82.776      -21.843       -8.642       16.136       20.333       12.345      260.384      413.444      152.405        0.411        0.041       85.609       10.484        0.015      343.061       18.908      863.798
08/31/2013  02:25:00      -78.220       -2.478       -9.168        9.540        9.454        8.859       91.014       89.381       78.486        0.323        0.013       78.259        5.746        0.005      343.184       19.116      863.808
08/31/2013  02:26:00      -69.244      -10.671       -6.380       15.015       12.942        8.881      225.450      167.485       78.877        0.271        0.024       70.062        5.767        0.007      343.224       19.183      863.819
08/31/2013  02:27:00      -33.617      -24.344       -1.368       21.071        8.698        7.297      443.981       75.651       53.251        0.115        0.029       41.506       10.068        0.059      343.208       19.157      863.821
08/31/2013  02:28:00      -84.566      -32.540      -11.621       16.510       11.409        7.934      272.595      130.158       62.947        0.441        0.023       90.610        5.663        0.004      343.237       19.209      863.820
08/31/2013  02:29:00     -111.928      -49.101       -8.944       11.971       14.698       10.251      143.297      216.029      105.076        0.774        0.023      122.224        4.562        0.001      343.256       19.243      863.809
08/31/2013  02:30:00      -97.993      -47.557       -4.490       35.492       21.402       19.282     1259.716      458.045      371.791        0.699        0.104      108.924       17.221        0.025      343.201       19.147      863.808
08/31/2013  02:31:00     -112.761      -32.054       -6.476       24.299       15.676       10.011      590.429      245.735      100.223        0.736        0.047      117.228        7.025        0.004      343.194       19.136      863.807
08/31/2013  02:32:00      -84.721      -21.464       -3.861       17.852       13.596       11.517      318.710      184.859      132.649        0.414        0.032       87.397       11.795        0.018      343.277       19.275      863.798
08/31/2013  02:33:00      -94.840      -19.879       -7.339       11.640       13.313        8.836      135.480      177.238       78.080        0.492        0.020       96.901        4.083        0.002      343.265       19.253      863.789
08/31/2013  02:34:00      -70.729      -37.072       -7.463       24.453       14.024       10.569      597.948      196.668      111.703        0.367        0.045       79.855        7.341        0.008      343.186       19.121      863.781
08/31/2013  02:35:00      -83.870      -49.923       -8.605       18.947       15.912       10.570      358.992      253.185      111.727        0.516        0.036       97.604        6.301        0.004      343.183       19.116      863.775
08/31/2013  02:36:00      -94.605      -39.462       -7.662       19.746       17.289       12.954      389.920      298.926      167.806        0.571        0.043      102.505        5.569        0.003      343.092       18.960      863.767
08/31/2013  02:37:00     -106.571      -40.691      -11.523       22.410       16.103       17.597      502.211      259.317      309.668        0.711        0.054      114.075       11.725        0.011      343.063       18.910      863.761
08/31/2013  02:38:00     -105.871      -13.118       -8.973       14.704       13.102       10.212      216.206      171.656      104.293        0.598        0.025      106.680        7.730        0.005      343.109       18.988      863.754
08/31/2013  02:39:00      -74.895       -3.033       -5.629       16.452       13.319        9.650      270.654      177.400       93.128        0.310        0.027       74.956        7.314        0.010      343.032       18.858      863.743
08/31/2013  02:40:00      -86.567      -40.184       -3.840       22.725       17.412       13.310      516.416      303.171      177.161        0.506        0.050       95.439       12.966        0.018      343.011       18.823      863.745
08/31/2013  02:41:00      -34.189      -42.967        8.177       39.898       29.530       20.393     1591.836      871.995      415.863        0.298        0.144       54.909       19.559        0.127      342.957       18.731      863.759
08/31/2013  02:42:00     -108.596      -73.021       -1.950       35.710       28.729       23.151     1275.232      825.357      535.950        0.988        0.132      130.863       16.991        0.017      342.983       18.774      863.762
08/31/2013  02:43:00     -131.899      -57.545       -3.388       27.955       30.905       17.959      781.483      955.113      322.530        1.139        0.103      143.905       10.953        0.006      343.014       18.828      863.762
08/31/2013  02:44:00      -82.628      -12.126       -3.046       26.095       17.342       13.247      680.966      300.753      175.472        0.407        0.058       83.513        8.435        0.010      342.959       18.732      863.750
08/31/2013  02:45:00      -97.595      -39.169       -7.449       27.713       23.029       15.152      768.001      530.328      229.571        0.632        0.076      105.162       13.985        0.018      342.959       18.734      863.737
08/31/2013  02:46:00      -74.625      -52.786       -1.569       28.080       19.105       14.856      788.464      365.002      220.694        0.487        0.069       91.407       11.733        0.016      342.956       18.729      863.734
08/31/2013  02:47:00      -87.134      -50.947       -2.019       25.567       20.488       14.678      653.660      419.778      215.448        0.574        0.064      100.935       13.994        0.019      342.943       18.705      863.742
08/31/2013  02:48:00      -90.486      -33.706       -4.291       13.592       18.289        9.357      184.740      334.498       87.551        0.497        0.030       96.560        6.373        0.004      343.027       18.849      863.748
08/31/2013  02:49:00      -31.178      -12.627        4.665       34.912       15.686       12.676     1218.857      246.035      160.692        0.139        0.081       33.638       17.393        0.267      342.960       18.736      863.743
08/31/2013  02:50:00      -37.450      -30.646       -2.163       15.226       12.281       11.132      231.827      150.822      123.912        0.143        0.025       48.391        7.717        0.025      343.007       18.816      863.756
08/31/2013  02:51:00      -88.257      -30.139       -9.915       21.952       15.672       11.539      481.871      245.602      133.152        0.483        0.043       93.261        7.528        0.007      343.018       18.835      863.762
08/31/2013  02:52:00     -115.437      -49.167       -7.241       19.916       19.151       14.496      396.641      366.764      210.145        0.838        0.049      125.471       12.136        0.009      342.963       18.740      863.773
08/31/2013  02:53:00      -43.542      -36.391        8.263       40.978       29.089       20.764     1679.187      846.166      431.162        0.312        0.148       56.747       21.415        0.142      342.850       18.549      863.779
08/31/2013  02:54:00      -69.063      -47.591        2.628       36.301       33.568       20.604     1317.781     1126.826      424.515        0.495        0.143       83.872       14.052        0.028      342.899       18.631      863.760
08/31/2013  02:55:00     -120.188      -35.572       -9.440       15.935       26.837       10.543      253.914      720.210      111.157        0.844        0.054      125.342        7.688        0.004      343.000       18.804      863.732
08/31/2013  02:56:00     -102.103      -15.649      -11.263       22.750       14.212       10.485      517.556      201.976      109.941        0.581        0.041      103.295        8.194        0.006      342.927       18.679      863.713
08/31/2013  02:57:00     -103.320      -28.892       -6.929       23.601       15.321       13.244      556.985      234.725      175.394        0.626        0.048      107.284       12.778        0.014      342.909       18.648      863.695
08/31/2013  02:58:00     -164.576      -52.578      -11.296       29.274       22.971       13.557      856.950      527.662      183.802        1.577        0.078      172.771       11.335        0.004      342.806       18.473      863.683
08/31/2013  02:59:00     -134.624      -66.402       -0.961       64.132       52.360       27.926     4112.955     2741.565      779.873        1.508        0.382      150.109       22.517        0.023      342.736       18.353      863.699
08/31/2013  03:00:00     -115.303      -69.427        4.161       57.456       45.825       29.129     3301.190     2099.972      848.509        1.219        0.312      134.591       27.663        0.042      342.830       18.514      863.712
08/31/2013  03:01:00     -120.764      -70.082       -6.979       30.358       35.760       21.435      921.624     1278.745      459.468        1.110        0.133      139.625       17.857        0.016      342.875       18.590      863.711
08/31/2013  03:02:00      -94.305      -27.843      -12.023       31.646       21.059       15.460     1001.458      443.493      239.020        0.575        0.084       98.330       11.111        0.013      342.906       18.643      863.699
08/31/2013  03:03:00      -78.145       -4.761      -11.220       21.567       20.773       14.074      465.145      431.498      198.077        0.367        0.055       78.290       12.564        0.026      342.923       18.674      863.700
08/31/2013  03:04:00      -33.420       25.228       -5.429       17.593       18.804        6.958      309.496      353.585       48.412        0.125        0.036       41.872        7.097        0.029      342.896       18.627      863.706
08/31/2013  03:05:00       -0.852        8.334        0.640       11.374       12.403        8.636      129.357      153.839       74.576        0.021        0.018        8.377        9.053        1.168      342.927       18.680      863.713
08/31/2013  03:06:00      -10.968       -9.686       10.348       45.225       38.169       23.466     2045.324     1456.886      550.658        0.219        0.203       14.633       23.294        2.534      342.819       18.496      863.744
08/31/2013  03:07:00     -138.910      -86.916       -1.291       80.531       63.374       37.751     6485.241     4016.298     1425.123        1.939        0.596      163.861       38.046        0.054      342.799       18.459      863.773
08/31/2013  03:08:00     -192.958     -111.121       -7.169       55.908       41.943       30.740     3125.722     1759.184      944.929        2.773        0.291      222.667       25.033        0.013      342.936       18.691      863.770
08/31/2013  03:09:00      -96.870      -10.740       -7.029       57.527       40.939       23.017     3309.380     1676.031      529.765        0.753        0.276       97.464       30.772        0.100      343.079       18.939      863.756
08/31/2013  03:10:00      -43.440       25.299       -0.541       29.021       27.783       20.892      842.208      771.886      436.481        0.229        0.103       50.270       19.264        0.147      342.929       18.683      863.735
08/31/2013  03:11:00      -34.881       -6.038       -3.518       22.842       22.337       14.948      521.768      498.941      223.454        0.125        0.062       35.400       11.265        0.101      343.230       19.195      863.735
08/31/2013  03:12:00       17.768      -23.117       -3.756       22.168       30.611       19.529      491.442      937.009      381.388        0.134        0.090       29.156       23.020        0.623      342.702       18.296      863.741
08/31/2013  03:13:00       -6.711      -16.579        2.769       26.379       31.709       21.835      695.863     1005.434      476.786        0.125        0.109       17.886       14.596        0.666      342.758       18.392      863.743
08/31/2013  03:14:00      -31.148      -27.960       -0.933       19.215       24.255       13.330      369.210      588.295      177.686        0.144        0.057       41.857       12.673        0.092      342.976       18.764      863.754
08/31/2013  03:15:00      -18.501        7.812       -5.688       15.633       10.443       10.293      244.402      109.052      105.938        0.045        0.023       20.083       11.589        0.333      343.064       18.911      863.745
08/31/2013  03:16:00       -4.879        8.814        3.908        5.663        7.258        7.140       32.066       52.675       50.975        0.013        0.007       10.074        4.834        0.230      343.047       18.884      863.732
08/31/2013  03:17:00      -26.655       -3.084       -2.791       10.069        9.585        7.484      101.392       91.868       56.008        0.049        0.012       26.833        5.322        0.039      343.141       19.045      863.737
08/31/2013  03:18:00      -59.153      -27.891        0.421       26.301       20.410       12.954      691.721      416.575      167.796        0.278        0.064       65.399        5.075        0.006      342.932       18.689      863.752
08/31/2013  03:19:00      -55.533      -35.746        2.266       50.171       35.822       28.683     2517.179     1283.211      822.693        0.449        0.231       66.043       25.623        0.151      342.734       18.351      863.783
08/31/2013  03:20:00     -147.804      -85.711       -3.087       50.659       40.499       23.242     2566.294     1640.174      540.183        1.697        0.237      170.858       17.344        0.010      342.869       18.580      863.794
08/31/2013  03:21:00     -131.687      -15.713       -8.488       43.613       53.514       20.372     1902.055     2863.772      415.012        1.142        0.259      132.621       14.664        0.012      342.761       18.397      863.785
08/31/2013  03:22:00     -115.951        1.675       -7.104       42.828       32.791       18.876     1834.256     1075.227      356.299        0.838        0.163      115.963       17.372        0.022      342.631       18.177      863.766
08/31/2013  03:23:00      -56.715       34.724       -7.795       21.284       23.657       15.975      452.991      559.648      255.211        0.288        0.063       66.501        9.796        0.022      342.641       18.194      863.738
08/31/2013  03:24:00      -59.799       60.123      -10.581       15.671       22.060       14.197      245.579      486.659      201.566        0.412        0.047       84.798       11.595        0.019      343.074       18.931      863.726
08/31/2013  03:25:00      -69.263       -4.397      -10.762       15.794       31.696       10.938      249.441     1004.648      119.649        0.315        0.069       69.402        7.840        0.013      342.958       18.732      863.721
08/31/2013  03:26:00      -42.263      -29.585       14.314       47.179       32.553       31.891     2225.852     1059.694     1017.055        0.358        0.215       51.589       27.061        0.275      342.694       18.282      863.711
08/31/2013  03:27:00      -70.649      -46.164        5.798       59.003       33.133       27.575     3481.297     1097.786      760.394        0.625        0.267       84.394       25.819        0.094      342.594       18.113      863.706
08/31/2013  03:28:00      -59.542      -32.498        3.597       38.028       23.359       17.141     1446.124      545.645      293.808        0.345        0.114       67.834        7.866        0.013      342.617       18.152      863.716
08/31/2013  03:29:00      -41.203      -12.533       -2.174       21.830       12.208        8.503      476.569      149.047       72.301        0.128        0.035       43.067        8.967        0.043      342.643       18.197      863.726
08/31/2013  03:30:00      -24.505      -14.042       -2.333       20.225        9.044        7.228      409.054       81.800       52.246        0.067        0.027       28.243        7.968        0.080      342.686       18.270      863.732
08/31/2013  03:31:00      -33.539      -18.374       -4.636       19.797       15.897        7.463      391.935      252.716       55.697        0.109        0.035       38.242        9.764        0.065      342.713       18.316      863.730
08/31/2013  03:32:00      -60.571      -36.379       -9.699       20.506       16.214       12.732      420.480      262.892      162.109        0.297        0.042       70.656        8.517        0.015      342.793       18.450      863.724
08/31/2013  03:33:00      -33.027      -34.817        6.103       34.101       31.680       27.603     1162.873     1003.635      761.928        0.263        0.146       47.990       27.282        0.323      342.684       18.266      863.730
08/31/2013  03:34:00      -10.863      -51.076        4.315       47.822       34.905       22.427     2286.980     1218.355      502.983        0.338        0.200       52.219       25.816        0.244      342.920       18.668      863.725
08/31/2013  03:35:00        7.366      -34.519       -3.453       19.017       35.499       20.916      361.661     1260.160      437.462        0.166        0.103       35.296       22.127        0.393      342.631       18.174      863.707
08/31/2013  03:36:00        4.402       -6.802        5.678       15.138       26.036       22.211      229.169      677.894      493.329        0.075        0.070        8.102       20.411        6.347      342.556       18.049      863.685
08/31/2013  03:37:00       29.661      -25.496       -0.783       16.191       17.361       17.873      262.136      301.396      319.457        0.121        0.044       39.113       11.911        0.093      342.509       17.968      863.673
08/31/2013  03:38:00      -91.813      -23.881      -13.323       46.759       25.867       14.175     2186.419      669.083      200.937        0.612        0.153       94.868       12.437        0.017      342.624       18.164      863.650
08/31/2013  03:39:00      -75.032      -68.328       -0.839       65.977       42.297       27.718     4352.973     1789.074      768.272        0.860        0.346      101.482       29.758        0.086      342.541       18.024      863.644
08/31/2013  03:40:00     -129.297      -73.343        5.262       59.964       43.838       27.348     3595.687     1921.749      747.926        1.419        0.313      148.651       28.469        0.037      342.439       17.849      863.642
08/31/2013  03:41:00     -130.486      -55.196       -1.672       45.193       35.046       23.208     2042.406     1228.210      538.623        1.194        0.190      141.680       19.116        0.018      342.506       17.964      863.631
08/31/2013  03:42:00     -101.279      -16.459       -6.480       29.450       19.515       15.896      867.315      380.822      252.669        0.604        0.075      102.608       13.953        0.018      342.584       18.096      863.613
08/31/2013  03:43:00     -108.806      -35.181       -5.546       22.921       22.437       14.095      525.354      503.405      198.662        0.717        0.061      114.352        8.411        0.005      342.548       18.035      863.584
08/31/2013  03:44:00      -78.309      -38.041       -1.219       35.283       27.892       14.106     1244.869      777.963      198.978        0.490        0.111       87.060       14.679        0.028      342.469       17.901      863.562
08/31/2013  03:45:00      -35.876      -20.474        5.086       29.335       21.345       18.079      860.544      455.597      326.839        0.169        0.082       41.307       16.989        0.169      342.503       17.959      863.564
08/31/2013  03:46:00      -58.816      -30.537        0.493       32.911       26.465       18.698     1083.132      700.393      349.616        0.326        0.107       66.270       13.875        0.044      342.512       17.973      863.578
08/31/2013  03:47:00      -49.942      -40.332        2.735       56.991       33.395       24.559     3247.949     1115.239      603.154        0.455        0.248       64.194       19.157        0.089      342.512       17.975      863.589
08/31/2013  03:48:00     -122.849      -36.164        0.957       42.242       28.450       17.913     1784.370      809.398      320.865        0.966        0.146      128.061       18.293        0.020      342.462       17.891      863.588
08/31/2013  03:49:00     -123.557       -9.925      -10.606       24.475       23.946       13.408      599.018      573.391      179.780        0.841        0.068      123.955       12.441        0.010      342.294       17.604      863.587
08/31/2013  03:50:00      -81.961       -6.257       -6.000       32.671       24.108       17.343     1067.425      581.179      300.791        0.437        0.097       82.199       13.821        0.028      342.226       17.486      863.586
08/31/2013  03:51:00     -107.886       14.911       -4.994       36.680       31.368       18.942     1345.411      983.965      358.782        0.729        0.134      108.912       14.867        0.019      342.492       17.939      863.579
08/31/2013  03:52:00      -82.326      -30.163       -7.181       44.956       29.237       21.219     2021.069      854.799      450.240        0.553        0.166       87.678       21.493        0.060      342.480       17.919      863.559
08/31/2013  03:53:00      -62.883      -49.742        8.340       47.358       32.185       25.687     2242.745     1035.846      659.805        0.522        0.197       80.178       19.586        0.060      342.348       17.693      863.540
08/31/2013  03:54:00     -108.719      -72.379        0.161       54.480       35.338       27.290     2968.053     1248.769      744.733        1.101        0.248      130.608       32.508        0.062      342.323       17.652      863.529
08/31/2013  03:55:00     -132.893      -69.175       -5.518       50.322       30.606       21.479     2532.324      936.744      461.369        1.320        0.197      149.819       20.288        0.018      342.361       17.715      863.523
08/31/2013  03:56:00     -120.654      -31.118       -4.458       23.541       22.971       20.382      554.163      527.677      415.443        0.852        0.075      124.603       14.580        0.014      342.391       17.767      863.512
08/31/2013  03:57:00      -71.309      -15.582       -8.501       22.517       19.376       14.699      507.000      375.417      216.064        0.325        0.055       72.992        7.241        0.010      342.339       17.679      863.514
08/31/2013  03:58:00     -127.282        0.054       -6.646       21.124       25.334       15.416      446.212      641.812      237.648        0.879        0.066      127.282       13.590        0.011      342.641       18.192      863.529
08/31/2013  03:59:00     -103.474      -64.634        1.870       29.777       35.528       18.247      886.662     1262.255      332.945        0.868        0.124      122.002       17.897        0.022      342.572       18.075      863.551
08/31/2013  04:00:00      -64.384      -58.398       -0.249       48.970       33.671       24.112     2398.064     1133.705      581.412        0.583        0.206       86.923       17.923        0.043      342.387       17.761      863.569
08/31/2013  04:01:00      -99.835      -57.993        0.711       37.812       26.683       25.083     1429.762      711.998      629.152        0.805        0.139      115.457       23.149        0.040      342.382       17.754      863.591
08/31/2013  04:02:00     -111.285      -61.066       -0.710       18.074       14.944       11.177      326.672      223.336      124.936        0.839        0.034      126.939        6.116        0.002      342.551       18.040      863.603
08/31/2013  04:03:00      -79.315      -40.935        2.209       26.580       19.395       13.825      706.494      376.157      191.138        0.462        0.064       89.255       12.938        0.021      342.518       17.985      863.610
08/31/2013  04:04:00      -72.266      -45.038        3.564       27.002       14.859       14.035      729.094      220.801      196.980        0.420        0.057       85.152       14.126        0.028      342.440       17.851      863.595
08/31/2013  04:05:00      -68.483      -53.391        0.992       33.883       21.413       22.305     1148.085      458.533      497.524        0.482        0.105       86.836       15.219        0.031      342.311       17.632      863.579
08/31/2013  04:06:00      -96.682      -73.007        2.565       34.689       26.240       22.343     1203.335      688.520      499.194        0.854        0.120      121.151       18.107        0.022      342.292       17.600      863.579
08/31/2013  04:07:00     -118.480      -93.271       -1.701       46.585       44.728       26.339     2170.207     2000.610      693.750        1.380        0.243      150.788       24.020        0.025      342.239       17.508      863.573
08/31/2013  04:08:00     -117.983      -86.148        0.858       54.886       32.004       28.699     3012.470     1024.240      823.646        1.310        0.243      146.087       23.830        0.027      342.268       17.559      863.571
08/31/2013  04:09:00     -149.814      -72.774       -6.129       48.893       27.582       22.737     2390.562      760.759      516.973        1.572        0.183      166.555       18.411        0.012      342.388       17.761      863.568
08/31/2013  04:10:00     -152.788      -56.879       -7.362       48.918       36.672       19.662     2393.009     1344.857      386.589        1.538        0.206      163.032       16.729        0.011      342.410       17.800      863.574
08/31/2013  04:11:00     -142.063      -36.074       -0.095       54.799       41.005       26.670     3002.979     1681.392      711.304        1.344        0.270      146.571       27.088        0.034      342.342       17.683      863.576
08/31/2013  04:12:00     -122.336      -32.027      -12.512       43.398       22.890       21.310     1883.399      523.961      454.133        0.950        0.143      126.459       23.322        0.034      342.235       17.502      863.576
08/31/2013  04:13:00     -132.757      -25.127       -4.967       42.797       27.522       26.365     1831.619      757.470      695.099        1.078        0.164      135.114       25.097        0.035      342.277       17.573      863.572
08/31/2013  04:14:00     -151.803      -28.196       -4.039       41.097       27.517       22.369     1688.953      757.171      500.379        1.340        0.147      154.399       21.203        0.019      342.213       17.465      863.578
08/31/2013  04:15:00     -174.045      -75.219        2.103       44.112       40.987       26.539     1945.904     1679.915      704.297        2.014        0.217      189.604       18.823        0.010      342.256       17.536      863.609
08/31/2013  04:16:00     -160.886      -75.325       -4.101       77.557       52.323       38.620     6015.157     2737.647     1491.516        2.091        0.512      177.647       37.320        0.044      342.251       17.527      863.627
08/31/2013  04:17:00     -169.819      -54.924      -10.437       68.967       65.473       39.929     4756.406     4286.692     1594.305        2.130        0.532      178.481       41.983        0.055      342.252       17.529      863.629
08/31/2013  04:18:00     -117.776       -7.749        0.747       35.423       36.162       28.136     1254.767     1307.676      791.638        0.864        0.168      118.031       22.267        0.036      342.378       17.744      863.633
08/31/2013  04:19:00     -120.280       -8.750       -8.271       53.852       25.373       18.129     2900.020      643.769      328.652        0.924        0.194      120.598       20.038        0.028      342.694       18.284      863.625
08/31/2013  04:20:00     -102.074       25.326       -7.193       33.175       29.070       15.641     1100.561      845.087      244.655        0.665        0.110      105.169        8.788        0.007      342.898       18.630      863.596
08/31/2013  04:21:00     -100.112       33.438      -11.697       25.493       31.430       15.116      649.901      987.868      228.506        0.657        0.093      105.549       12.761        0.015      343.031       18.857      863.585
08/31/2013  04:22:00      -89.699       -9.945       -4.749       20.815       25.583       12.417      433.277      654.496      154.187        0.470        0.062       90.248       11.285        0.016      342.813       18.486      863.585
08/31/2013  04:23:00     -109.005      -60.654      -11.860       29.874       18.202       15.006      892.473      331.316      225.178        0.858        0.072      124.744        8.495        0.005      342.614       18.147      863.593
08/31/2013  04:24:00     -102.334      -80.116        0.562       39.151       26.375       23.400     1532.802      695.629      547.556        0.983        0.139      129.965       17.701        0.019      342.477       17.914      863.595
08/31/2013  04:25:00     -117.723      -72.622        3.553       33.161       27.023       24.842     1099.667      730.263      617.107        1.080        0.122      138.321       21.136        0.023      342.542       18.024      863.602
08/31/2013  04:26:00      -86.781      -64.697        5.562       41.785       33.303       24.726     1745.989     1109.117      611.383        0.761        0.173      108.244       23.084        0.045      342.555       18.046      863.617
08/31/2013  04:27:00      -78.954      -48.577        5.843       47.684       43.519       23.784     2273.807     1893.913      565.673        0.668        0.237       92.701       23.615        0.065      342.681       18.262      863.629
08/31/2013  04:28:00     -107.328      -80.990       -8.543       37.417       36.004       24.134     1400.011     1296.322      582.461        1.071        0.164      134.457       15.605        0.013      342.611       18.142      863.637
08/31/2013  04:29:00      -87.639      -74.459        0.314       50.194       40.473       21.797     2519.449     1638.031      475.103        0.893        0.232      114.999       25.358        0.049      342.464       17.893      863.637
08/31/2013  04:30:00      -47.920      -32.421        2.478       25.676       18.850       13.971      659.233      355.340      195.194        0.228        0.060       57.857       12.867        0.049      342.579       18.087      863.635
08/31/2013  04:31:00       -8.835        0.742        0.815       14.896        7.053        4.984      221.881       49.745       24.845        0.019        0.015        8.866        2.817        0.101      342.703       18.297      863.643
08/31/2013  04:32:00      -20.533       -1.977        1.079        7.258       13.775        3.583       52.677      189.751       12.838        0.034        0.013       20.628        4.620        0.050      342.739       18.357      863.650
08/31/2013  04:33:00      -43.995      -28.203       -1.854       33.300       14.335       10.220     1108.869      205.487      104.450        0.208        0.071       52.259       12.834        0.060      342.709       18.307      863.665
08/31/2013  04:34:00     -134.651      -50.979       -6.324       27.232       28.985       16.756      741.577      840.129      280.764        1.132        0.093      143.979        8.997        0.004      342.334       17.671      863.681
08/31/2013  04:35:00     -127.789      -66.077       -1.465       61.356       30.986       22.147     3764.590      960.130      490.490        1.296        0.261      143.862       17.025        0.014      342.272       17.565      863.693
08/31/2013  04:36:00     -156.479      -68.631       -1.819       20.865       22.762       13.786      435.335      518.100      190.055        1.517        0.057      170.868        9.918        0.003      342.443       17.857      863.702
08/31/2013  04:37:00     -123.128      -34.976      -11.167       13.737       18.692       12.595      188.712      349.400      158.632        0.860        0.035      127.999        7.515        0.003      342.449       17.867      863.710
08/31/2013  04:38:00      -99.405      -44.161      -17.288       14.216       17.976       13.817      202.087      323.140      190.916        0.642        0.036      108.773        9.124        0.007      342.386       17.759      863.697
08/31/2013  04:39:00      -62.804      -34.344       -2.475       28.285       17.990       11.409      800.051      323.639      130.160        0.319        0.063       71.581       11.530        0.026      342.407       17.794      863.674
08/31/2013  04:40:00      -46.067      -17.230        2.685       33.546       20.388       12.782     1125.366      415.659      163.388        0.206        0.085       49.184       13.939        0.080      342.290       17.596      863.661
08/31/2013  04:41:00      -57.196      -38.638        2.810       34.190       23.706       16.604     1168.959      561.975      275.707        0.339        0.100       69.024       15.270        0.049      342.241       17.513      863.659
08/31/2013  04:42:00      -82.924      -48.154       -0.737       39.614       30.535       22.898     1569.246      932.373      524.311        0.611        0.151       95.891       23.163        0.058      342.200       17.443      863.671
08/31/2013  04:43:00      -72.819      -56.862        4.704       78.859       45.196       31.092     6218.731     2042.642      966.690        0.889        0.461       92.390       36.359        0.155      342.177       17.404      863.682
08/31/2013  04:44:00      -98.603      -84.074        5.431       70.381       49.946       31.544     4953.415     2494.577      995.050        1.263        0.422      129.580       33.677        0.068      342.298       17.610      863.690
08/31/2013  04:45:00      -92.477      -77.969       -0.555       56.987       39.491       27.377     3247.488     1559.551      749.499        1.009        0.278      120.959       25.192        0.043      342.430       17.835      863.696
08/31/2013  04:46:00      -47.274      -35.448       -1.159       41.827       40.037       21.338     1749.528     1602.999      455.311        0.365        0.190       59.088       18.564        0.099      342.397       17.779      863.688
08/31/2013  04:47:00      -78.026      -60.922       -0.108       42.089       37.951       21.592     1771.497     1440.271      466.195        0.674        0.184       98.992       19.355        0.038      342.353       17.704      863.681
08/31/2013  04:48:00      -62.347      -62.183        6.522       47.898       35.862       23.504     2294.174     1286.103      552.436        0.596        0.207       88.056       26.392        0.090      342.381       17.751      863.682
08/31/2013  04:49:00      -47.073      -68.106        8.246       41.364       34.326       28.303     1711.021     1178.270      801.032        0.531        0.185       82.790       26.042        0.099      342.384       17.756      863.680
08/31/2013  04:50:00     -129.270      -78.010       -0.898       67.081       36.017       30.124     4499.895     1297.193      907.471        1.475        0.335      150.984       24.275        0.026      342.205       17.451      863.685
08/31/2013  04:51:00     -149.920     -100.025       -8.932       54.182       63.645       36.250     2935.642     4050.669     1314.075        2.043        0.415      180.225       32.149        0.032      342.233       17.498      863.686
08/31/2013  04:52:00     -147.416      -74.188       -0.619       41.177       47.449       26.431     1695.545     2251.431      698.579        1.594        0.232      165.032       21.487        0.017      342.179       17.407      863.688
08/31/2013  04:53:00     -148.491      -55.746       -6.147       28.974       24.105       18.428      839.477      581.062      339.598        1.348        0.088      158.610       15.390        0.009      342.145       17.350      863.682
08/31/2013  04:54:00     -133.280      -45.370       -7.155       32.180       26.032       19.483     1035.522      677.679      379.604        1.098        0.105      140.791       18.820        0.018      342.165       17.385      863.680
08/31/2013  04:55:00     -117.030      -57.015       -6.323       26.708       29.669       17.115      713.321      880.267      292.921        0.944        0.094      130.179       16.139        0.015      342.144       17.348      863.675
08/31/2013  04:56:00     -116.436      -47.136        3.597       34.694       26.514       15.468     1203.645      703.004      239.247        0.897        0.107      125.615       15.014        0.014      342.137       17.336      863.675
08/31/2013  04:57:00      -63.184      -34.720       11.145       54.990       29.060       16.723     3023.851      844.511      279.672        0.473        0.207       72.095       22.029        0.093      341.992       17.091      863.673
08/31/2013  04:58:00      -61.983      -58.364        7.253       47.839       35.514       23.657     2288.554     1261.222      559.647        0.570        0.205       85.137       25.736        0.091      342.035       17.163      863.675
08/31/2013  04:59:00     -104.671      -64.507       -0.422       44.167       41.680       24.669     1950.683     1737.251      608.567        0.971        0.215      122.952       24.491        0.040      342.101       17.274      863.673
08/31/2013  05:00:00     -130.040      -85.911       -0.868       40.505       32.469       24.053     1640.640     1054.266      578.544        1.378        0.164      155.856       21.542        0.019      342.186       17.419      863.676
08/31/2013  05:01:00      -82.777      -39.988        5.624       41.407       25.497       25.603     1714.527      650.119      655.508        0.575        0.151       91.930       21.538        0.055      342.033       17.160      863.682
08/31/2013  05:02:00      -55.423      -46.610       10.832       50.250       47.213       24.064     2525.026     2229.064      579.094        0.535        0.267       72.417       23.517        0.105      341.963       17.040      863.674
08/31/2013  05:03:00     -120.179      -85.727       -2.218       33.169       36.902       20.407     1100.161     1361.785      416.434        1.234        0.144      147.621       15.401        0.011      342.050       17.188      863.654
08/31/2013  05:04:00      -99.903      -41.687       -0.871       34.637       22.714       16.577     1199.723      515.935      274.791        0.685        0.100      108.252       15.630        0.021      342.063       17.210      863.647
08/31/2013  05:05:00      -88.433      -19.567       -3.664       22.885       16.193       12.986      523.745      262.225      168.645        0.459        0.048       90.572       12.022        0.018      342.048       17.185      863.643
08/31/2013  05:06:00      -85.555      -40.849        0.270       24.577       18.347       15.740      604.049      336.599      247.763        0.509        0.059       94.807       14.393        0.023      342.013       17.126      863.649
08/31/2013  05:07:00      -56.082      -32.270       11.740       59.408       33.889       25.781     3529.323     1148.441      664.645        0.483        0.267       64.703       30.099        0.216      341.943       17.007      863.651
08/31/2013  05:08:00     -111.196      -69.782       -4.367       44.437       42.809       23.101     1974.608     1832.643      533.668        1.080        0.217      131.278       18.219        0.019      341.895       16.926      863.651
08/31/2013  05:09:00      -95.921      -72.728        5.992       39.338       46.830       21.871     1547.500     2193.020      478.323        0.937        0.211      120.375       21.667        0.032      341.919       16.966      863.661
08/31/2013  05:10:00      -72.697      -54.457        4.950       47.065       28.077       26.316     2215.136      788.308      692.531        0.598        0.185       90.831       25.104        0.076      341.863       16.870      863.682
08/31/2013  05:11:00     -119.025     -100.768       16.728      100.466       55.200       46.687    10093.410     3047.060     2179.673        1.996        0.766      155.952       47.907        0.094      341.810       16.779      863.691
08/31/2013  05:12:00     -157.283     -108.866       -3.623       73.276       65.568       36.378     5369.423     4299.106     1323.328        2.380        0.550      191.284       43.436        0.052      341.770       16.712      863.691
08/31/2013  05:13:00     -118.350      -50.215       -2.077       35.639       39.223       26.581     1270.136     1538.437      706.565        1.002        0.176      128.562       25.312        0.039      341.813       16.787      863.686
08/31/2013  05:14:00      -52.797      -39.871        3.699       21.418       23.453       18.891      458.747      550.040      356.856        0.288        0.068       66.160        8.819        0.018      341.807       16.775      863.691
08/31/2013  05:15:00      -41.999      -26.809       13.603       38.139       24.620       20.026     1454.603      606.159      401.052        0.256        0.123       49.826       22.125        0.197      341.825       16.806      863.694
08/31/2013  05:16:00      -89.616      -80.478        1.461       46.113       35.944       18.301     2126.441     1291.950      334.912        0.913        0.188      120.448       17.074        0.020      341.861       16.867      863.693
08/31/2013  05:17:00      -73.338      -65.986        2.607       56.301       40.750       26.857     3169.810     1660.537      721.315        0.764        0.278       98.654       27.405        0.077      341.856       16.859      863.701
08/31/2013  05:18:00     -117.032      -84.790       -4.256       48.880       38.315       26.028     2389.271     1468.070      677.478        1.272        0.227      144.520       28.183        0.038      341.913       16.956      863.691
08/31/2013  05:19:00      -50.115      -28.483        0.067       31.539       19.959       16.291      994.709      398.373      265.384        0.249        0.083       57.644       18.780        0.106      341.835       16.822      863.664
08/31/2013  05:20:00      -73.719      -17.057       -8.235       12.582       11.974       13.436      158.299      143.365      180.517        0.314        0.024       75.667        8.914        0.014      341.862       16.869      863.639
08/31/2013  05:21:00      -80.812      -17.945       -8.942       13.844       13.819        9.880      191.655      190.974       97.615        0.371        0.024       82.781        7.080        0.007      341.840       16.832      863.624
08/31/2013  05:22:00      -77.869      -27.116       -7.858        7.305        6.648        5.343       53.356       44.200       28.545        0.349        0.006       82.455        1.809        0.000      341.805       16.771      863.638
08/31/2013  05:23:00      -78.628      -50.132        0.753       27.094       17.042       13.448      734.103      290.432      180.848        0.495        0.060       93.251       12.642        0.018      341.799       16.761      863.651
08/31/2013  05:24:00     -100.885      -66.890       -9.288       39.062       32.792       21.207     1525.850     1075.321      449.736        0.889        0.153      121.046       10.190        0.007      341.730       16.647      863.674
08/31/2013  05:25:00     -116.460      -75.202       -2.594       38.856       35.992       17.896     1509.786     1295.416      320.282        1.117        0.156      138.630       22.664        0.027      341.707       16.606      863.685
08/31/2013  05:26:00      -93.137      -32.935       -5.852       20.108       19.490       11.490      404.332      379.855      132.021        0.535        0.046       98.788        9.835        0.010      341.696       16.589      863.684
08/31/2013  05:27:00     -121.263      -43.414       -8.118       23.158       25.343       18.553      536.280      642.270      344.196        0.909        0.076      128.800       16.871        0.017      341.652       16.514      863.680
08/31/2013  05:28:00      -80.804      -23.162       -3.986       41.474       38.089       20.047     1720.119     1450.795      401.886        0.533        0.179       84.058       21.330        0.064      341.655       16.519      863.664
08/31/2013  05:29:00     -111.340        3.270       -8.730       20.480       20.402       16.027      419.444      416.229      256.873        0.679        0.055      111.388       13.454        0.015      341.657       16.522      863.646
08/31/2013  05:30:00     -119.670      -47.421       -8.651       37.545       34.182       21.201     1409.621     1168.385      449.462        0.984        0.151      128.723       18.845        0.021      341.700       16.595      863.650
08/31/2013  05:31:00      -94.301      -63.091        2.530       42.621       29.213       21.026     1816.510      853.425      442.094        0.800        0.156      113.460       19.800        0.030      341.725       16.636      863.656
08/31/2013  05:32:00      -89.564      -44.282        3.773       50.689       38.072       21.549     2569.333     1449.510      464.379        0.724        0.224       99.913       10.731        0.012      341.743       16.667      863.648
08/31/2013  05:33:00      -80.158      -51.553        6.126       47.161       33.188       24.779     2224.140     1101.418      614.000        0.653        0.197       95.305       21.497        0.051      341.666       16.538      863.645
08/31/2013  05:34:00     -123.517      -78.446        0.867       38.002       30.850       23.990     1444.141      951.739      575.502        1.219        0.149      146.323       20.314        0.019      341.738       16.661      863.641
08/31/2013  05:35:00     -129.017      -56.256       -2.073       32.285       27.271       19.560     1042.316      743.691      382.598        1.099        0.108      140.749       18.024        0.016      341.739       16.661      863.636
08/31/2013  05:36:00     -120.391      -66.580       -7.533       32.293       27.305       18.169     1042.849      745.553      330.114        1.055        0.106      137.575       18.033        0.017      341.777       16.724      863.637
08/31/2013  05:37:00     -116.011      -59.058        2.120       39.940       30.048       26.486     1595.165      902.874      701.486        1.007        0.160      130.178       25.974        0.040      341.685       16.570      863.631
08/31/2013  05:38:00     -108.454      -14.952       -6.145       26.148       25.994       17.397      683.711      675.671      302.666        0.684        0.083      109.479       10.710        0.010      341.668       16.541      863.625
08/31/2013  05:39:00      -71.045       -0.893       -2.310       37.803       26.064       20.717     1429.044      679.355      429.211        0.380        0.127       71.051       23.159        0.106      341.602       16.428      863.617
08/31/2013  05:40:00      -73.620      -36.351        3.392       24.920       25.071       15.760      621.030      628.546      248.375        0.413        0.075       82.105       11.857        0.021      341.574       16.379      863.612
08/31/2013  05:41:00     -107.562      -38.300        3.168       46.698       28.740       17.984     2180.734      825.968      323.442        0.819        0.167      114.177       14.553        0.016      341.652       16.512      863.606
08/31/2013  05:42:00     -132.948      -28.597       -3.703       47.136       28.377       16.880     2221.773      805.275      284.942        1.091        0.166      135.989       19.241        0.020      341.612       16.446      863.603
08/31/2013  05:43:00     -126.528      -58.602       -6.350       38.867       37.113       22.305     1510.611     1377.397      497.523        1.143        0.169      139.440       19.419        0.019      341.649       16.508      863.599
08/31/2013  05:44:00     -125.473      -67.257        0.834       35.032       46.548       19.558     1227.245     2166.758      382.515        1.202        0.189      142.362       15.049        0.011      341.664       16.534      863.597
08/31/2013  05:45:00     -104.661      -30.157       -2.652       44.546       31.730       22.743     1984.338     1006.772      517.230        0.769        0.175      108.919       17.887        0.027      341.622       16.461      863.588
08/31/2013  05:46:00     -127.931      -34.738       -2.637       36.514       42.715       24.024     1333.264     1824.541      577.162        1.066        0.187      132.563       21.706        0.027      341.618       16.457      863.594
08/31/2013  05:47:00     -130.128      -56.439       -6.057       28.158       32.795       18.054      792.847     1075.489      325.960        1.117        0.110      141.840       15.541        0.012      341.670       16.543      863.608
08/31/2013  05:48:00      -82.994      -43.324       -2.212       37.770       24.569       18.950     1426.563      603.638      359.103        0.558        0.119       93.621       20.730        0.049      341.692       16.582      863.620
08/31/2013  05:49:00      -55.385      -43.181       -2.821       36.515       23.168       17.982     1333.376      536.769      323.369        0.357        0.110       70.229       16.817        0.057      341.706       16.605      863.629
08/31/2013  05:50:00      -70.626      -55.336        5.793       49.615       33.361       24.827     2461.660     1112.982      616.368        0.614        0.210       89.722       21.878        0.059      341.644       16.499      863.654
08/31/2013  05:51:00      -88.017      -67.832       -0.704       59.244       47.760       22.973     3509.910     2280.975      527.736        0.933        0.316      111.122       29.039        0.068      341.659       16.525      863.676
08/31/2013  05:52:00      -64.756      -24.081        0.424       30.736       19.106       12.087      944.681      365.033      146.095        0.311        0.073       69.089       12.745        0.034      341.696       16.590      863.675
08/31/2013  05:53:00      -98.842      -45.349       -6.456       13.498       20.989        9.396      182.189      440.554       88.285        0.629        0.036      108.749        3.596        0.001      341.713       16.617      863.672
08/31/2013  05:54:00      -85.923      -30.470       -6.878       14.168       23.322       13.910      200.731      543.903      193.489        0.465        0.047       91.166        5.940        0.004      341.686       16.572      863.674
08/31/2013  05:55:00      -77.732      -25.716       -3.437       10.977       16.927       11.288      120.484      286.517      127.416        0.362        0.027       81.875        7.910        0.009      341.661       16.528      863.679
08/31/2013  05:56:00      -80.087      -36.330        4.244       36.746       17.172       16.740     1350.242      294.884      280.238        0.484        0.096       87.942       18.945        0.046      341.597       16.420      863.691
08/31/2013  05:57:00      -48.270      -48.079       -1.753       48.562       22.643       15.871     2358.221      512.699      251.874        0.388        0.156       68.129       10.471        0.024      341.554       16.346      863.701
08/31/2013  05:58:00      -55.789      -40.312       -3.001       27.957       24.123       15.418      781.606      581.905      237.728        0.317        0.080       68.829       12.507        0.033      341.585       16.399      863.709
08/31/2013  05:59:00      -64.316      -30.097       -0.080       23.702       17.966       14.025      561.789      322.782      196.699        0.306        0.054       71.010        8.834        0.015      341.528       16.302      863.711
08/31/2013  06:00:00      -56.310      -18.622       -4.389       25.883       18.461       11.500      669.953      340.810      132.255        0.234        0.057       59.310        4.949        0.007      341.532       16.309      863.735
08/31/2013  06:01:00      -90.581       -5.934       -9.619       15.168       13.413       13.235      230.081      179.920      175.163        0.446        0.029       90.775       10.385        0.013      341.517       16.284      863.741
08/31/2013  06:02:00      -80.505      -17.825       -3.329       27.956       16.550       12.045      781.528      273.909      145.087        0.400        0.060       82.454       11.211        0.018      341.470       16.207      863.744
08/31/2013  06:03:00      -68.489      -37.602       -1.271       33.007       14.365       11.475     1089.474      206.360      131.687        0.377        0.071       78.133       14.189        0.033      341.541       16.324      863.760
08/31/2013  06:04:00       -5.379      -23.556       17.388       33.994       23.117       18.915     1155.625      534.391      357.777        0.147        0.102       24.162       15.452        0.409      341.577       16.388      863.799
08/31/2013  06:05:00      -20.324      -33.134        3.339       29.883       25.391       17.630      892.992      644.717      310.803        0.168        0.092       38.870       12.982        0.112      341.540       16.323      863.826
08/31/2013  06:06:00     -112.018      -73.228       -7.467       22.790       21.074       14.329      519.365      444.118      205.316        0.957        0.058      133.829        7.711        0.003      341.606       16.435      863.835
08/31/2013  06:07:00     -115.141      -63.936       -3.308       27.461       19.402       15.518      754.116      376.444      240.798        0.936        0.069      131.702        6.397        0.002      341.635       16.484      863.833
08/31/2013  06:08:00      -85.540      -56.845        0.493       37.908       28.800       17.614     1437.008      829.426      310.261        0.656        0.129      102.706       19.994        0.038      341.595       16.416      863.835
08/31/2013  06:09:00      -22.679      -31.950       10.484       31.806       25.900       19.630     1011.610      670.798      385.319        0.186        0.103       39.181       16.694        0.182      341.501       16.258      863.845
08/31/2013  06:10:00      -68.878      -39.441       -4.564       18.470       18.781       12.956      341.124      352.732      167.854        0.359        0.043       79.371        9.592        0.015      341.564       16.363      863.836
08/31/2013  06:11:00      -94.668      -48.332      -13.829       20.712       20.704       11.875      428.972      428.642      141.022        0.624        0.050      106.292       11.516        0.012      341.613       16.447      863.828
08/31/2013  06:12:00      -98.214      -78.156       -6.203       33.348       29.755       23.353     1112.103      885.367      545.359        0.917        0.127      125.516       19.675        0.025      341.550       16.341      863.831
08/31/2013  06:13:00      -53.244      -29.125        1.068       34.312       20.579       15.921     1177.337      423.497      253.483        0.277        0.093       60.689       15.139        0.062      341.547       16.335      863.829
08/31/2013  06:14:00      -58.647      -32.311       -5.342       28.389       30.372       18.255      805.935      922.442      333.252        0.329        0.103       66.958       14.868        0.049      341.556       16.348      863.826
08/31/2013  06:15:00      -86.494      -56.447       -6.039       35.927       23.930       18.801     1290.739      572.662      353.473        0.646        0.111      103.284       18.727        0.033      341.529       16.304      863.821
08/31/2013  06:16:00      -99.152      -43.869       -0.214       17.352       17.459       13.651      301.083      304.827      186.339        0.627        0.040      108.423        8.206        0.006      341.462       16.190      863.817
08/31/2013  06:17:00     -113.101      -65.143       -4.605       29.655       21.885       14.719      879.435      478.971      216.650        0.932        0.079      130.520        8.943        0.005      341.394       16.076      863.814
08/31/2013  06:18:00      -94.981      -63.010        1.642       49.380       29.780       21.122     2438.388      886.853      446.128        0.838        0.189      113.981       20.243        0.032      341.313       15.940      863.821
08/31/2013  06:19:00     -117.364      -54.322       -1.246       30.415       23.163       18.511      925.087      536.538      342.647        0.927        0.090      129.326       17.686        0.019      341.358       16.016      863.831
08/31/2013  06:20:00      -49.622      -45.178        7.015       40.306       33.311       21.833     1624.538     1109.604      476.659        0.388        0.161       67.107       19.996        0.089      341.355       16.010      863.855
08/31/2013  06:21:00      -77.877      -69.448       -0.208       40.983       36.314       23.219     1679.639     1318.672      539.144        0.721        0.177      104.345       25.151        0.058      341.337       15.980      863.876
08/31/2013  06:22:00     -117.455      -37.478       -3.592       25.617       24.922       17.407      656.212      621.126      303.003        0.840        0.079      123.290       13.399        0.012      341.337       15.980      863.873
08/31/2013  06:23:00     -106.823      -20.618        3.411       44.069       28.828       21.779     1942.067      831.026      474.307        0.755        0.162      108.794       21.079        0.038      341.172       15.701      863.862
08/31/2013  06:24:00     -188.097      -19.487       -5.791       60.711       42.365       24.904     3685.806     1794.768      620.215        2.095        0.305      189.103       25.053        0.018      341.008       15.420      863.851
08/31/2013  06:25:00     -117.958      -44.535       11.973       67.407       42.877       30.382     4543.660     1838.401      923.048        1.167        0.365      126.085       31.307        0.062      341.213       15.769      863.855
08/31/2013  06:26:00      -91.082       15.739       -2.585       33.120       29.840       17.586     1096.926      890.398      309.252        0.542        0.115       92.432       12.755        0.019      341.252       15.837      863.858
08/31/2013  06:27:00      -70.582        9.574        0.512       42.018       21.766       14.315     1765.489      473.762      204.930        0.376        0.122       71.229       20.246        0.081      341.303       15.922      863.858
08/31/2013  06:28:00      -83.886      -21.182      -12.177       26.437       23.596       12.870      698.911      556.794      165.649        0.453        0.071       86.519       14.352        0.028      341.457       16.183      863.864
08/31/2013  06:29:00      -63.522      -26.346       -7.666       32.430       28.759       17.959     1051.703      827.082      322.535        0.349        0.110       68.769       14.442        0.044      341.363       16.023      863.879
08/31/2013  06:30:00      -76.796       -6.985      -14.294       27.689       39.942       20.309      766.707     1595.369      412.444        0.446        0.139       77.113       17.112        0.049      341.380       16.054      863.876
08/31/2013  06:31:00      -95.769       18.678      -16.236       24.818       27.887       18.270      615.952      777.690      333.795        0.576        0.086       97.573       11.959        0.015      341.300       15.918      863.876
08/31/2013  06:32:00      -89.080      -13.855      -12.268       26.170       26.481       15.598      684.876      701.257      243.288        0.495        0.081       90.151       14.729        0.027      341.332       15.970      863.886
08/31/2013  06:33:00      -80.635      -39.851        0.008       29.079       29.138       16.578      845.560      849.026      274.823        0.503        0.098       89.945       10.474        0.014      341.201       15.749      863.909
08/31/2013  06:34:00      -20.978      -26.039      -12.358       23.746       17.049       10.014      563.849      290.671      100.290        0.111        0.048       33.438       11.456        0.117      341.176       15.707      863.918
08/31/2013  06:35:00      -15.008      -39.962        9.338       44.265       28.440       26.188     1959.430      808.828      685.825        0.268        0.173       42.687       26.798        0.394      341.205       15.756      863.929
08/31/2013  06:36:00      -81.306      -68.741       -4.692       25.107       23.480       13.398      630.367      551.320      179.493        0.636        0.068      106.471       10.248        0.009      341.227       15.794      863.932
08/31/2013  06:37:00     -103.583      -29.811      -10.448       27.545       24.513       14.857      758.732      600.903      220.722        0.665        0.079      107.788       13.986        0.017      341.279       15.883      863.936
08/31/2013  06:38:00      -78.510      -14.743       -9.515       16.942       17.443       10.576      287.037      304.250      111.859        0.359        0.035       79.883        7.737        0.009      341.249       15.829      863.942
08/31/2013  06:39:00     -126.533      -21.778      -12.397       19.967       12.878       10.496      398.675      165.851      110.159        0.866        0.034      128.393        6.211        0.002      341.275       15.875      863.939
08/31/2013  06:40:00     -122.754      -54.097      -11.178       11.866       18.148       10.944      140.796      329.360      119.778        0.935        0.029      134.146        7.755        0.003      341.277       15.878      863.932
08/31/2013  06:41:00     -133.104      -40.153      -11.330       20.019       20.460       12.306      400.767      418.623      151.445        1.021        0.049      139.028        9.700        0.005      341.279       15.880      863.914
08/31/2013  06:42:00      -54.635       -1.246        1.859       38.946       22.399       13.890     1516.811      501.726      192.930        0.260        0.111       54.649       13.254        0.059      341.229       15.797      863.904
08/31/2013  06:43:00      -77.716      -36.302       -0.272       19.852       17.273        9.589      394.099      298.339       91.956        0.407        0.039       85.777        4.389        0.003      341.262       15.852      863.888
08/31/2013  06:44:00      -62.404      -42.712       -1.441       29.908       21.739       16.469      894.485      472.591      271.219        0.368        0.082       75.621       17.662        0.055      341.298       15.914      863.885
08/31/2013  06:45:00      -45.736      -33.383       -1.256       24.788       20.836       14.479      614.467      434.145      209.638        0.223        0.063       56.623        8.874        0.025      341.285       15.891      863.894
08/31/2013  06:46:00      -48.260      -38.722        5.384       30.545       22.951       14.488      932.982      526.766      209.916        0.276        0.083       61.874       11.337        0.034      341.266       15.860      863.905
08/31/2013  06:47:00      -67.697      -34.202       -0.719       33.630       21.107       16.496     1130.947      445.516      272.129        0.380        0.092       75.846       16.363        0.047      341.246       15.825      863.915
08/31/2013  06:48:00      -63.649      -32.087       -4.956       20.216       26.296       10.997      408.668      691.470      120.927        0.316        0.061       71.279        9.954        0.020      341.329       15.967      863.914
08/31/2013  06:49:00      -35.644      -27.954       -3.524       20.299       13.112        7.735      412.054      171.916       59.833        0.135        0.032       45.298        5.240        0.013      341.350       15.999      863.905
08/31/2013  06:50:00       -1.910      -17.517       -0.712       15.997       16.396        9.487      255.895      268.844       90.005        0.046        0.031       17.621        8.065        0.210      341.422       16.123      863.897
08/31/2013  06:51:00      -25.797      -32.718        8.806       36.585       24.552       23.731     1338.437      602.800      563.145        0.216        0.125       41.665       21.242        0.260      341.448       16.167      863.898
08/31/2013  06:52:00     -106.548      -87.377        8.679       79.733       54.003       36.713     6357.325     2916.368     1347.833        1.484        0.531      137.794       36.493        0.070      341.248       15.829      863.920
08/31/2013  06:53:00     -135.184      -88.903       -9.697       62.504       56.867       30.391     3906.765     3233.864      923.612        1.717        0.403      161.798       33.463        0.043      341.255       15.840      863.922
08/31/2013  06:54:00     -111.963      -44.119       -2.881       28.345       30.187       16.282      803.446      911.257      265.110        0.823        0.099      120.342       13.179        0.012      341.289       15.900      863.918
08/31/2013  06:55:00     -119.783      -33.372      -12.290       18.923       18.431        9.547      358.079      339.711       91.150        0.820        0.039      124.345        7.346        0.003      341.254       15.840      863.920
08/31/2013  06:56:00      -97.217      -48.435       -2.668       33.247       28.622       19.715     1105.348      819.244      388.700        0.706        0.116      108.615       12.072        0.012      341.260       15.848      863.932
08/31/2013  06:57:00      -95.223      -22.560       -6.101       18.828       21.405       15.473      354.483      458.179      239.422        0.533        0.053       97.859       10.233        0.011      341.279       15.880      863.940
08/31/2013  06:58:00      -80.108      -31.433       -6.452       24.007       14.243       10.750      576.358      202.874      115.571        0.417        0.045       86.055       11.536        0.018      341.336       15.979      863.943
08/31/2013  06:59:00     -105.924      -37.690       -8.273       20.980       19.862       13.047      440.146      394.501      170.223        0.686        0.050      112.430        7.457        0.004      341.319       15.951      863.955
08/31/2013  07:00:00      -57.273      -38.209        1.391       36.245       25.146       24.486     1313.670      632.326      599.580        0.364        0.127       68.849       20.334        0.087      341.290       15.900      863.983
08/31/2013  07:01:00      -50.628      -44.616        9.718       48.401       44.673       22.803     2342.666     1995.679      519.993        0.475        0.243       67.482       27.757        0.169      341.291       15.902      864.009
08/31/2013  07:02:00     -107.193      -67.326       -3.297       22.187       21.625       16.173      492.243      467.635      261.580        0.863        0.061      126.582        6.454        0.003      341.307       15.927      864.041
08/31/2013  07:03:00     -100.011      -59.211       -0.375       35.772       21.845       22.724     1279.650      477.190      516.380        0.789        0.114      116.225       19.423        0.028      341.348       15.997      864.050
08/31/2013  07:04:00      -97.635      -59.398       -6.356       25.670       29.921       16.489      658.937      895.243      271.873        0.746        0.091      114.284       15.468        0.018      341.355       16.010      864.062
08/31/2013  07:05:00     -130.958      -41.838       -2.779       34.570       26.289       16.596     1195.105      691.092      275.441        1.053        0.108      137.479       16.914        0.015      341.365       16.027      864.054
08/31/2013  07:06:00     -118.975      -27.437       -9.617       36.075       23.550       18.478     1301.425      554.620      341.440        0.860        0.110      122.098       19.136        0.025      341.393       16.073      864.047
08/31/2013  07:07:00     -100.263      -47.400       -0.924       20.094       19.289       13.224      403.772      372.061      174.882        0.663        0.048      110.902       10.718        0.009      341.424       16.126      864.041
08/31/2013  07:08:00      -98.488      -39.991       -0.590       35.773       22.567       14.230     1279.705      509.285      202.495        0.665        0.100      106.297       18.440        0.030      341.409       16.101      864.059
08/31/2013  07:09:00      -89.597      -31.763        4.189       31.774       26.484       18.393     1009.569      701.415      338.289        0.555        0.102       95.061       19.414        0.042      341.412       16.105      864.063
08/31/2013  07:10:00      -91.030      -15.353       -6.508       19.506       18.341       11.919      380.489      336.376      142.072        0.471        0.043       92.315        8.805        0.009      341.456       16.178      864.058
08/31/2013  07:11:00      -80.194      -17.502       -7.440       16.113       16.259       13.651      259.618      264.370      186.357        0.375        0.036       82.082        9.897        0.015      341.457       16.182      864.060
08/31/2013  07:12:00      -33.565       -6.578        0.850       16.855       14.410        9.370      284.084      207.641       87.803        0.087        0.029       34.204        9.511        0.077      341.522       16.292      864.081
08/31/2013  07:13:00      -23.667      -16.900        5.369       16.841       16.272        8.166      283.614      264.793       66.684        0.074        0.031       29.081        7.989        0.075      341.615       16.451      864.097
08/31/2013  07:14:00      -17.842      -31.845        9.555       33.771       19.470       21.464     1140.476      379.067      460.724        0.170        0.099       36.502       22.287        0.373      341.602       16.428      864.129
08/31/2013  07:15:00      -83.568      -53.514      -13.538       36.357       28.248       23.640     1321.857      797.939      558.846        0.635        0.134       99.234       21.449        0.047      341.604       16.432      864.139
08/31/2013  07:16:00      -43.017      -20.014       -8.712       31.259       18.848       12.251      977.126      355.238      150.097        0.190        0.074       47.445        7.201        0.023      341.591       16.410      864.121
08/31/2013  07:17:00      -58.867      -56.162       -1.360       34.452       27.223       13.126     1186.929      741.109      172.286        0.436        0.105       81.361       11.754        0.021      341.592       16.410      864.119
08/31/2013  07:18:00      -77.334      -86.759       -2.632       43.113       41.423       22.625     1858.695     1715.833      511.885        0.880        0.204      116.222       21.983        0.036      341.507       16.266      864.139
08/31/2013  07:19:00     -106.167      -74.675        3.549       56.285       35.566       25.453     3167.955     1264.959      647.856        1.097        0.254      129.798       27.464        0.045      341.591       16.409      864.155
08/31/2013  07:20:00      -90.800      -59.381       -6.850       32.947       36.365       15.526     1085.480     1322.400      241.071        0.723        0.132      108.493        9.738        0.008      341.599       16.421      864.160
08/31/2013  07:21:00      -87.872      -35.525       -2.985       27.709       22.020       18.219      767.813      484.888      331.939        0.529        0.079       94.782       17.695        0.035      341.600       16.424      864.171
08/31/2013  07:22:00      -67.892      -24.623        3.682       21.059       25.901       13.175      443.476      670.844      173.577        0.326        0.064       72.219        5.727        0.006      341.602       16.427      864.175
08/31/2013  07:23:00      -45.833       19.941        3.550       16.900       14.378       10.215      285.625      206.731      104.344        0.155        0.030       49.983        6.691        0.018      341.543       16.327      864.148
08/31/2013  07:24:00      -82.569       19.035       -6.376       31.135       22.242       13.815      969.391      494.695      190.866        0.444        0.083       84.735       10.574        0.016      341.555       16.348      864.126
08/31/2013  07:25:00      -62.434       11.073       -0.956       28.855       18.236       12.965      832.637      332.565      168.095        0.268        0.067       63.408       12.901        0.041      341.689       16.578      864.127
08/31/2013  07:26:00      -23.743      -26.672      -10.941       34.091       18.874       14.214     1162.169      356.233      202.035        0.156        0.086       35.709        9.651        0.073      341.763       16.701      864.135
08/31/2013  07:27:00        8.489      -19.791       -8.403       30.664       29.772       17.492      940.309      886.350      305.955        0.133        0.107       21.535        7.752        0.130      341.479       16.220      864.147
08/31/2013  07:28:00      -22.464        6.501        2.722       19.689       10.423       15.156      387.650      108.639      229.691        0.064        0.036       23.386       13.766        0.346      341.846       16.841      864.143
08/31/2013  07:29:00      -18.828        3.178        6.245       25.460       13.731       12.207      648.194      188.538      149.007        0.069        0.049       19.094       10.863        0.324      341.916       16.960      864.130
08/31/2013  07:30:00        4.995       -2.393       10.332       10.670       11.113        8.269      113.856      123.504       68.384        0.022        0.015        5.538        5.459        0.972      341.974       17.060      864.130
08/31/2013  07:31:00       10.986        7.504       11.153       10.884       10.044       10.013      118.468      100.879      100.255        0.031        0.016       13.304        5.643        0.180      341.944       17.009      864.108
08/31/2013  07:32:00        2.739       -0.398        9.018        8.221        7.638       10.850       67.578       58.341      117.712        0.017        0.012        2.768        5.926        4.584      342.148       17.356      864.107
08/31/2013  07:33:00      -10.537      -26.919       -9.805       11.457       19.987        9.706      131.253      399.476       94.204        0.078        0.031       28.908        7.216        0.062      341.952       17.022      864.116
08/31/2013  07:34:00       -3.579      -16.982       12.532       20.988       20.407       17.355      440.479      416.437      301.190        0.081        0.058       17.355       13.415        0.598      342.044       17.179      864.136
08/31/2013  07:35:00      -13.752        3.939       17.286       16.261       10.034       12.120      264.422      100.684      146.885        0.051        0.026       14.305        9.067        0.402      342.192       17.429      864.139
08/31/2013  07:36:00      -27.924        4.871        4.781       14.985        9.834        9.333      224.541       96.703       87.105        0.062        0.020       28.345        2.569        0.008      342.051       17.191      864.144
08/31/2013  07:37:00       17.983      -22.083        3.758       29.928       28.772       21.264      895.696      827.808      452.154        0.150        0.109       28.479       18.293        0.413      341.786       16.741      864.145
08/31/2013  07:38:00       57.771      -27.213       -7.463       23.039       27.900       22.148      530.775      778.385      490.548        0.297        0.090       63.860       14.360        0.051      341.445       16.162      864.132
08/31/2013  07:39:00       17.057        1.469       13.444       20.143        8.185        9.244      405.749       66.992       85.452        0.052        0.028       17.120        6.244        0.133      341.988       17.084      864.117
08/31/2013  07:40:00        7.131       16.925        4.194        9.210       18.380        7.351       84.830      337.826       54.035        0.042        0.024       18.365        5.627        0.094      342.100       17.274      864.110
08/31/2013  07:41:00       21.064       37.652       -0.339       12.726       11.128       10.171      161.964      123.833      103.453        0.113        0.019       43.143        8.242        0.036      342.160       17.374      864.105
08/31/2013  07:42:00       22.464       49.423       -2.305       24.593       26.876       14.483      604.818      722.310      209.769        0.224        0.077       54.289       15.562        0.082      342.230       17.493      864.099
08/31/2013  07:43:00       66.243       46.573        4.814       24.592       16.224       20.467      604.767      263.226      418.899        0.393        0.064       80.976       16.744        0.043      342.132       17.328      864.081
08/31/2013  07:44:00       59.587       40.010        9.217       28.226       18.450       16.028      796.723      340.385      256.901        0.331        0.070       71.773        8.646        0.015      342.164       17.381      864.087
08/31/2013  07:45:00       56.524       12.350        7.961       20.225       18.855       28.692      409.049      355.496      823.248        0.250        0.079       57.858       18.020        0.097      342.087       17.252      864.100
08/31/2013  07:46:00       37.552        8.054        8.682       20.856       15.174       21.716      434.986      230.241      471.589        0.134        0.057       38.406        6.802        0.031      342.075       17.230      864.119
08/31/2013  07:47:00       22.845      -14.780       -7.370       28.130       18.972       15.409      791.316      359.934      237.423        0.109        0.069       27.209        8.382        0.095      341.828       16.812      864.147
08/31/2013  07:48:00       29.828      -20.162        2.334       22.541       21.639       20.733      508.099      468.253      429.838        0.135        0.070       36.003       13.974        0.151      341.750       16.680      864.168
08/31/2013  07:49:00       23.813      -21.421       12.306       23.161       25.196       19.845      536.422      634.831      393.812        0.137        0.078       32.030       13.154        0.169      341.974       17.060      864.203
08/31/2013  07:50:00       37.002      -28.360      -15.555       29.147       30.264       23.305      849.542      915.907      543.133        0.236        0.115       46.620       17.106        0.135      341.770       16.715      864.215
08/31/2013  07:51:00       -4.103        3.063       -6.757       35.297       18.623       19.594     1245.911      346.803      383.919        0.102        0.099        5.120       11.422        4.976      341.921       16.969      864.229
08/31/2013  07:52:00       -2.592        2.105        5.481       19.291       10.569       16.113      372.158      111.711      259.631        0.039        0.037        3.339        7.053        4.463      342.236       17.504      864.225
08/31/2013  07:53:00       20.112       24.904       -4.187       29.852       46.702       24.506      891.163     2181.083      600.555        0.236        0.184       32.011       20.479        0.409      341.999       17.102      864.222
08/31/2013  07:54:00       32.209       36.887        0.071       13.642       12.496       20.473      186.103      156.159      419.130        0.158        0.038       48.971       11.841        0.058      342.088       17.253      864.205
08/31/2013  07:55:00       44.096       31.570        5.252       28.120       19.308       16.536      790.719      372.801      273.441        0.220        0.072       54.232       11.392        0.044      342.330       17.663      864.187
08/31/2013  07:56:00       12.922      -41.425        3.617       18.532       38.715       21.372      343.429     1498.841      456.748        0.210        0.115       43.394       18.665        0.185      342.269       17.559      864.180
08/31/2013  07:57:00       20.395      -48.578       -0.207       21.868       31.141       19.100      478.211      969.732      364.817        0.229        0.091       52.685        6.953        0.017      341.911       16.952      864.191
08/31/2013  07:58:00       32.575       -2.422       14.707       27.500       20.790       26.170      756.226      432.239      684.847        0.158        0.094       32.665        6.581        0.041      342.101       17.276      864.185
08/31/2013  07:59:00       32.645       -6.728        8.822       37.660       22.312       29.540     1418.270      497.805      872.618        0.199        0.139       33.331       22.490        0.455      342.183       17.414      864.166
08/31/2013  08:00:00       40.280       24.510       13.615       23.703       16.968       18.251      561.851      287.917      333.105        0.180        0.059       47.150       14.325        0.092      342.197       17.439      864.148
08/31/2013  08:01:00       74.553       39.518        5.265       29.858       21.346       21.905      891.520      455.642      479.849        0.449        0.091       84.379        8.365        0.010      342.354       17.705      864.149
08/31/2013  08:02:00       27.082       20.257       21.810       36.641       26.045       26.048     1342.598      678.361      678.515        0.216        0.135       33.820       13.819        0.167      342.492       17.940      864.166
08/31/2013  08:03:00       13.514      -33.451       12.204       21.023       24.544       18.428      441.951      602.413      339.576        0.142        0.069       36.078       14.016        0.151      342.120       17.306      864.193
08/31/2013  08:04:00       14.421      -25.192       -5.127       21.004       32.983       15.144      441.184     1087.850      229.350        0.131        0.088       29.028        7.089        0.060      342.067       17.218      864.209
08/31/2013  08:05:00       18.528       17.994       -4.058       14.266       18.288       16.632      203.517      334.462      276.613        0.075        0.041       25.827        7.791        0.091      342.256       17.539      864.198
08/31/2013  08:06:00       50.359        5.618      -11.542       17.227       18.253       14.036      296.776      333.172      197.007        0.176        0.041       50.672        5.598        0.012      342.219       17.474      864.185
08/31/2013  08:07:00       16.266        8.125        5.246       17.543       15.211       15.224      307.768      231.386      231.759        0.056        0.039       18.182       11.041        0.369      342.633       18.180      864.184
08/31/2013  08:08:00       16.041      -34.815       11.934       14.182       36.394       15.289      201.135     1324.544      233.739        0.169        0.088       38.333        7.953        0.043      342.420       17.817      864.194
08/31/2013  08:09:00       15.317      -38.493       -5.364       36.021       34.245       21.976     1297.528     1172.724      482.962        0.235        0.148       41.428       14.409        0.121      342.120       17.306      864.215
08/31/2013  08:10:00      -25.187      -15.448       12.604       13.863       22.439       18.759      192.171      503.503      351.890        0.104        0.052       29.547        9.002        0.093      342.328       17.661      864.221
08/31/2013  08:11:00       22.091      -32.165       -4.125       28.176       22.948       24.271      793.911      526.621      589.080        0.172        0.095       39.020       11.117        0.081      342.322       17.650      864.221
08/31/2013  08:12:00        8.608      -16.037        8.760       24.639       18.507       20.614      607.056      342.511      424.952        0.089        0.069       18.201       12.955        0.507      342.396       17.777      864.219
08/31/2013  08:13:00       52.260      -16.412        9.922       36.200       29.320       25.707     1310.408      859.659      660.843        0.296        0.142       54.777       19.642        0.129      342.307       17.625      864.203
08/31/2013  08:14:00       49.276      -27.936        1.584       26.874       27.330       22.404      722.206      746.908      501.949        0.259        0.099       56.644        7.630        0.018      342.164       17.384      864.181
08/31/2013  08:15:00       26.970       -0.759       13.304       21.567       15.923       20.323      465.133      253.533      413.014        0.102        0.057       26.981       14.824        0.302      342.526       17.999      864.171
08/31/2013  08:16:00       -3.747       13.734      -15.861       16.103       23.279       13.648      259.311      541.928      186.281        0.072        0.049       14.236        6.417        0.203      342.357       17.710      864.163
08/31/2013  08:17:00        1.536       19.277       -4.379       16.033       17.207       19.038      257.044      296.096      362.440        0.065        0.046       19.338       11.544        0.356      342.550       18.038      864.167
08/31/2013  08:18:00       12.937       -8.043       -2.527       26.534       15.800       29.918      704.061      249.628      895.069        0.104        0.092       15.233       19.805        1.690      342.719       18.324      864.165
08/31/2013  08:19:00       15.117      -12.734       -1.441       23.156       19.564       18.261      536.201      382.762      333.446        0.082        0.063       19.766       15.128        0.586      342.573       18.078      864.151
08/31/2013  08:20:00       20.825       -5.661       -6.098       15.905       18.857       12.576      252.982      355.576      158.146        0.063        0.038       21.580        5.163        0.057      342.575       18.082      864.148
08/31/2013  08:21:00       36.012        2.846       11.370       16.979       18.270       25.841      288.281      333.794      667.775        0.136        0.064       36.124       11.140        0.095      342.604       18.131      864.155
08/31/2013  08:22:00       31.948        0.666       19.149       35.954       17.715       20.046     1292.712      313.824      401.825        0.170        0.100       31.955       16.502        0.267      342.455       17.877      864.173
08/31/2013  08:23:00      -10.776      -11.339        0.176       15.777       18.540       22.519      248.906      343.726      507.106        0.067        0.055       15.643       15.621        0.997      342.549       18.036      864.184
08/31/2013  08:24:00       -0.558        0.723      -13.285       24.326       27.540       18.934      591.762      758.472      358.500        0.094        0.085        0.913       13.706      225.185      342.430       17.835      864.197
08/31/2013  08:25:00       -7.793       13.422       -9.781       18.098       22.154       15.562      327.531      490.812      242.167        0.070        0.053       15.521       13.315        0.736      342.581       18.092      864.203
08/31/2013  08:26:00       24.093       25.993       -0.905       16.742       29.910       21.191      280.296      894.603      449.063        0.144        0.081       35.442       13.013        0.135      342.719       18.326      864.216
08/31/2013  08:27:00       33.327       -0.061        5.198       17.032       17.281       21.453      290.081      298.629      460.251        0.109        0.052       33.327       11.478        0.119      342.646       18.203      864.223
08/31/2013  08:28:00       -5.237       -6.767        4.834       16.119       16.011       18.107      259.831      256.367      327.871        0.047        0.042        8.557        7.336        0.735      342.885       18.609      864.226
08/31/2013  08:29:00       -7.273      -21.179       17.658       19.270       20.227       13.731      371.343      409.144      188.541        0.089        0.048       22.393        3.175        0.020      343.013       18.825      864.236
08/31/2013  08:30:00        9.906      -26.836       26.464       20.502       28.734       20.840      420.343      825.668      434.314        0.160        0.084       28.606       15.034        0.276      343.053       18.894      864.246
08/31/2013  08:31:00       41.152      -10.818       -1.355       28.810       22.453       16.852      830.027      504.157      283.994        0.171        0.081       42.551       13.686        0.103      342.565       18.064      864.243
08/31/2013  08:32:00       20.788        2.240       -9.722       17.033       21.297       17.473      290.122      453.583      305.318        0.079        0.052       20.908       12.149        0.338      342.679       18.257      864.248
08/31/2013  08:33:00       11.125        0.976       12.744       22.964       15.057       18.791      527.328      226.723      353.108        0.070        0.055       11.168       15.993        2.051      343.202       19.150      864.261
08/31/2013  08:34:00       30.395       -3.056       -7.305       17.660       21.629       15.237      311.882      467.820      232.165        0.100        0.051       30.548        9.994        0.107      342.648       18.204      864.258
08/31/2013  08:35:00       15.867        7.691       29.596       18.677       17.429       18.117      348.842      303.769      328.243        0.108        0.049       17.633       11.655        0.437      343.421       19.520      864.247
08/31/2013  08:36:00       13.969      -12.853        5.253       15.443       19.435       24.053      238.494      377.729      578.543        0.079        0.060       18.982       14.355        0.572      343.037       18.867      864.236
08/31/2013  08:37:00       34.275       17.509       10.192       15.291       17.101       23.260      233.802      292.443      541.048        0.133        0.053       38.488        8.567        0.050      343.016       18.832      864.220
08/31/2013  08:38:00       36.008       29.540       15.710       19.207       19.879       19.675      368.890      395.191      387.087        0.178        0.058       46.575        9.272        0.040      342.970       18.752      864.211
08/31/2013  08:39:00       18.236       16.627       -0.623       14.475       14.008       16.020      209.539      196.231      256.656        0.064        0.033       24.678        9.112        0.136      342.976       18.762      864.195
08/31/2013  08:40:00       43.630       33.108       13.706       35.358       26.861       19.356     1250.216      721.531      374.664        0.277        0.117       54.769       11.044        0.041      343.106       18.984      864.168
08/31/2013  08:41:00       32.956       26.237       -0.765       40.024       22.323       23.475     1601.936      498.302      551.067        0.221        0.133       42.125       13.623        0.105      343.538       19.720      864.158
08/31/2013  08:42:00       41.056       20.752       -0.619       22.477       27.312       15.558      505.221      745.924      242.066        0.180        0.075       46.003       14.803        0.104      343.482       19.623      864.151
08/31/2013  08:43:00        8.247       38.620        3.782       19.930       26.086       20.537      397.185      680.494      421.750        0.154        0.075       39.490       15.096        0.146      343.729       20.047      864.158
08/31/2013  08:44:00       19.272       19.446      -19.281       15.581       28.878       13.100      242.780      833.954      171.598        0.118        0.062       27.378        2.947        0.012      343.150       19.059      864.154
08/31/2013  08:45:00       -1.315      -10.030        5.066       17.827       21.728       27.052      317.816      472.102      731.836        0.082        0.076       10.115       19.382        3.671      343.503       19.663      864.143
08/31/2013  08:46:00        7.699       -5.015       21.690       23.227       16.248       18.679      539.517      263.990      348.922        0.085        0.058        9.188       10.900        1.407      343.591       19.811      864.135
08/31/2013  08:47:00       21.770        5.546       19.342       26.212       23.784       16.577      687.083      565.693      274.801        0.120        0.076       22.465        6.958        0.096      343.390       19.469      864.128
08/31/2013  08:48:00       23.888       14.844       23.767       21.477       16.223       19.439      461.251      263.186      377.887        0.123        0.055       28.125       10.031        0.127      343.590       19.809      864.121
08/31/2013  08:49:00       48.338       -1.507        4.897       37.735       20.813       23.249     1423.922      433.181      540.512        0.238        0.120       48.361       15.483        0.103      343.065       18.914      864.117
08/31/2013  08:50:00       24.190        4.658        7.577       26.879       22.626       21.106      722.494      511.927      445.480        0.117        0.084       24.634       14.376        0.341      343.131       19.027      864.127
08/31/2013  08:51:00       24.014      -17.604        1.053       30.545       20.171       22.521      932.981      406.861      507.189        0.137        0.092       29.775       12.735        0.183      343.143       19.047      864.130
08/31/2013  08:52:00       -0.881       -2.965        7.255       15.909       10.947       17.320      253.095      119.831      299.983        0.037        0.034        3.093       10.200       10.879      343.632       19.879      864.139
08/31/2013  08:53:00        2.228       -8.606       -3.252       14.474       20.381       15.879      209.509      415.386      252.136        0.048        0.044        8.890       10.958        1.520      343.306       19.324      864.146
08/31/2013  08:54:00       36.971       -4.842        2.522       19.625       20.696       22.027      385.159      428.338      485.169        0.135        0.065       37.287       10.917        0.086      343.156       19.068      864.147
08/31/2013  08:55:00       21.399      -11.472        6.335       22.561       22.786       19.191      508.990      519.202      368.296        0.101        0.070       24.280       13.791        0.323      343.694       19.987      864.152
08/31/2013  08:56:00       20.421      -12.653        1.484       16.845       14.127       20.739      283.759      199.560      430.101        0.075        0.046       24.023       10.618        0.195      343.407       19.497      864.158
08/31/2013  08:57:00       10.351       -5.278        9.236       24.506       15.290       20.312      600.529      233.794      412.562        0.073        0.062       11.619       16.092        1.918      343.677       19.957      864.162
08/31/2013  08:58:00       22.584      -17.381       11.790       15.331       17.265       15.308      235.037      298.080      234.349        0.086        0.038       28.498        9.866        0.120      343.447       19.564      864.166
08/31/2013  08:59:00       21.093      -17.006        8.915       17.930       11.055       13.787      321.474      122.205      190.084        0.072        0.032       27.095       10.218        0.142      343.457       19.584      864.160
08/31/2013  09:00:00       18.667       -2.434        8.386       16.239       18.937       23.661      263.711      358.627      559.860        0.080        0.059       18.825       13.060        0.481      343.862       20.275      864.166
08/31/2013  09:01:00       20.770      -14.209        7.363       17.583       21.056       16.586      309.174      443.340      275.100        0.086        0.051       25.165        8.480        0.114      343.478       19.618      864.169
08/31/2013  09:02:00       35.910       -5.411       16.876       22.019       18.308       22.057      484.822      335.170      486.532        0.145        0.065       36.315       14.342        0.156      343.560       19.758      864.173
08/31/2013  09:03:00       14.995       -4.216       20.733       22.356       19.990       19.392      499.789      399.608      376.049        0.097        0.064       15.577       13.057        0.703      343.954       20.431      864.174
08/31/2013  09:04:00       -2.755      -41.598        7.685       26.663       43.026       21.714      710.894     1851.257      471.519        0.241        0.152       41.689       16.290        0.153      343.767       20.109      864.160
08/31/2013  09:05:00       -3.632      -51.169       10.097       23.259       28.268       27.641      540.962      799.053      764.050        0.242        0.105       51.298       19.695        0.147      343.743       20.070      864.152
08/31/2013  09:06:00        5.687       13.465       11.131       14.069       35.675       24.405      197.930     1272.704      595.587        0.120        0.103       14.616       19.891        1.852      343.989       20.490      864.139
08/31/2013  09:07:00       12.337        3.179      -17.897       16.157       21.637       17.124      261.062      468.142      293.239        0.075        0.051       12.740        7.406        0.338      343.860       20.269      864.135
08/31/2013  09:08:00       36.056       -3.928        8.411       18.891       17.935       30.938      356.857      321.664      957.175        0.151        0.082       36.269       17.556        0.234      343.664       19.936      864.132
08/31/2013  09:09:00       10.671      -20.932      -18.696       30.962       23.635       14.571      958.618      558.618      212.306        0.132        0.086       23.495       10.684        0.207      343.497       19.651      864.127
08/31/2013  09:10:00       21.853       -5.503       -2.994       29.364       20.669       23.270      862.269      427.223      541.504        0.117        0.092       22.535       17.430        0.598      343.872       20.290      864.120
08/31/2013  09:11:00        0.876      -27.511        8.596       21.742       21.567       25.886      472.697      465.141      670.067        0.122        0.080       27.525       15.818        0.330      343.801       20.169      864.122
08/31/2013  09:12:00       44.231      -14.714       11.440       17.559       23.060       26.571      308.309      531.761      706.034        0.192        0.077       46.614       14.203        0.093      343.645       19.903      864.111
08/31/2013  09:13:00       54.176        1.953       12.881       27.761       20.851       26.621      770.679      434.767      708.666        0.251        0.096       54.211       14.298        0.070      343.433       19.543      864.102
08/31/2013  09:14:00       23.515        0.240       -1.957       21.345       22.878       23.074      455.591      523.397      532.417        0.103        0.076       23.516       10.618        0.204      343.824       20.209      864.099
08/31/2013  09:15:00       22.866        0.271        3.243       27.307       23.130       24.441      745.665      534.984      597.384        0.121        0.094       22.868       16.089        0.495      344.015       20.534      864.103
08/31/2013  09:16:00       43.384      -22.872       -3.317       20.095       26.967       25.438      403.797      727.231      647.116        0.210        0.089       49.044       10.943        0.050      343.981       20.477      864.098
08/31/2013  09:17:00       59.973      -35.967        6.830       27.317       25.816       20.346      746.235      666.491      413.969        0.338        0.091       69.932       13.476        0.037      343.629       19.877      864.096
08/31/2013  09:18:00       17.505      -32.295       23.524       24.076       34.087       23.271      579.660     1161.957      541.539        0.209        0.114       36.734       17.069        0.216      343.770       20.117      864.094
08/31/2013  09:19:00       49.990       11.919       21.170       26.986       43.752       29.203      728.241     1914.242      852.807        0.329        0.175       51.391       16.525        0.103      344.001       20.511      864.092
08/31/2013  09:20:00       34.607       33.720       15.969       31.468       20.421       25.591      990.217      416.998      654.912        0.233        0.103       48.319       16.230        0.113      344.304       21.027      864.093
08/31/2013  09:21:00        8.064       10.244       13.274       29.638       18.429       19.333      878.415      339.612      373.752        0.097        0.080       13.037       16.817        1.664      344.854       21.967      864.096
08/31/2013  09:22:00       -8.551        8.714       29.717       13.171       14.120       18.462      173.479      199.381      340.836        0.087        0.036       12.209       12.542        1.055      345.243       22.635      864.116
08/31/2013  09:23:00      -68.851       22.026       -5.695       13.944       16.177       16.682      194.422      261.695      278.274        0.300        0.037       72.288       11.697        0.026      344.320       21.053      864.132
08/31/2013  09:24:00      -40.267       29.862       -6.447       23.217       23.810       15.166      539.036      566.930      230.007        0.195        0.067       50.132        5.796        0.013      344.485       21.337      864.141
08/31/2013  09:25:00      -33.491       -3.339        0.493       18.385        9.302       16.738      338.021       86.518      280.150        0.092        0.035       33.657       10.489        0.097      344.507       21.376      864.141
08/31/2013  09:26:00      -11.433       34.889       11.664       16.145       36.686       25.609      260.658     1345.839      655.846        0.187        0.113       36.714       25.568        0.485      345.085       22.365      864.148
08/31/2013  09:27:00        3.086        3.632       18.463       15.215       16.271       20.650      231.505      264.735      426.421        0.064        0.046        4.766       11.021        5.348      344.893       22.036      864.151
08/31/2013  09:28:00       52.526       -8.987       12.274       30.602       25.998       29.754      936.497      675.895      885.324        0.274        0.125       53.289       18.574        0.121      344.000       20.509      864.161
08/31/2013  09:29:00       42.742        6.556       29.057       36.397       26.254       31.075     1324.735      689.287      965.633        0.285        0.149       43.242       26.494        0.375      344.210       20.868      864.161
08/31/2013  09:30:00       55.796       -3.945       25.311       41.986       37.322       30.769     1762.861     1392.940      946.714        0.394        0.205       55.936       30.333        0.294      344.009       20.523      864.165
08/31/2013  09:31:00       -2.048       -0.626       18.870       33.933       20.947       19.264     1151.466      438.785      371.090        0.116        0.098        2.141       14.006       42.777      344.485       21.338      864.153
08/31/2013  09:32:00      -16.049       -5.344        4.452       13.752       18.007       12.869      189.113      324.260      165.603        0.049        0.034       16.915        8.706        0.265      344.487       21.341      864.153
08/31/2013  09:33:00       32.855      -10.629       11.224       38.562       22.443       29.364     1486.998      503.709      862.250        0.209        0.143       34.532       10.418        0.091      344.417       21.221      864.157
08/31/2013  09:34:00       31.666       -9.974       12.109       36.920       28.772       31.858     1363.071      827.803     1014.959        0.223        0.160       33.199       21.929        0.436      344.613       21.556      864.151
08/31/2013  09:35:00       15.095        0.755       17.898       31.883       26.384       30.167     1016.510      696.106      910.069        0.159        0.131       15.113       18.948        1.572      344.539       21.431      864.138
08/31/2013  09:36:00       42.896      -21.014       -7.458       33.671       24.363       30.749     1133.759      593.539      945.477        0.250        0.134       47.766        9.384        0.039      344.193       20.838      864.135
08/31/2013  09:37:00       27.949      -19.181      -16.067       25.306       29.855       23.980      640.381      891.339      575.044        0.176        0.105       33.898       18.867        0.310      344.116       20.707      864.135
08/31/2013  09:38:00      -20.879       -8.159        3.886       13.842       19.361       10.897      191.596      374.857      118.746        0.060        0.034       22.416        8.770        0.153      344.989       22.200      864.129
08/31/2013  09:39:00       -8.625       22.154       28.561       15.832       22.246       22.539      250.642      494.879      507.986        0.132        0.063       23.774       15.507        0.425      345.429       22.955      864.115
08/31/2013  09:40:00      -32.367       15.397       28.746       19.346       17.150       23.755      374.257      294.128      564.306        0.167        0.062       35.842       17.051        0.226      345.105       22.398      864.114
08/31/2013  09:41:00       41.006      -16.009       -8.871       35.127       29.951       33.415     1233.934      897.044     1116.537        0.263        0.162       44.020       17.028        0.150      344.630       21.586      864.108
08/31/2013  09:42:00       39.353      -10.690        9.302       44.001       43.118       23.583     1936.068     1859.169      556.143        0.305        0.218       40.779       13.489        0.109      344.607       21.545      864.096
08/31/2013  09:43:00       23.448       -6.223        5.846       21.062       24.812       23.061      443.606      615.641      531.819        0.111        0.080       24.260       16.616        0.469      344.995       22.210      864.087
08/31/2013  09:44:00       28.333        2.491        5.940       23.425       27.874       18.581      548.720      776.960      345.255        0.126        0.084       28.442       15.560        0.299      345.080       22.356      864.068
08/31/2013  09:45:00       30.900       -0.609       20.947       17.626       11.293       13.376      310.667      127.522      178.926        0.101        0.031       30.906        4.856        0.025      345.098       22.387      864.046
08/31/2013  09:46:00        8.919       10.147       -8.313       18.480       16.382       20.590      341.493      268.375      423.951        0.064        0.052       13.509        9.306        0.475      345.151       22.478      864.035
08/31/2013  09:47:00       -5.170       -1.754        2.590       20.205       19.063       10.757      408.261      363.402      115.704        0.046        0.044        5.459        8.693        2.536      345.128       22.439      864.022
08/31/2013  09:48:00       31.689      -11.927       -0.728       17.587       21.580       19.388      309.289      465.693      375.876        0.115        0.058       33.859        8.972        0.070      344.739       21.772      864.018
08/31/2013  09:49:00       21.443      -11.494       25.715       33.352       41.321       34.905     1112.336     1707.461     1218.349        0.264        0.202       24.329       35.262        2.101      345.108       22.403      864.022
08/31/2013  09:50:00        8.714       22.300       35.631       31.699       37.003       27.713     1004.830     1369.197      768.018        0.249        0.157       23.942       28.420        1.409      345.058       22.318      864.012
08/31/2013  09:51:00      -14.782       -8.912      -21.244       36.654       21.103       16.275     1343.508      445.323      264.878        0.140        0.103       17.261       14.532        0.709      345.302       22.735      864.013
08/31/2013  09:52:00      -11.268        3.174       22.954       17.779       44.927       31.905      316.083     2018.454     1017.913        0.201        0.168       11.706       26.429        5.097      345.551       23.162      864.002
08/31/2013  09:53:00       31.035       24.975       26.386       48.174       34.270       37.001     2320.756     1174.422     1369.080        0.357        0.243       39.836       32.454        0.664      345.312       22.752      863.984
08/31/2013  09:54:00       14.598       11.621       33.771       37.736       26.835       23.403     1423.987      720.125      547.678        0.209        0.135       18.659       22.490        1.453      345.696       23.413      863.972
08/31/2013  09:55:00       14.112       42.410       55.223       39.259       28.880       24.955     1541.266      834.074      622.733        0.402        0.150       44.696       15.865        0.126      345.324       22.773      863.961
08/31/2013  09:56:00       53.874       -6.405       23.091       37.995       31.455       29.454     1443.598      989.448      867.562        0.339        0.165       54.253       24.534        0.205      345.095       22.383      863.946
08/31/2013  09:57:00       21.262        0.373       25.168       35.083       24.467       22.195     1230.814      598.651      492.629        0.170        0.116       21.265       17.066        0.644      345.572       23.200      863.940
08/31/2013  09:58:00       -9.937       11.720       31.443       20.819       19.001       16.213      433.446      361.024      262.847        0.114        0.053       15.365        9.558        0.387      346.197       24.272      863.931
08/31/2013  09:59:00      -62.677       10.174      -11.191       17.927       19.455       11.016      321.388      378.486      121.358        0.249        0.041       63.498        9.463        0.022      345.443       22.978      863.923
08/31/2013  10:00:00      -23.359       -7.160        6.631       18.963       15.590       18.539      359.582      243.036      343.678        0.079        0.047       24.431       14.653        0.360      345.935       23.823      863.930
08/31/2013  10:01:00        9.389       14.907       31.690       21.765       19.752       13.380      473.702      390.137      179.023        0.118        0.052       17.618       13.398        0.578      346.115       24.130      863.933
08/31/2013  10:02:00       28.949       23.590       32.104       32.032       25.617       29.305     1026.065      656.221      858.757        0.248        0.127       37.344       10.539        0.080      346.046       24.013      863.927
08/31/2013  10:03:00       30.584       25.741       31.658       29.121       26.355       23.107      848.043      694.564      533.932        0.234        0.104       39.975       10.735        0.072      346.039       24.000      863.928
08/31/2013  10:04:00       -8.257       37.809       74.250       20.406       38.991       33.622      416.385     1520.294     1130.445        0.504        0.153       38.700       28.467        0.541      346.603       24.969      863.930
08/31/2013  10:05:00      -19.640       12.945       32.500       21.515       27.304       24.194      462.910      745.523      585.337        0.170        0.090       23.523       14.722        0.392      346.231       24.330      863.945
08/31/2013  10:06:00      -45.086      -18.501       16.373       43.202       27.121       18.992     1866.423      735.530      360.681        0.280        0.148       48.734       20.078        0.170      346.142       24.178      863.956
08/31/2013  10:07:00      -44.491      -24.931       -1.593       24.650       21.733       18.842      607.629      472.306      355.028        0.202        0.072       51.000       11.478        0.051      345.796       23.584      863.965
08/31/2013  10:08:00      -11.726      -26.263       21.004       22.109       32.488       21.253      488.815     1055.465      451.703        0.163        0.100       28.761        9.005        0.098      346.261       24.381      863.968
08/31/2013  10:09:00      -12.335        9.065       42.636       22.925       23.840       19.913      525.572      568.336      396.513        0.177        0.075       15.308       13.284        0.753      346.624       25.005      863.968
08/31/2013  10:10:00      -14.778       26.359       42.983       11.451       20.006       15.753      131.118      400.249      248.156        0.177        0.039       30.219       12.298        0.166      346.703       25.142      863.967
08/31/2013  10:11:00      -34.851       18.722        6.425       13.633       17.106       14.163      185.867      292.616      200.580        0.114        0.034       39.562        7.622        0.037      346.178       24.239      863.965
08/31/2013  10:12:00      -35.331       21.115       13.787       15.712       16.696       19.231      246.881      278.757      369.828        0.139        0.045       41.160       13.605        0.109      346.157       24.202      863.943
08/31/2013  10:13:00      -21.263      -13.277       15.919       20.145       18.379       15.605      405.823      337.797      243.526        0.093        0.049       25.067       13.672        0.297      346.432       24.676      863.923
08/31/2013  10:14:00       26.425      -43.750       11.860       38.899       49.302       32.763     1513.125     2430.655     1073.402        0.388        0.251       51.111       25.637        0.252      345.985       23.907      863.912
08/31/2013  10:15:00       22.785      -33.010        9.351       32.850       44.818       32.925     1079.091     2008.695     1084.046        0.293        0.209       40.110       28.292        0.498      346.293       24.437      863.909
08/31/2013  10:16:00        1.076       14.655       29.725       19.688       25.603       21.394      387.599      655.525      457.720        0.130        0.075       14.695       18.414        1.570      346.605       24.972      863.912
08/31/2013  10:17:00       17.083      -22.204        4.574       26.346       22.099       23.773      694.110      488.344      565.173        0.128        0.087       28.015       13.988        0.249      346.140       24.175      863.915
08/31/2013  10:18:00       -8.520       -8.527       -8.736       16.928       16.197       14.439      286.562      262.338      208.478        0.049        0.038       12.054       12.689        1.108      346.126       24.147      863.905
08/31/2013  10:19:00      -47.229       -3.542        1.699       25.904       14.304       16.034      671.002      204.593      257.077        0.169        0.057       47.361       11.121        0.055      346.084       24.079      863.910
08/31/2013  10:20:00        1.528       15.558       32.600       12.310       16.093       11.427      151.531      258.984      130.575        0.092        0.027       15.633        7.362        0.222      346.828       25.357      863.903
08/31/2013  10:21:00        1.665       -2.575       20.971       13.023       22.358       19.285      169.608      499.881      371.898        0.075        0.052        3.066        5.407        3.110      346.708       25.151      863.889
08/31/2013  10:22:00       39.165       37.002       25.825       29.478       27.290       26.505      868.972      744.733      702.515        0.294        0.116       53.880       18.406        0.117      346.250       24.363      863.882
08/31/2013  10:23:00       27.313       -2.513       25.009       23.870       25.844       23.894      569.781      667.935      570.929        0.159        0.090       27.428       15.660        0.326      346.227       24.323      863.875
08/31/2013  10:24:00       -1.124       29.420       46.492       24.170       26.409       15.947      584.201      697.436      254.305        0.228        0.077       29.441       10.369        0.124      346.697       25.133      863.859
08/31/2013  10:25:00       -6.594       14.768       21.420       25.076       39.253       24.996      628.793     1540.773      624.779        0.176        0.140       16.173       15.217        0.885      346.497       24.787      863.856
08/31/2013  10:26:00      -37.301      -24.342       -2.809       18.289       15.221       13.085      334.471      231.682      171.216        0.136        0.037       44.541        5.301        0.014      346.234       24.336      863.834
08/31/2013  10:27:00      -31.074      -14.254        1.353       20.621       15.116       12.731      425.229      228.498      162.091        0.099        0.041       34.188        6.937        0.041      346.362       24.556      863.823
08/31/2013  10:28:00       -2.595       -1.211       21.432        8.953       14.874       12.601       80.159      221.229      158.784        0.046        0.023        2.863       10.360       13.092      347.149       25.909      863.808
08/31/2013  10:29:00       -5.632       -3.717       17.017       16.787       14.724       11.380      281.797      216.782      129.514        0.048        0.031        6.748        8.261        1.499      347.014       25.677      863.795
08/31/2013  10:30:00       -5.991       13.141       29.881       11.957       13.800       16.175      142.975      190.428      261.642        0.085        0.030       14.442        8.609        0.355      347.237       26.061      863.797
08/31/2013  10:31:00       -4.671       18.392       24.435       14.639       21.420       18.298      214.312      458.824      334.807        0.098        0.050       18.976        9.442        0.248      346.985       25.628      863.802
08/31/2013  10:32:00        5.370       33.838       36.098       24.887       34.912       30.211      619.382     1218.854      912.732        0.261        0.138       34.262       21.459        0.392      347.029       25.703      863.810
08/31/2013  10:33:00      -14.596       -6.321       13.513       28.179       46.275       20.504      794.038     2141.352      420.434        0.190        0.168       15.906       16.299        1.050      347.109       25.842      863.812
08/31/2013  10:34:00       52.281      -90.781       -6.196       38.883       51.997       32.304     1511.910     2703.704     1043.522        0.813        0.263      104.759       32.295        0.095      346.738       25.201      863.810
08/31/2013  10:35:00       17.540      -64.006        7.465       42.036       50.777       37.292     1766.990     2578.337     1390.682        0.510        0.287       66.366       34.653        0.273      346.848       25.391      863.805
08/31/2013  10:36:00        3.776      -59.694        3.941       21.638       43.768       22.197      468.220     1915.610      492.698        0.323        0.144       59.814        7.606        0.016      346.677       25.097      863.799
08/31/2013  10:37:00      -22.207       18.563       31.632       22.206       21.505       15.192      493.118      462.486      230.787        0.151        0.059       28.943       10.685        0.136      347.262       26.103      863.784
08/31/2013  10:38:00       -4.135        8.456       38.329       11.236       17.733       12.055      126.259      314.474      145.317        0.107        0.029        9.413        5.420        0.332      347.540       26.584      863.785
08/31/2013  10:39:00       36.130      -11.588       27.879       38.144       60.505       35.049     1454.930     3660.809     1228.419        0.428        0.317       37.943       35.969        0.899      346.746       25.216      863.777
08/31/2013  10:40:00       24.508       55.150       43.181       33.738       33.603       18.445     1138.245     1129.189      340.231        0.406        0.130       60.350       13.986        0.054      346.703       25.143      863.776
08/31/2013  10:41:00       29.309      -32.297       15.636       30.454       48.738       33.275      927.418     2375.427     1107.250        0.328        0.221       43.613       28.140        0.416      346.897       25.475      863.789
08/31/2013  10:42:00       10.003       -7.199       46.858       38.754       82.465       40.003     1501.891     6800.514     1600.279        0.612        0.495       12.324       56.423       20.960      346.952       25.567      863.786
08/31/2013  10:43:00       35.743       43.374       40.463       47.085       27.818       28.232     2217.041      773.846      797.018        0.429        0.189       56.204       29.368        0.273      346.573       24.918      863.787
08/31/2013  10:44:00       69.695       61.130       23.379       29.447       27.487       35.701      867.155      755.540     1274.530        0.602        0.145       92.706       10.293        0.012      346.508       24.807      863.782
08/31/2013  10:45:00       29.193       19.877       43.054       34.317       41.231       27.889     1177.648     1700.027      777.779        0.338        0.183       35.317       14.703        0.173      346.945       25.558      863.776
08/31/2013  10:46:00       33.856       37.991       54.202       39.634       34.242       27.144     1570.855     1172.530      736.809        0.450        0.174       50.887       17.284        0.115      346.971       25.603      863.765
08/31/2013  10:47:00       50.283      -79.087       12.789       47.732       57.841       46.184     2278.336     3345.583     2132.926        0.835        0.388       93.719       35.917        0.147      347.011       25.671      863.759
08/31/2013  10:48:00       85.594      -63.700       10.350       34.247       46.867       32.952     1172.846     2196.559     1085.832        0.797        0.223      106.696       32.705        0.094      346.840       25.376      863.755
08/31/2013  10:49:00       33.112      -28.172       17.065       21.868       25.962       24.121      478.216      674.023      581.818        0.196        0.087       43.475       20.715        0.227      346.785       25.284      863.740
08/31/2013  10:50:00       21.219        3.808       30.705       20.469       32.030       19.596      418.971     1025.901      383.996        0.162        0.091       21.558       20.520        0.906      346.958       25.579      863.722
08/31/2013  10:51:00       37.745       24.448       30.327       25.119       35.356       25.770      630.976     1250.041      664.091        0.274        0.127       44.971       25.623        0.325      346.544       24.868      863.710
08/31/2013  10:52:00        1.773      -13.919       28.972       21.538       28.553       26.227      463.884      815.282      687.851        0.150        0.098       14.032       10.022        0.510      347.135       25.885      863.686
08/31/2013  10:53:00        6.628       15.793       25.486       27.547       29.910       24.857      758.813      894.582      617.880        0.161        0.114       17.127       13.800        0.649      347.055       25.748      863.676
08/31/2013  10:54:00       -0.355       54.944       79.843       34.289       45.335       25.467     1175.748     2055.296      648.552        0.664        0.194       54.945       28.608        0.271      347.057       25.751      863.666
08/31/2013  10:55:00       35.505       46.379       46.990       47.203       37.034       40.309     2228.125     1371.496     1624.851        0.542        0.261       58.409       39.024        0.446      346.827       25.354      863.656
08/31/2013  10:56:00       48.007       22.508       19.026       25.041       17.644       23.628      627.049      311.306      558.293        0.233        0.075       53.022       14.674        0.077      346.811       25.327      863.650
08/31/2013  10:57:00       33.148       14.772       23.889       22.538       24.296       20.949      507.960      590.285      438.856        0.171        0.077       36.290       12.157        0.112      346.779       25.272      863.629
08/31/2013  10:58:00       26.615        4.231       -3.104       16.808       14.515       14.850      282.518      210.678      220.509        0.072        0.036       26.950        9.348        0.120      346.642       25.035      863.622
08/31/2013  10:59:00       24.619        4.920       13.815       23.751       25.845       21.824      564.096      667.941      476.267        0.126        0.085       25.106       15.997        0.406      346.941       25.553      863.607
08/31/2013  11:00:00       43.133       39.305        9.176       21.445       24.907       28.110      459.906      620.356      790.191        0.268        0.094       58.356       12.966        0.049      346.904       25.489      863.602
08/31/2013  11:01:00       39.754       40.827       15.835       25.488       29.734       21.478      649.662      884.130      461.308        0.275        0.100       56.984       16.817        0.087      346.905       25.490      863.594
08/31/2013  11:02:00       37.945       18.239        5.719       24.918       20.650       20.097      620.920      426.420      403.887        0.163        0.073       42.100       10.017        0.057      346.829       25.359      863.584
08/31/2013  11:03:00       11.843        7.693       14.136       33.255       25.954       18.680     1105.917      673.633      348.945        0.126        0.106       14.122       13.361        0.895      347.390       26.325      863.580
08/31/2013  11:04:00       -9.217       27.070       24.253       25.160       29.219       20.691      633.027      853.733      428.111        0.166        0.096       28.596       14.994        0.275      347.898       27.202      863.571
08/31/2013  11:05:00      -19.313        1.440        8.897       20.590       11.911       13.294      423.945      141.875      176.723        0.060        0.037       19.367        7.607        0.154      347.485       26.488      863.571
08/31/2013  11:06:00       -1.057       16.518       26.061       18.632       12.967        8.785      347.150      168.136       77.173        0.077        0.030       16.552        4.774        0.083      348.157       27.647      863.562
08/31/2013  11:07:00       -1.085       43.202       19.129       12.015       19.792       17.202      144.358      391.713      295.926        0.153        0.042       43.215       12.944        0.090      348.018       27.409      863.564
08/31/2013  11:08:00       -2.521       17.653       18.043       23.012       22.514       15.087      529.535      506.877      227.609        0.095        0.063       17.832       10.611        0.354      347.838       27.098      863.550
08/31/2013  11:09:00       11.747        3.188       18.309       22.280       17.012       23.199      496.388      289.413      538.182        0.090        0.066       12.171       15.915        1.710      347.739       26.927      863.549
08/31/2013  11:10:00       53.276       57.669       31.933       45.308       30.306       27.614     2052.804      918.468      762.559        0.546        0.187       78.511       21.208        0.073      347.258       26.097      863.533
08/31/2013  11:11:00       57.566       69.609       48.817       31.470       28.164       32.127      990.344      793.201     1032.135        0.668        0.141       90.328       16.260        0.032      347.183       25.967      863.526
08/31/2013  11:12:00       69.841       56.527       31.580       31.471       29.068       26.945      990.440      844.955      726.020        0.582        0.128       89.850       13.738        0.023      347.414       26.367      863.510
08/31/2013  11:13:00       36.109       24.240       38.662       33.479       28.741       36.492     1120.847      826.060     1331.688        0.333        0.164       43.491       12.908        0.088      347.754       26.953      863.501
08/31/2013  11:14:00       34.327       36.748       38.413       38.684       27.558       24.201     1496.475      759.469      585.698        0.342        0.142       50.286       19.799        0.155      347.404       26.350      863.484
08/31/2013  11:15:00       25.195       24.936       21.052       25.079       24.873       24.061      628.964      618.653      578.945        0.176        0.091       35.449       18.518        0.273      347.640       26.757      863.462
08/31/2013  11:16:00       22.385        2.795       10.362       35.598       30.804       22.817     1267.201      948.864      520.631        0.168        0.137       22.559       16.208        0.516      347.543       26.588      863.447
08/31/2013  11:17:00       18.702        3.203       16.657       28.579       23.097       26.654      816.767      533.483      710.457        0.135        0.103       18.975       23.328        1.512      347.847       27.112      863.442
08/31/2013  11:18:00       -9.403        1.374       23.941       15.684       13.162       14.134      245.989      173.245      199.775        0.064        0.031        9.503       13.242        1.942      348.140       27.620      863.421
08/31/2013  11:19:00       29.650       29.499       37.305       31.967       20.299       20.751     1021.910      412.061      430.585        0.250        0.093       41.825       15.783        0.142      347.471       26.464      863.408
08/31/2013  11:20:00       90.935       25.957       -0.886       29.056       34.445       21.309      844.254     1186.477      454.071        0.571        0.124       94.567       15.790        0.028      347.263       26.106      863.396
08/31/2013  11:21:00       56.506       31.442       24.132       45.152       25.709       33.448     2038.740      660.942     1118.739        0.429        0.191       64.665       24.830        0.147      347.817       27.061      863.388
08/31/2013  11:22:00       10.296        5.428       -5.022       26.759       28.246       18.634      716.028      797.847      347.241        0.101        0.093       11.640       17.162        2.174      347.572       26.638      863.388
08/31/2013  11:23:00       19.063       -3.307       19.774       21.005       26.145       19.082      441.225      683.549      364.136        0.113        0.074       19.348       14.019        0.525      347.842       27.105      863.382
08/31/2013  11:24:00       21.895       -0.252        8.197       33.712       26.618       29.091     1136.471      708.500      846.263        0.162        0.135       21.897       20.370        0.865      347.706       26.869      863.385
08/31/2013  11:25:00       84.829       47.788       22.274       29.520       27.653       29.707      871.404      764.701      882.533        0.625        0.126       97.363       15.270        0.025      347.758       26.959      863.385
08/31/2013  11:26:00       98.898       66.890       18.513       39.620       42.050       28.523     1569.738     1768.162      813.555        0.937        0.208      119.395       17.369        0.021      347.816       27.060      863.376
08/31/2013  11:27:00       84.701       64.124       13.734       33.656       26.743       24.940     1132.709      715.191      621.984        0.697        0.123      106.236       11.587        0.012      347.709       26.875      863.374
08/31/2013  11:28:00       77.671       72.737        5.560       33.309       29.431       26.110     1109.482      866.171      681.748        0.701        0.133      106.412       15.802        0.022      347.786       27.008      863.364
08/31/2013  11:29:00       43.981       46.655       20.001       32.383       20.099       20.801     1048.649      403.961      432.676        0.320        0.094       64.118       13.948        0.047      347.825       27.075      863.349
08/31/2013  11:30:00       44.794       64.219       52.368       53.003       44.043       39.074     2809.332     1939.829     1526.779        0.757        0.314       78.298       26.617        0.116      348.034       27.436      863.347
08/31/2013  11:31:00       45.601       44.214       24.653       23.766       24.793       20.953      564.825      614.711      439.026        0.313        0.081       63.517       12.966        0.042      347.742       26.931      863.337
08/31/2013  11:32:00       -4.363        0.035       15.287       18.203       19.619       25.985      331.354      384.919      675.221        0.082        0.070        4.363       15.138       12.037      348.596       28.409      863.324
08/31/2013  11:33:00       53.501       30.198       12.935       34.751       22.902       23.534     1207.608      524.523      553.849        0.311        0.114       61.435       12.830        0.044      348.058       27.479      863.306
08/31/2013  11:34:00      114.877       73.861       27.357       52.386       47.294       30.673     2744.316     2236.757      940.832        1.266        0.296      136.573       12.179        0.008      348.113       27.571      863.281
08/31/2013  11:35:00       57.629       56.392       54.561       57.349       43.735       42.013     3288.940     1912.726     1765.054        0.822        0.348       80.630       39.184        0.236      348.263       27.831      863.271
08/31/2013  11:36:00      119.372       87.012       46.092       42.040       36.071       33.726     1767.357     1301.153     1137.467        1.407        0.210      147.718       19.055        0.017      347.852       27.120      863.257
08/31/2013  11:37:00       88.456       62.735      -10.544       66.899       27.973       36.472     4475.511      782.484     1330.188        0.923        0.329      108.444       15.616        0.021      348.166       27.663      863.246
08/31/2013  11:38:00       46.819       48.833       15.224       41.543       34.612       36.804     1725.850     1197.981     1354.562        0.454        0.214       67.652       24.630        0.133      348.522       28.278      863.234
08/31/2013  11:39:00       31.878       89.409       -5.905       49.128       49.372       34.651     2413.518     2437.579     1200.714        0.755        0.303       94.922       29.734        0.098      348.371       28.016      863.224
08/31/2013  11:40:00       22.234       29.226       16.200       45.753       38.820       41.589     2093.321     1506.984     1729.651        0.347        0.266       36.722       23.314        0.403      348.745       28.665      863.211
08/31/2013  11:41:00       32.637      -21.639        8.586       42.757       41.790       23.782     1828.191     1746.365      565.581        0.287        0.207       39.159       10.861        0.077      348.512       28.262      863.199
08/31/2013  11:42:00       -2.453      -18.907       30.645       26.294       31.317       26.242      691.368      980.757      688.648        0.183        0.118       19.066        9.052        0.225      348.454       28.163      863.192
08/31/2013  11:43:00       29.881       -1.946       36.781       42.579       46.272       32.594     1812.938     2141.077     1062.378        0.363        0.251       29.944       35.000        1.366      348.738       28.654      863.178
08/31/2013  11:44:00       54.090       17.158       25.164       55.926       38.441       28.987     3127.712     1477.713      840.249        0.465        0.272       56.746       31.137        0.301      348.307       27.909      863.165
08/31/2013  11:45:00       67.069       53.626       24.062       46.596       44.142       29.772     2171.143     1948.528      886.371        0.648        0.250       85.872       14.947        0.030      348.264       27.835      863.145
08/31/2013  11:46:00       30.261       55.185        3.535       41.831       36.646       31.352     1749.833     1342.945      982.930        0.402        0.204       62.938       27.969        0.197      348.713       28.611      863.131
08/31/2013  11:47:00       74.943       56.577       24.356       47.845       30.659       28.923     2289.171      939.980      836.555        0.674        0.203       93.901       11.467        0.015      348.370       28.018      863.112
08/31/2013  11:48:00       47.697       54.346       59.486       45.305       41.083       39.447     2052.507     1687.787     1556.096        0.703        0.265       72.308       22.434        0.096      348.617       28.443      863.095
08/31/2013  11:49:00      106.398       54.675       24.030       43.899       41.733       35.895     1927.102     1741.670     1288.419        0.992        0.248      119.624        5.911        0.002      348.600       28.415      863.088
08/31/2013  11:50:00      108.184       67.895       38.314       47.970       49.482       31.382     2301.080     2448.461      984.856        1.176        0.287      127.725       15.588        0.015      348.287       27.872      863.083
08/31/2013  11:51:00       46.333      100.593        4.981       54.747       59.869       37.069     2997.280     3584.352     1374.119        1.012        0.398      110.750       36.000        0.106      348.428       28.119      863.051
08/31/2013  11:52:00      -21.268       14.539       21.566       22.951       50.364       29.055      526.753     2536.504      844.221        0.252        0.195       25.763       16.278        0.399      349.194       29.442      863.036
08/31/2013  11:53:00       61.144      -42.498       17.154       68.631       66.674       51.820     4710.147     4445.424     2685.309        0.884        0.592       74.463       36.855        0.245      348.693       28.575      863.025
08/31/2013  11:54:00       83.985      -41.966        5.301       51.890       56.799       40.591     2692.618     3226.112     1647.642        0.820        0.378       93.887       31.465        0.112      348.600       28.413      863.022
08/31/2013  11:55:00       26.976     -129.927       -2.269       61.422       57.528       43.504     3772.685     3309.472     1892.575        1.329        0.449      132.698       31.266        0.056      348.578       28.376      863.006
08/31/2013  11:56:00       98.612      -68.098       25.738       44.028       83.175       54.009     1938.456     6918.159     2916.941        1.340        0.589      119.840       55.214        0.212      348.598       28.413      863.003
08/31/2013  11:57:00       54.283       32.446       13.024       30.445       50.939       38.113      926.894     2594.831     1452.575        0.457        0.249       63.241       27.374        0.187      348.589       28.395      862.991
08/31/2013  11:58:00       65.348       61.435       43.289       42.764       32.056       30.284     1828.759     1027.606      917.113        0.685        0.189       89.692       21.696        0.059      348.691       28.573      862.987
08/31/2013  11:59:00       83.078       69.814        4.802       62.832       66.889       44.623     3947.832     4474.204     1991.232        1.110        0.521      108.517       37.542        0.120      348.756       28.682      862.983
08/31/2013  12:00:00       92.922       63.665       33.702       87.211       59.903       54.243     7605.708     3588.320     2942.339        1.398        0.707      112.639       40.146        0.127      348.890       28.916      862.970
08/31/2013  12:01:00      127.114      101.776       21.707       56.547       39.896       36.940     3197.522     1591.706     1364.537        1.657        0.308      162.838       13.880        0.007      348.735       28.649      862.976
08/31/2013  12:02:00       57.871       58.111        6.058       33.855       25.093       23.576     1146.155      629.661      555.820        0.455        0.117       82.011       11.863        0.021      348.715       28.614      862.969
08/31/2013  12:03:00       25.135      -15.714       -1.788       38.002       42.380       19.890     1444.167     1796.060      395.630        0.226        0.182       29.643       13.002        0.192      348.516       28.271      862.949
08/31/2013  12:04:00       24.882       42.373       37.307       41.498       32.312       31.942     1722.090     1044.079     1020.313        0.380        0.189       49.139       29.026        0.349      348.584       28.388      862.934
08/31/2013  12:05:00       29.177       26.052       27.999       39.595       23.527       23.008     1567.776      553.522      529.384        0.248        0.133       39.115        5.362        0.019      349.170       29.402      862.905
08/31/2013  12:06:00        6.024      164.426      -17.555       44.760       71.466       36.580     2003.443     5107.337     1338.125        1.791        0.422      164.536       30.265        0.034      349.013       29.128      862.886
08/31/2013  12:07:00      -15.542      140.966      -16.196       30.444       59.747       29.808      926.831     3569.672      888.507        1.288        0.269      141.820       35.340        0.062      348.997       29.101      862.862
08/31/2013  12:08:00       29.791       69.939       17.335       46.382       52.597       42.810     2151.293     2766.400     1832.695        0.641        0.338       76.020       36.271        0.228      349.306       29.637      862.837
08/31/2013  12:09:00       29.537       55.255       16.263       53.255       35.934       39.394     2836.104     1291.286     1551.922        0.493        0.284       62.654       36.113        0.332      349.132       29.336      862.823
08/31/2013  12:10:00       49.399       42.397        9.257       76.110       40.311       30.750     5792.673     1624.982      945.533        0.634        0.418       65.098       18.669        0.082      349.140       29.350      862.802
08/31/2013  12:11:00       71.263       61.715       40.744       54.733       44.149       37.941     2995.680     1949.154     1439.496        0.846        0.319       94.271       27.408        0.085      349.184       29.426      862.795
08/31/2013  12:12:00       92.797       69.206       53.836       97.466       58.135       50.203     9499.708     3379.674     2520.349        1.585        0.770      115.762       45.058        0.151      349.238       29.519      862.793
08/31/2013  12:13:00      113.459      110.031       -3.300       54.163       50.627       51.523     2933.671     2563.057     2654.614        1.657        0.408      158.050       28.670        0.033      349.068       29.223      862.803
08/31/2013  12:14:00       59.450       92.578        8.687       54.778       57.017       50.237     3000.664     3250.970     2523.713        1.048        0.439      110.023       44.519        0.164      349.248       29.536      862.785
08/31/2013  12:15:00       23.077       45.359        6.018       34.242       53.048       33.261     1172.541     2814.063     1106.300        0.386        0.255       50.892       28.755        0.319      349.312       29.648      862.797
08/31/2013  12:16:00      -14.719       64.292        3.355       52.050       50.634       28.089     2709.176     2563.821      788.989        0.521        0.303       65.955       20.947        0.101      349.460       29.905      862.775
08/31/2013  12:17:00       11.155       76.639        3.766       43.905       43.317       35.714     1927.656     1876.388     1275.473        0.554        0.254       77.447       23.814        0.095      349.428       29.848      862.773
08/31/2013  12:18:00       22.541       33.897       27.171       47.387       45.799       29.180     2245.516     2097.545      851.444        0.379        0.260       40.707        9.976        0.060      349.226       29.499      862.759
08/31/2013  12:19:00       26.261       83.846       90.099       62.524       61.074       52.577     3909.231     3730.021     2764.333        1.312        0.520       87.862       44.310        0.254      349.098       29.277      862.749
08/31/2013  12:20:00       32.992       51.533       74.940       65.044       67.302       55.689     4230.662     4529.602     3101.259        1.061        0.593       61.190       51.549        0.710      348.769       28.706      862.733
08/31/2013  12:21:00       85.312      109.310       86.378       83.730       57.659       46.693     7010.743     3324.579     2180.239        1.960        0.626      138.660       38.602        0.078      348.740       28.656      862.724
08/31/2013  12:22:00       92.451       92.708       65.805       57.818       51.245       52.831     3342.958     2626.067     2791.069        1.511        0.438      130.928       38.770        0.088      348.798       28.757      862.711
08/31/2013  12:23:00       40.905      -37.365       15.123       36.177       53.024       39.300     1308.775     2811.512     1544.497        0.448        0.283       55.402       39.702        0.514      348.701       28.590      862.708
08/31/2013  12:24:00       30.019      -62.088        3.452       30.973       26.333       19.383      959.309      693.418      375.691        0.340        0.101       68.964       10.657        0.024      348.386       28.045      862.699
08/31/2013  12:25:00       14.831       -3.140       19.578       29.646       22.916       24.481      878.883      525.157      599.307        0.131        0.100       15.160        9.315        0.378      349.105       29.289      862.684
08/31/2013  12:26:00       90.375      -31.407       14.858       39.610       85.292       49.699     1568.973     7274.648     2470.004        1.034        0.566       95.677       51.034        0.285      348.404       28.074      862.678
08/31/2013  12:27:00       36.935        2.412       45.138       46.810       54.209       36.897     2191.139     2938.644     1361.414        0.495        0.325       37.014       24.232        0.429      348.800       28.762      862.674
08/31/2013  12:28:00       70.131      -70.666       12.800       53.034       59.814       37.151     2812.578     3577.666     1380.201        0.892        0.389       99.560       41.665        0.175      348.851       28.850      862.663
08/31/2013  12:29:00       53.831      -16.635       11.592       44.983       22.258       23.920     2023.435      495.430      572.181        0.320        0.155       56.343       20.966        0.138      349.057       29.206      862.654
08/31/2013  12:30:00       30.828       26.215       25.063       49.437       73.101       35.755     2444.026     5343.752     1278.449        0.566        0.453       40.467       34.006        0.706      349.020       29.142      862.624
08/31/2013  12:31:00       49.172       -1.645       17.154       37.796       39.127       30.171     1428.526     1530.915      910.315        0.329        0.193       49.200       24.236        0.243      348.320       27.932      862.619
08/31/2013  12:32:00       34.888        6.675       30.791       40.015       35.728       25.442     1601.176     1276.493      647.282        0.287        0.176       35.521       27.115        0.583      348.809       28.776      862.595
08/31/2013  12:33:00       39.322       36.911       60.649       63.230       45.720       32.434     3998.017     2090.286     1051.939        0.686        0.357       53.932       24.458        0.206      348.894       28.923      862.576
08/31/2013  12:34:00       68.135        7.141       11.962       39.413       72.139       57.294     1553.400     5204.046     3282.546        0.744        0.502       68.508       52.436        0.586      348.804       28.768      862.550
08/31/2013  12:35:00       78.505      -41.869       45.786       66.654       65.845       51.746     4442.715     4335.534     2677.631        1.073        0.573       88.972       42.052        0.223      348.951       29.022      862.520
08/31/2013  12:36:00      149.219       51.876       18.304       94.970      111.630       59.279     9019.218    12461.341     3514.016        2.514        1.250      157.979       51.160        0.105      349.293       29.613      862.484
08/31/2013  12:37:00      197.664      104.625        3.967       81.796       43.851       45.467     6690.650     1922.883     2067.253        3.035        0.534      223.646       22.243        0.010      349.187       29.429      862.493
08/31/2013  12:38:00       41.052       25.123       14.456       29.266       19.919       21.731      856.526      396.779      472.233        0.213        0.086       48.129       10.548        0.048      349.260       29.558      862.476
08/31/2013  12:39:00       22.629      -18.534        8.035       34.582       23.633       29.039     1195.932      558.538      843.253        0.176        0.130       29.250       21.878        0.559      349.342       29.699      862.444
08/31/2013  12:40:00       32.802       18.280       19.432       32.481       30.518       30.312     1055.040      931.363      918.791        0.235        0.145       37.551       22.299        0.353      349.151       29.370      862.428
08/31/2013  12:41:00       85.330       67.591       33.254       44.042       38.570       35.563     1939.661     1487.612     1264.749        0.882        0.235      108.857       19.828        0.033      349.084       29.254      862.404
08/31/2013  12:42:00      192.398      125.834       44.836       58.956       40.595       45.409     3475.775     1647.958     2061.990        3.102        0.359      229.894       20.656        0.008      349.474       29.924      862.375
08/31/2013  12:43:00       69.478      -72.715       14.243       68.858      112.866       49.623     4741.404    12738.819     2462.479        1.513        0.997      100.572       40.353        0.161      349.496       29.963      862.358
08/31/2013  12:44:00       74.740      -61.876       12.309       70.890      112.505       35.753     5025.456    12657.468     1278.289        1.426        0.948       97.029       34.453        0.126      349.689       30.301      862.343
08/31/2013  12:45:00       98.669      -37.939       21.376       77.121       72.169       47.414     5947.680     5208.325     2248.094        1.252        0.670      105.711       49.114        0.216      349.242       29.527      862.348
08/31/2013  12:46:00       73.288        8.618       54.438       81.849       50.313       45.333     6699.192     2531.427     2055.123        0.985        0.564       73.793       35.112        0.226      349.615       30.173      862.331
08/31/2013  12:47:00       62.054       17.816       33.534       40.014       75.637       44.261     1601.153     5720.908     1959.011        0.729        0.464       64.561       48.024        0.553      349.074       29.235      862.335
08/31/2013  12:48:00       31.670      -46.801       14.596       37.594       35.036       31.840     1413.330     1227.511     1013.780        0.353        0.183       56.509       18.737        0.110      349.729       30.370      862.328
08/31/2013  12:49:00        4.283        1.932        5.694       21.557       42.414       25.784      464.696     1798.964      664.802        0.149        0.146        4.699       14.136        9.052      349.931       30.721      862.314
08/31/2013  12:50:00      -22.597       56.815       18.877       34.144       41.331       31.282     1165.843     1708.289      978.590        0.397        0.193       61.144       24.078        0.155      350.126       31.061      862.324
08/31/2013  12:51:00       -8.546        4.083        7.012       33.796       22.412       20.149     1142.167      502.308      405.986        0.109        0.103        9.471       15.402        2.644      349.993       30.828      862.306
08/31/2013  12:52:00       17.860        5.263       41.464       36.363       41.594       36.624     1322.270     1730.030     1341.347        0.323        0.220       18.620       33.076        3.156      349.773       30.447      862.297
08/31/2013  12:53:00       84.785       32.983       12.606       62.478       58.469       39.281     3903.465     3418.621     1542.988        0.865        0.443       90.974       24.176        0.071      349.760       30.425      862.282
08/31/2013  12:54:00       94.431       73.561       61.900       78.004       52.876       50.048     6084.584     2795.839     2504.794        1.477        0.569      119.701       38.159        0.102      349.694       30.309      862.269
08/31/2013  12:55:00      170.086      126.336       12.142       81.186       65.475       67.092     6591.192     4287.013     4501.317        3.021        0.769      211.873       39.048        0.034      349.633       30.200      862.265
08/31/2013  12:56:00       89.440       88.098        2.611       53.800       58.379       55.973     2894.394     3408.056     3132.947        1.260        0.472      125.542       43.388        0.119      349.701       30.321      862.242
08/31/2013  12:57:00       17.222       51.064       14.560       44.342       51.182       38.054     1966.240     2619.630     1448.139        0.457        0.302       53.890       32.707        0.368      350.173       31.142      862.235
08/31/2013  12:58:00      115.565       83.933       35.145       57.639       49.013       36.392     3322.222     2402.315     1324.343        1.434        0.352      142.828       16.937        0.014      349.753       30.412      862.217
08/31/2013  12:59:00       59.459       31.264       31.084       39.843       26.536       27.294     1587.470      704.163      744.982        0.426        0.152       67.178       14.347        0.046      349.936       30.731      862.208
08/31/2013  13:00:00       86.752       70.906       25.504       71.076       42.989       42.208     5051.863     1848.013     1781.500        1.094        0.434      112.043       28.804        0.066      350.201       31.189      862.199
08/31/2013  13:01:00      101.838      107.709       81.306       66.874       54.863       53.745     4472.123     3009.897     2888.547        1.947        0.519      148.230       35.110        0.056      349.841       30.565      862.171
08/31/2013  13:02:00      104.722      -25.487       51.578       75.309      106.558       65.223     5671.419    11354.614     4254.034        1.777        1.064      107.778       69.750        0.419      349.294       29.613      862.152
08/31/2013  13:03:00       59.211      -73.836       28.666       47.207      100.168       48.606     2228.463    10033.577     2362.519        1.220        0.731       94.645       57.710        0.372      349.690       30.302      862.133
08/31/2013  13:04:00       95.504       82.855       65.558       91.177       77.476       51.049     8313.181     6002.478     2606.037        1.860        0.846      126.435       56.858        0.202      349.826       30.537      862.126
08/31/2013  13:05:00      223.368      128.114       67.350      121.838       90.840       58.939    14844.380     8251.917     3473.832        4.870        1.329      257.500       34.081        0.018      349.765       30.430      862.098
08/31/2013  13:06:00      126.313       82.471       51.990       72.911       56.386       46.900     5316.016     3179.406     2199.598        1.807        0.535      150.852       21.287        0.020      349.672       30.271      862.108
08/31/2013  13:07:00       48.732       31.185       33.422       61.610       54.397       46.777     3795.846     2959.025     2188.069        0.670        0.447       57.856       32.986        0.325      349.785       30.469      862.114
08/31/2013  13:08:00       39.317       13.510       50.984       41.832       54.667       34.297     1749.899     2988.530     1176.297        0.512        0.296       41.573       29.280        0.496      349.791       30.478      862.099
08/31/2013  13:09:00       61.139       -0.746       28.916       47.016       45.999       42.468     2210.545     2115.929     1803.564        0.535        0.307       61.143       36.632        0.359      349.268       29.572      862.116
08/31/2013  13:10:00       26.556       25.250       11.094       26.151       28.840       30.933      683.850      831.736      956.828        0.197        0.124       36.644       19.583        0.286      349.640       30.216      862.099
08/31/2013  13:11:00       -2.191      -12.062        2.498       23.109       22.326       22.100      534.046      498.433      488.418        0.084        0.076       12.259       10.990        0.804      350.171       31.138      862.074
08/31/2013  13:12:00       15.779        1.011        7.256       19.025       26.695       18.591      361.933      712.620      345.632        0.086        0.071       15.811       16.108        1.038      350.053       30.933      862.063
08/31/2013  13:13:00       39.380       -3.338       40.670       56.561       75.541       50.819     3199.164     5706.418     2582.534        0.735        0.574       39.522       61.972        2.459      349.779       30.457      862.040
08/31/2013  13:14:00       59.788      -78.515       14.686       57.589      131.062       59.925     3316.463    17177.225     3591.040        1.701        1.204       98.687       65.311        0.438      349.900       30.666      862.007
08/31/2013  13:15:00       19.431       54.743       61.025       45.506       62.934       51.617     2070.783     3960.663     2664.360        0.790        0.435       58.089       39.283        0.457      350.009       30.857      862.013
08/31/2013  13:16:00       95.770      -92.780      -11.997       97.544       94.803       41.995     9514.743     8987.603     1763.540        1.909        1.013      133.341       56.216        0.178      349.457       29.897      861.998
08/31/2013  13:17:00       35.747      -15.118       41.928       52.670       60.258       39.168     2774.164     3631.003     1534.134        0.560        0.397       38.812       35.424        0.833      350.276       31.321      861.986
08/31/2013  13:18:00      121.037      -55.134       65.368      104.108      134.529       84.465    10838.517    18097.927     7134.421        2.901        1.804      133.003       89.331        0.451      350.002       30.843      861.960
08/31/2013  13:19:00      197.166     -203.083      -30.559       57.205       72.986       45.633     3272.460     5326.933     2082.372        4.586        0.534      283.050       37.230        0.017      349.671       30.265      861.944
08/31/2013  13:20:00       83.726     -138.115       11.578       79.397       90.972       46.735     6303.883     8275.964     2184.146        2.149        0.838      161.511       55.270        0.117      349.810       30.510      861.940
08/31/2013  13:21:00       56.818     -139.752      -11.059       54.868       68.401       38.272     3010.529     4678.632     1464.747        1.602        0.458      150.861       26.495        0.031      349.805       30.501      861.909
08/31/2013  13:22:00       42.039       27.408       46.522       71.285       88.302       43.696     5081.517     7797.323     1909.323        0.973        0.739       50.185       41.206        0.674      350.215       31.215      861.880
08/31/2013  13:23:00      121.797      106.865       62.872       52.365       53.656       58.414     2742.123     2878.970     3412.238        1.962        0.452      162.033       24.402        0.023      350.176       31.146      861.881
08/31/2013  13:24:00      180.757      101.253       17.616      108.963       81.218       62.821    11872.868     6596.390     3946.422        3.282        1.121      207.184       38.324        0.034      350.317       31.389      861.883
08/31/2013  13:25:00      113.465       70.513       26.781       84.433       55.927       47.430     7128.960     3127.833     2249.621        1.553        0.625      133.591       31.940        0.057      350.259       31.291      861.865
08/31/2013  13:26:00      181.172      133.002       31.755       72.480       52.483       50.557     5253.344     2754.508     2555.984        3.104        0.528      224.750       27.994        0.016      349.956       30.760      861.856
08/31/2013  13:27:00      150.452       60.674       27.877       86.847       48.315       46.665     7542.467     2334.347     2177.608        1.957        0.603      162.226       28.067        0.030      350.203       31.192      861.863
08/31/2013  13:28:00       83.521       67.380       43.883       52.402       43.647       38.410     2745.942     1905.063     1475.326        0.978        0.306      107.312       21.143        0.039      350.187       31.166      861.857
08/31/2013  13:29:00       43.032       73.214       16.836       68.291       76.503       54.773     4663.727     5852.775     3000.050        1.050        0.676       84.924       45.204        0.283      350.360       31.468      861.841
08/31/2013  13:30:00       61.726        2.069        5.826       83.312      103.311       42.726     6940.880    10673.104     1825.533        1.164        0.972       61.760       38.922        0.397      350.225       31.233      861.839
08/31/2013  13:31:00       95.476       48.764      -13.018       38.925       36.719       25.756     1515.141     1348.259      663.354        0.759        0.176      107.209       17.280        0.026      350.170       31.137      861.845
08/31/2013  13:32:00      130.497       93.451        4.083       71.949       54.186       47.481     5176.702     2936.145     2254.412        1.807        0.518      160.507       34.809        0.047      349.924       30.707      861.850
08/31/2013  13:33:00      109.924      150.399       -4.805       96.469       80.409       76.296     9306.242     6465.596     5821.089        2.816        1.080      186.288       56.537        0.092      350.065       30.951      861.820
08/31/2013  13:34:00       -5.914      147.947      -14.354       41.248       51.955       32.388     1701.404     2699.366     1048.983        1.379        0.272      148.065       23.929        0.026      350.087       30.992      861.811
08/31/2013  13:35:00       31.900       60.796        3.547       36.769       67.262       28.699     1351.936     4524.163      823.639        0.571        0.335       68.657       36.974        0.290      350.200       31.190      861.802
08/31/2013  13:36:00        5.816       41.420       14.811       26.251       30.965       24.695      689.137      958.845      609.823        0.211        0.113       41.826       15.407        0.136      350.298       31.358      861.785
08/31/2013  13:37:00      127.224       62.350       39.113       65.313       43.065       37.686     4265.797     1854.637     1420.231        1.457        0.377      141.681       19.268        0.018      349.874       30.620      861.772
08/31/2013  13:38:00       94.723       87.099        9.340       82.698       82.827       55.739     6838.896     6860.362     3106.833        1.672        0.840      128.680       54.248        0.178      350.271       31.311      861.766
08/31/2013  13:39:00      147.627      106.840       28.635       95.646       86.413       85.870     9148.166     7467.209     7373.685        2.900        1.199      182.232       57.395        0.099      350.425       31.579      861.735
08/31/2013  13:40:00       51.499      168.302      -11.681       75.758      126.155       65.399     5739.282    15915.199     4277.053        2.852        1.297      176.005       69.855        0.158      350.374       31.490      861.717
08/31/2013  13:41:00       30.151      177.101       -4.455       82.728      155.920       59.470     6843.913    24310.931     3536.666        3.349        1.735      179.649       75.764        0.178      350.368       31.479      861.729
08/31/2013  13:42:00      107.997       87.917       72.025      106.071       66.298       56.208    11251.046     4395.384     3159.302        2.169        0.940      139.258       30.964        0.049      350.420       31.569      861.724
08/31/2013  13:43:00       77.090       58.306       61.138       68.386       61.142       58.679     4676.584     3738.337     3443.208        1.247        0.593       96.656       51.209        0.281      350.351       31.452      861.712
08/31/2013  13:44:00       27.134      -22.269        3.654       36.374       97.000       33.664     1323.084     9408.939     1133.278        0.655        0.593       35.102       30.189        0.740      350.352       31.454      861.707
08/31/2013  13:45:00       72.335     -141.414        6.628       64.558       77.118       41.128     4167.717     5947.248     1691.542        1.854        0.590      158.840       39.957        0.063      350.150       31.100      861.697
08/31/2013  13:46:00       34.156      -47.142        9.415       43.520       63.070       36.039     1893.989     3977.802     1298.843        0.532        0.359       58.215       39.205        0.454      350.476       31.668      861.671
08/31/2013  13:47:00        2.036      -59.853       17.710       45.867       71.088       38.985     2103.790     5053.549     1519.794        0.629        0.434       59.888       41.406        0.478      350.283       31.334      861.664
08/31/2013  13:48:00       93.198     -143.138       -2.687      112.516      111.200       60.097    12659.760    12365.420     3611.601        2.890        1.432      170.805       68.797        0.162      350.314       31.386      861.631
08/31/2013  13:49:00      146.916     -179.916      -39.191       93.784       89.755       39.087     8795.479     8056.002     1527.758        3.693        0.919      232.281       42.502        0.033      350.111       31.032      861.614
08/31/2013  13:50:00      103.542     -102.077        9.358       74.073      141.925       81.798     5486.861    20142.628     6690.929        2.677        1.616      145.399       92.818        0.408      350.261       31.292      861.619
08/31/2013  13:51:00      135.391       45.763       49.472       87.819      103.402       58.076     7712.193    10692.075     3372.830        2.232        1.089      142.916       57.546        0.162      349.931       30.720      861.611
08/31/2013  13:52:00      112.546       51.190       57.790       75.779       56.308       48.944     5742.504     3170.618     2395.501        1.497        0.565      123.640       41.212        0.111      349.879       30.633      861.610
08/31/2013  13:53:00       71.316        9.198       31.178       77.110       71.837       44.968     5945.918     5160.623     2022.101        0.963        0.656       71.906       39.594        0.303      350.189       31.169      861.593
08/31/2013  13:54:00       86.232      -24.355       36.346       79.119       59.191       44.813     6259.870     3503.524     2008.179        1.056        0.589       89.606       46.591        0.270      350.176       31.148      861.587
08/31/2013  13:55:00       24.166       43.288       95.716       60.384       84.554       55.616     3646.180     7149.456     3093.125        1.275        0.694       49.577       48.990        0.976      350.237       31.252      861.574
08/31/2013  13:56:00       25.830       32.897       53.259       53.271       40.209       32.232     2837.780     1616.750     1038.911        0.504        0.275       41.826       27.474        0.431      349.804       30.500      861.590
08/31/2013  13:57:00       89.805       32.796       43.193       52.172       46.352       37.305     2721.969     2148.463     1391.695        0.863        0.313       95.606       30.478        0.102      349.567       30.090      861.570
08/31/2013  13:58:00       22.912       -0.077        3.262       49.278       86.528       33.306     2428.331     7487.157     1109.287        0.578        0.551       22.912       28.460        1.543      350.040       30.911      861.544
08/31/2013  13:59:00       24.924       -6.072       28.543       28.916       21.012       27.938      836.151      441.493      780.544        0.177        0.103       25.653       16.402        0.409      349.887       30.644      861.515
08/31/2013  14:00:00       44.927      -38.293      -10.978       24.216       25.414       16.992      586.428      645.871      288.744        0.256        0.076       59.032       12.748        0.047      349.449       29.885      861.484
08/31/2013  14:01:00       43.191      -28.400      -11.098       29.429       20.070       21.120      866.058      402.796      446.072        0.225        0.086       51.692       11.368        0.048      349.171       29.403      861.464
08/31/2013  14:02:00       46.503       -0.861       18.719       33.180       39.459       32.170     1100.926     1557.009     1034.905        0.310        0.185       46.511       24.275        0.272      349.419       29.833      861.452
08/31/2013  14:03:00       61.667      -58.682       16.707       64.649       70.494       43.209     4179.513     4969.395     1867.045        0.927        0.551       85.126       23.932        0.079      350.029       30.891      861.431
08/31/2013  14:04:00       70.798      -83.293       12.896       43.902       57.562       42.114     1927.372     3313.384     1773.592        0.956        0.351      109.316       35.186        0.104      350.232       31.243      861.418
08/31/2013  14:05:00       30.031      -23.517       25.002       41.657       57.571       45.553     1735.330     3314.416     2075.118        0.460        0.356       38.144       37.148        0.948      350.577       31.844      861.410
08/31/2013  14:06:00       16.265       39.249       38.399       30.573       29.088       35.950      934.708      846.134     1292.407        0.318        0.154       42.486       21.688        0.261      350.097       31.010      861.393
08/31/2013  14:07:00       40.389       35.242        6.809       12.992       15.004       20.179      168.782      225.122      407.197        0.186        0.040       53.603        6.960        0.017      349.807       30.507      861.372
08/31/2013  14:08:00       30.019       35.055        6.372       26.406       16.419       23.267      697.260      269.583      541.355        0.184        0.075       46.152       14.035        0.092      349.772       30.446      861.359
08/31/2013  14:09:00       25.644       25.240       13.725       25.735       17.221       20.040      662.269      296.547      401.602        0.142        0.068       35.982       11.201        0.097      349.913       30.691      861.328
08/31/2013  14:10:00       33.834       31.905       -0.459       45.392       88.546       35.243     2060.423     7840.365     1242.059        0.665        0.557       46.504       39.941        0.738      350.019       30.875      861.295
08/31/2013  14:11:00       11.179      119.969       -2.267       42.612       60.464       39.825     1815.781     3655.935     1586.029        1.079        0.353      120.488       35.750        0.088      350.446       31.617      861.277
08/31/2013  14:12:00       51.682       73.195        8.951       38.989       65.133       45.860     1520.119     4242.249     2103.102        0.799        0.393       89.602       39.137        0.191      350.547       31.792      861.243
08/31/2013  14:13:00        3.976       61.521        3.419       29.474       46.286       33.084      868.732     2142.427     1094.544        0.396        0.205       61.649       22.408        0.132      350.519       31.744      861.227
08/31/2013  14:14:00       60.144      -18.513      -12.471       39.400       23.499       23.364     1552.355      552.222      545.867        0.338        0.133       62.929       18.404        0.086      349.816       30.521      861.207
08/31/2013  14:15:00       60.579       -0.606       15.166       31.742       55.409       33.873     1007.543     3070.188     1147.390        0.456        0.261       60.582       27.522        0.206      349.690       30.303      861.189
08/31/2013  14:16:00       94.975       13.115       24.087       59.288       72.713       37.541     3515.026     5287.238     1409.297        0.999        0.511       95.876       36.581        0.146      350.230       31.241      861.168
08/31/2013  14:17:00      116.224       77.134       29.109       76.291       42.064       56.072     5820.369     1769.417     3144.085        1.552        0.537      139.491       26.013        0.035      350.628       31.933      861.145
08/31/2013  14:18:00      113.959       59.882       14.819       69.234       65.956       43.904     4793.325     4350.254     1927.558        1.393        0.554      128.734       21.769        0.029      350.739       32.126      861.123
08/31/2013  14:19:00       85.010       35.309       30.316       59.168       59.375       46.426     3500.833     3525.426     2155.416        0.929        0.459       92.052       26.227        0.081      350.748       32.142      861.102
08/31/2013  14:20:00       38.467       19.994       14.309       44.437       50.456       44.799     1974.656     2545.760     2006.924        0.430        0.326       43.353       31.143        0.516      350.623       31.925      861.077
08/31/2013  14:21:00       97.034       66.637       39.693       46.147       38.122       40.269     2129.571     1453.289     1621.586        1.032        0.260      117.711       19.782        0.028      350.279       31.327      861.048
08/31/2013  14:22:00       18.382      -14.081       31.453       26.799       39.111       30.911      718.207     1529.663      955.511        0.236        0.160       23.155       19.001        0.673      350.773       32.187      861.028
08/31/2013  14:23:00      106.283      -31.952       36.610       89.575      108.919       66.738     8023.619    11863.246     4454.013        1.899        1.217      110.982       70.074        0.399      350.447       31.618      860.981
08/31/2013  14:24:00       83.871     -159.686        9.958       83.175      101.452       66.118     6918.103    10292.516     4371.613        2.710        1.079      180.372       57.832        0.103      350.629       31.933      860.990
08/31/2013  14:25:00      126.157     -168.415        1.762      100.183      135.995       81.839    10036.698    18494.607     6697.589        3.975        1.761      210.426       97.869        0.216      350.586       31.858      860.982
08/31/2013  14:26:00       41.979     -161.408      -16.925       84.139       94.204       55.028     7079.391     8874.467     3028.087        2.354        0.949      166.777       57.629        0.119      350.375       31.491      860.974
08/31/2013  14:27:00      123.339     -164.840      -20.768      108.771      122.287       86.861    11831.184    14954.057     7544.840        3.857        1.717      205.876       84.378        0.168      350.538       31.774      860.950
08/31/2013  14:28:00      121.231     -108.289       -3.955      102.541      141.983       99.897    10514.594    20159.148     9979.377        3.354        2.033      162.553      109.290        0.452      350.567       31.826      860.927
08/31/2013  14:29:00      116.774     -164.038      -18.934      135.458      161.607       93.500    18348.984    26116.745     8742.171        4.704        2.660      201.357      111.560        0.307      350.641       31.953      860.912
08/31/2013  14:30:00        4.279       59.533       98.749       38.923       75.121       44.581     1515.035     5643.127     1987.504        1.123        0.457       59.687       39.568        0.439      350.266       31.305      860.921
08/31/2013  14:31:00       65.881       17.162       51.094       58.910       44.776       34.996     3470.403     2004.890     1224.691        0.697        0.335       68.080       36.145        0.282      350.009       30.857      860.906
08/31/2013  14:32:00       44.957       -1.127       10.995       28.297       41.179       25.412      800.730     1695.710      645.745        0.264        0.157       44.971       17.427        0.150      350.171       31.138      860.875
08/31/2013  14:33:00       61.728      -45.900       21.212       57.329       67.836       40.491     3286.644     4601.757     1639.552        0.795        0.476       76.923       41.952        0.297      350.360       31.468      860.852
08/31/2013  14:34:00       75.056      -53.409       36.968       82.720      125.652       73.837     6842.550    15788.524     5451.885        1.896        1.404       92.119       87.268        0.897      350.695       32.050      860.823
08/31/2013  14:35:00       25.321      -96.334       -1.500       29.668       69.766       25.569      880.192     4867.233      653.786        0.816        0.320       99.606       19.038        0.037      350.421       31.572      860.819
08/31/2013  14:36:00       35.738       16.197       24.273       33.050       34.892       22.001     1092.292     1217.478      484.060        0.246        0.140       39.237       15.698        0.160      350.568       31.828      860.794
08/31/2013  14:37:00       -5.734      -29.211       -4.107       52.762       36.887       38.893     2783.833     1360.680     1512.657        0.328        0.283       29.768       26.738        0.807      350.513       31.734      860.775
08/31/2013  14:38:00       84.303       38.330       37.100       53.473       41.174       35.857     2859.347     1695.304     1285.758        0.790        0.292       92.607       24.319        0.069      349.963       30.778      860.750
08/31/2013  14:39:00      106.669       72.506       93.401       78.508      114.819       72.717     6163.494    13183.288     5287.702        2.499        1.232      128.979       66.229        0.264      350.504       31.716      860.731
08/31/2013  14:40:00       71.415       95.659      100.716      118.272      122.923       77.771    13988.171    15110.002     6048.372        2.976        1.757      119.376       61.268        0.263      350.680       32.022      860.724
08/31/2013  14:41:00       98.179      141.285      138.078       83.174       99.567       76.011     6917.907     9913.671     5777.731        3.563        1.130      172.049       62.390        0.131      350.364       31.470      860.722
08/31/2013  14:42:00       22.105       45.529       96.906       43.843       82.439       42.017     1922.250     6796.141     1765.458        1.122        0.524       50.611       46.674        0.850      350.551       31.799      860.723
08/31/2013  14:43:00      178.725      165.688       50.153       61.678       61.329       60.237     3804.174     3761.241     3628.496        3.655        0.560      243.712       40.138        0.027      350.405       31.542      860.681
08/31/2013  14:44:00      128.860       79.838       33.074       58.137       46.824       42.254     3379.866     2192.524     1785.414        1.571        0.368      151.588       19.928        0.017      350.662       31.991      860.664
08/31/2013  14:45:00       68.848       41.887       73.666       78.868       63.746       52.923     6220.183     4063.507     2800.873        1.250        0.654       80.589       44.385        0.303      350.366       31.477      860.665
08/31/2013  14:46:00       85.693       -3.765       42.755      100.529       72.816       54.903    10105.990     5302.170     3014.383        1.380        0.921       85.776       64.508        0.566      350.699       32.057      860.649
08/31/2013  14:47:00       34.366      -82.465       33.446       89.395      105.135       61.863     7991.551    11053.449     3827.079        1.598        1.144       89.339       64.126        0.515      350.981       32.547      860.631
08/31/2013  14:48:00       84.441      112.082      131.655       96.838       74.481       65.122     9377.637     5547.458     4240.876        2.809        0.958      140.330       50.044        0.127      350.487       31.686      860.626
08/31/2013  14:49:00       91.790       23.079       62.201       75.134       61.267       55.013     5645.115     3753.675     3026.381        1.262        0.621       94.647       43.455        0.211      350.308       31.377      860.628
08/31/2013  14:50:00       55.375      -95.095       49.774       98.256      132.714       85.466     9654.167    17612.989     7304.481        2.457        1.729      110.042       82.989        0.569      350.727       32.102      860.601
08/31/2013  14:51:00       61.666       22.085       52.927       74.896      128.280       80.872     5609.428    16455.795     6540.269        1.784        1.430       65.502       80.544        1.512      350.647       31.965      860.601
08/31/2013  14:52:00      141.956      108.916       74.853       96.508       66.590       64.478     9313.735     4434.284     4157.388        2.776        0.895      178.925       50.595        0.080      350.172       31.138      860.603
08/31/2013  14:53:00       97.944       68.368       50.946       70.997       43.462       42.968     5040.629     1888.959     1846.211        1.282        0.439      119.446       43.029        0.130      350.245       31.267      860.597
08/31/2013  14:54:00      104.545       80.277       61.705       56.098       56.165       62.958     3146.943     3154.548     3963.696        1.572        0.513      131.811       48.835        0.137      350.314       31.386      860.587
08/31/2013  14:55:00       49.079       -7.849       15.577       62.498       64.159       45.455     3906.031     4116.356     2066.167        0.640        0.504       49.703       47.165        0.900      350.150       31.103      860.563
08/31/2013  14:56:00       74.446       -9.887       20.756       44.823       39.006       39.837     2009.100     1521.455     1587.005        0.559        0.256       75.099       22.789        0.092      350.019       30.874      860.550
08/31/2013  14:57:00       43.912      -52.232       -0.072       41.981       55.371       32.103     1762.418     3065.988     1030.621        0.526        0.293       68.238       34.740        0.259      350.365       31.477      860.535
08/31/2013  14:58:00      108.681       54.070       20.019       75.767       51.934       47.811     5740.579     2697.122     2285.919        1.293        0.536      121.389        8.168        0.005      350.592       31.870      860.521
08/31/2013  14:59:00      167.935       81.107       22.177       75.948       51.948       57.440     5768.130     2698.595     3299.385        2.352        0.588      186.495       20.403        0.012      350.645       31.961      860.509
08/31/2013  15:00:00      149.362      117.664       11.150       52.446       53.845       39.331     2750.557     2899.325     1546.957        2.174        0.360      190.141       24.753        0.017      350.585       31.855      860.498
08/31/2013  15:01:00      154.856      108.195       13.899       73.124       41.274       46.514     5347.094     1703.561     2163.595        2.255        0.461      188.909       12.986        0.005      350.578       31.843      860.493
08/31/2013  15:02:00       90.562       84.590        1.637       69.513       51.886       48.555     4832.075     2692.154     2357.607        1.262        0.494      123.923       38.123        0.095      350.463       31.646      860.495
08/31/2013  15:03:00       48.584       39.655       23.122       63.251       31.097       31.507     4000.706      967.031      992.678        0.521        0.298       62.713       24.221        0.149      350.860       32.337      860.497
08/31/2013  15:04:00       43.048       40.036       21.839       46.444       35.823       33.772     2157.000     1283.273     1140.535        0.426        0.229       58.788       28.113        0.229      350.799       32.231      860.486
08/31/2013  15:05:00       25.940       30.111        8.815       45.349       33.990       33.865     2056.510     1155.344     1146.822        0.301        0.218       39.744       22.399        0.318      351.104       32.762      860.478
08/31/2013  15:06:00       66.014       44.557        6.931       34.851       31.196       23.709     1214.579      973.211      562.104        0.457        0.137       79.644       12.399        0.024      350.786       32.208      860.468
08/31/2013  15:07:00       10.632       45.715        6.907       36.238       42.497       24.065     1313.188     1806.034      579.127        0.297        0.185       46.935       22.380        0.227      350.962       32.515      860.457
08/31/2013  15:08:00      -59.673     -129.092      -13.081       51.498       59.096       21.892     2651.997     3492.393      479.263        1.351        0.331      142.216       19.173        0.018      350.748       32.140      860.447
08/31/2013  15:09:00      -37.591     -181.703       -3.893       28.974       48.795       26.147      839.521     2380.984      683.642        1.917        0.195      185.551       25.518        0.019      350.659       31.988      860.426
08/31/2013  15:10:00       24.726      -92.292       41.274       48.302      103.400       42.511     2333.059    10691.509     1807.143        1.283        0.742       95.547       47.279        0.245      351.021       32.616      860.409
08/31/2013  15:11:00     -121.402      -52.541       11.962       63.224       46.592       41.308     3997.247     2170.793     1706.325        1.276        0.394      132.283       43.402        0.108      350.866       32.347      860.397
08/31/2013  15:12:00      -53.808        9.012        4.883       56.790       40.370       30.262     3225.149     1629.765      915.791        0.438        0.289       54.558       34.788        0.407      350.990       32.564      860.383
08/31/2013  15:13:00      -11.712       79.996       -0.530       25.192       42.187       22.771      634.625     1779.701      518.509        0.473        0.147       80.849       24.824        0.094      350.590       31.867      860.360
08/31/2013  15:14:00       34.435       34.810       11.941       26.608       31.099       27.144      707.976      967.150      736.779        0.248        0.121       48.964       23.669        0.234      350.927       32.454      860.332
08/31/2013  15:15:00       -7.274       84.347       10.755       50.626       42.662       35.857     2563.035     1820.083     1285.719        0.647        0.283       84.661       28.287        0.112      351.038       32.648      860.294
08/31/2013  15:16:00      -81.368       -4.789       -2.707       58.004       49.046       26.015     3364.425     2405.461      676.765        0.655        0.322       81.509       30.191        0.137      351.263       33.038      860.296
08/31/2013  15:17:00      -81.214      -33.903       23.195       84.007      108.916       55.255     7057.199    11862.691     3053.119        1.512        1.099       88.007       46.897        0.284      351.371       33.228      860.277
08/31/2013  15:18:00     -239.419      -52.835      -13.577      203.587      101.909       50.168    41447.576    10385.394     2516.870        5.731        2.717      245.180       67.046        0.075      351.165       32.867      860.259
08/31/2013  15:19:00     -347.823      -81.197      -27.322      146.364      104.179       63.569    21422.358    10853.223     4041.036        8.231        1.816      357.175       62.407        0.031      350.867       32.345      860.229
08/31/2013  15:20:00     -139.556     -139.962        7.458      132.645      133.603       63.975    17594.647    17849.810     4092.835        3.932        1.977      197.649       56.348        0.081      351.091       32.737      860.224
08/31/2013  15:21:00     -287.058      -89.344      -14.213      156.877      150.621       69.045    24610.356    22686.798     4767.277        7.132        2.603      300.641       66.005        0.048      351.124       32.793      860.198
08/31/2013  15:22:00     -399.977     -110.884      -13.638      189.503      168.660       69.695    35911.214    28446.162     4857.461       12.082        3.461      415.063       71.708        0.030      350.916       32.430      860.198
08/31/2013  15:23:00     -142.050     -153.709       13.584      108.737      119.746       57.463    11823.821    14339.034     3301.974        3.672        1.473      209.296       60.197        0.083      350.957       32.504      860.214
08/31/2013  15:24:00     -172.234     -184.958       16.531      112.592      135.345       64.230    12676.859    18318.146     4125.534        4.963        1.756      252.733       59.780        0.056      350.990       32.560      860.209
08/31/2013  15:25:00     -193.309     -235.679       -5.024      118.903      142.869       72.657    14137.835    20411.455     5279.029        6.638        1.991      304.817       68.135        0.050      351.033       32.634      860.195
08/31/2013  15:26:00     -263.928     -113.703      -16.852      175.936      149.063       87.341    30953.576    22219.630     7628.382        7.182        3.040      287.378       93.172        0.105      351.132       32.808      860.199
08/31/2013  15:27:00     -204.876     -177.731        8.661      178.692      101.379       75.774    31930.773    10277.654     5741.742        6.078        2.398      271.224       90.070        0.110      350.823       32.270      860.206
08/31/2013  15:28:00     -328.281       87.400      -34.417      197.095      129.481       73.172    38846.551    16765.425     5354.107        8.877        3.048      339.716       88.834        0.068      351.015       32.604      860.181
08/31/2013  15:29:00     -270.510       41.894       15.349      205.157      140.289       77.663    42089.531    19680.905     6031.531        7.147        3.390      273.735       92.748        0.115      351.089       32.732      860.145
08/31/2013  15:30:00     -108.073      -35.738       14.576      107.958       96.165       58.985    11654.883     9247.765     3479.181        1.877        1.219      113.829       55.288        0.236      351.183       32.900      860.134
08/31/2013  15:31:00     -134.778      -93.254        3.615      190.154      105.473       53.790    36158.354    11124.597     2893.376        3.852        2.509      163.894       62.982        0.148      351.171       32.876      860.112
08/31/2013  15:32:00     -357.656     -198.778       -4.216      194.183      164.496       85.934    37706.906    27058.798     7384.643       11.979        3.608      409.183       80.261        0.038      351.023       32.618      860.076
08/31/2013  15:33:00     -386.869     -152.531       -4.948      238.448      177.769       86.836    56857.678    31601.766     7540.519       13.446        4.800      415.853       96.626        0.054      351.073       32.705      860.098
08/31/2013  15:34:00     -332.509     -139.013        9.125      277.484      153.709       93.994    76997.161    23626.587     8834.853       11.969        5.473      360.398      125.100        0.120      350.983       32.550      860.145
08/31/2013  15:35:00     -235.112      -81.909        9.856      251.683       95.164       94.978    63344.580     9056.241     9020.836        7.174        4.071      248.971      131.066        0.277      351.067       32.696      860.196
08/31/2013  15:36:00     -125.396      -62.794       10.114      174.555      106.209       65.820    30469.588    11280.266     4332.220        3.292        2.304      140.240       78.378        0.312      351.100       32.754      860.222
08/31/2013  15:37:00     -134.755     -118.636        7.323      105.984       90.770       57.028    11232.550     8239.250     3252.239        2.750        1.136      179.537       56.138        0.098      350.856       32.328      860.215
08/31/2013  15:38:00     -243.888     -113.658       -6.638      111.443      106.255       53.916    12419.607    11290.057     2906.972        4.952        1.331      269.072       52.094        0.037      350.774       32.184      860.198
08/31/2013  15:39:00     -186.257     -108.390       -1.080      124.125       80.158       67.952    15407.040     6425.250     4617.465        3.644        1.322      215.500       71.806        0.111      350.746       32.134      860.172
08/31/2013  15:40:00     -222.901      -44.794       -6.003      103.022       76.737       39.882    10613.504     5888.531     1590.535        3.491        0.905      227.358       44.026        0.037      350.729       32.108      860.166
08/31/2013  15:41:00     -458.635      -13.819      -36.664      142.952      123.266       67.159    20435.232    15194.474     4510.302       12.600        2.007      458.843       64.683        0.020      350.951       32.492      860.130
08/31/2013  15:42:00     -369.598      -40.553      -26.257      134.557      106.890       52.956    18105.615    11425.477     2804.367        8.563        1.617      371.816       58.484        0.025      351.016       32.604      860.141
08/31/2013  15:43:00     -434.490     -104.175      -22.317      193.350      119.588       81.374    37384.389    14301.313     6621.647       12.921        2.915      446.804       95.577        0.046      350.930       32.454      860.119
08/31/2013  15:44:00     -300.752      -14.534      -11.566      164.664      160.751       93.088    27114.260    25840.786     8665.361        7.620        3.081      301.103       80.747        0.072      351.068       32.696      860.134
08/31/2013  15:45:00     -240.660     -112.879       13.536      160.782      134.794       84.394    25850.942    18169.352     7122.291        6.098        2.557      265.818       88.155        0.110      350.866       32.345      860.120
08/31/2013  15:46:00     -327.446     -132.602        3.568      157.098      121.175       73.825    24679.769    14683.449     5450.137        8.481        2.241      353.276       83.720        0.056      350.985       32.550      860.126
08/31/2013  15:47:00     -259.846     -196.793       -0.172      153.909      115.588       77.958    23687.998    13360.545     6077.520        7.468        2.156      325.956       88.868        0.074      350.846       32.309      860.113
08/31/2013  15:48:00     -238.463     -204.713        5.901      132.551      124.608       84.092    17569.770    15527.063     7071.467        6.948        2.008      314.280       78.635        0.063      350.861       32.336      860.096
08/31/2013  15:49:00     -246.002     -181.525      -13.103      134.812       91.344       67.576    18174.219     8343.787     4566.489        6.236        1.554      305.726       73.307        0.057      350.732       32.111      860.090
08/31/2013  15:50:00     -159.522     -110.604        1.426      126.388       90.013       54.194    15973.855     8102.365     2936.950        3.234        1.351      194.114       67.742        0.122      350.884       32.375      860.078
08/31/2013  15:51:00     -207.075      -14.784      -14.497      145.548       64.611       44.197    21184.262     4174.602     1953.408        3.531        1.366      207.602       51.305        0.061      351.134       32.812      860.074
08/31/2013  15:52:00     -204.406     -159.589       13.383      165.085      151.421       74.172    27253.010    22928.173     5501.543        6.155        2.784      259.327       67.617        0.068      350.965       32.519      860.078
08/31/2013  15:53:00     -208.060     -199.899       -0.091      182.938      121.291       79.354    33466.443    14711.487     6297.108        6.885        2.724      288.529       94.007        0.106      350.632       31.937      860.069
08/31/2013  15:54:00     -155.427     -116.750       -6.646      108.590      111.128       46.943    11791.779    12349.450     2203.634        3.208        1.317      194.392       53.164        0.075      350.845       32.309      860.055
08/31/2013  15:55:00     -105.211     -175.985       -1.682      115.636      184.800       49.193    13371.607    34151.076     2419.960        4.598        2.497      205.037       30.178        0.022      350.792       32.216      860.045
08/31/2013  15:56:00      -35.199      -35.885       13.351       59.436       94.842       49.546     3532.686     8995.021     2454.800        0.884        0.749       50.266       48.263        0.922      350.871       32.355      860.036
08/31/2013  15:57:00      -86.745       -1.028        7.244       82.409       48.248       38.154     6791.194     2327.832     1455.755        0.907        0.529       86.751       34.958        0.162      351.003       32.587      860.052
08/31/2013  15:58:00     -107.652       71.181        2.400       99.054      112.446       48.255     9811.778    12644.174     2328.517        2.072        1.239      129.057       45.310        0.123      350.981       32.546      859.997
08/31/2013  15:59:00     -130.614       71.851      -17.969       75.753      104.009       54.560     5738.544    10817.823     2976.760        2.104        0.977      149.072       52.003        0.122      351.086       32.728      859.982
08/31/2013  16:00:00      -85.386       21.075        0.727       68.210       76.835       44.722     4652.580     5903.652     2000.078        1.014        0.628       87.948       42.627        0.235      351.352       33.193      859.997
08/31/2013  16:01:00     -424.862     -132.683      -21.714      219.673      158.415       78.453    48256.336    25095.452     6154.913       13.903        3.975      445.099       93.836        0.044      351.116       32.779      859.964
08/31/2013  16:02:00     -558.489       -3.870      -61.123      237.775      190.863       90.918    56537.082    36428.741     8266.132       20.843        5.062      558.503       69.961        0.016      350.890       32.386      859.958
08/31/2013  16:03:00     -455.943     -121.955      -38.629      164.127      134.536       66.483    26937.745    18099.807     4419.988       13.684        2.473      471.971       64.869        0.019      350.741       32.125      860.003
08/31/2013  16:04:00     -241.321      -58.252       -1.819      111.907      108.915       57.430    12523.143    11862.422     3298.229        4.465        1.384      248.252       57.831        0.054      350.867       32.346      859.994
08/31/2013  16:05:00     -146.512      -37.629        7.785      144.011       93.095       57.737    20739.108     8666.756     3333.618        2.783        1.637      151.267       76.637        0.257      350.936       32.466      859.971
08/31/2013  16:06:00      -78.474      -32.915       38.354      112.063       92.577       61.061    12558.166     8570.422     3728.474        1.678        1.243       85.097       67.267        0.625      351.041       32.651      859.966
08/31/2013  16:07:00     -214.904       49.856       -2.338      205.477      120.686       75.758    42220.601    14565.081     5739.230        5.559        3.126      220.611       74.573        0.114      351.064       32.688      859.988
08/31/2013  16:08:00     -376.992       -8.602      -38.280      158.036      106.918       62.458    24975.412    11431.460     3900.967        9.198        2.015      377.090       66.102        0.031      351.127       32.799      859.995
08/31/2013  16:09:00     -324.550       33.612      -31.192      103.734       90.295       52.249    10760.751     8153.131     2729.935        6.454        1.082      326.286       42.521        0.017      351.000       32.577      859.982
08/31/2013  16:10:00     -143.991       38.781      -26.382       90.825      154.400       62.933     8249.092    23839.436     3960.508        2.948        1.802      149.122       53.837        0.130      351.083       32.723      859.957
08/31/2013  16:11:00      -57.415        9.716       22.469       79.008       85.751       53.702     6242.255     7353.290     2883.920        1.018        0.824       58.231       52.171        0.803      351.219       32.962      859.975
08/31/2013  16:12:00     -359.948      -88.502      -18.706      273.640      156.221       71.740    74879.119    24404.893     5146.560       12.107        5.222      370.668       92.491        0.062      350.998       32.575      859.957
08/31/2013  16:13:00     -542.087     -111.083      -17.976      224.032      166.726       78.912    50190.264    27797.716     6227.149       19.535        4.211      553.351       87.709        0.025      350.768       32.174      859.958
08/31/2013  16:14:00     -475.897      -42.866      -47.634      150.092      108.140       54.964    22527.665    11694.273     3021.026       13.391        1.862      477.824       66.042        0.019      350.698       32.052      859.995
08/31/2013  16:15:00     -175.568        8.211      -11.790      110.458      117.388       49.404    12201.046    13779.855     2440.741        2.972        1.421      175.760       48.704        0.077      350.870       32.353      859.962
08/31/2013  16:16:00     -257.886      -52.440       -8.451      157.905      125.746       60.965    24933.835    15812.097     3716.785        5.689        2.223      263.164       61.004        0.054      351.007       32.590      859.931
08/31/2013  16:17:00     -114.466       58.522        3.783       97.607      109.284       55.211     9527.151    11942.930     3048.240        2.053        1.226      128.558       48.746        0.144      350.949       32.492      859.950
08/31/2013  16:18:00     -185.872      -45.487      -18.752       95.814       79.651       52.957     9180.305     6344.325     2804.433        2.765        0.916      191.357       34.674        0.033      351.139       32.820      859.949
08/31/2013  16:19:00     -488.002       17.498      -35.102      181.674      158.587       81.255    33005.390    25149.769     6602.452       15.221        3.238      488.315       73.406        0.023      350.898       32.400      859.964
08/31/2013  16:20:00     -243.002      -50.591       -8.488      104.983      109.102       63.744    11021.371    11903.306     4063.295        4.433        1.349      248.212       57.519        0.054      350.869       32.350      859.945
08/31/2013  16:21:00     -371.438      -40.039      -15.992      235.168      118.356       67.120    55304.151    14008.151     4505.111       10.681        3.691      373.590       90.011        0.058      350.779       32.194      859.939
08/31/2013  16:22:00     -470.381     -119.231      -44.590      120.254      170.291       60.260    14460.967    28999.187     3631.276       14.227        2.355      485.257       49.685        0.010      350.783       32.201      859.924
08/31/2013  16:23:00     -116.527      -39.805       15.646      132.239       68.899       58.890    17487.162     4747.076     3468.017        2.055        1.285      123.138       31.704        0.066      350.815       32.259      859.926
08/31/2013  16:24:00     -292.345     -142.119      -16.266      185.556      124.682       70.394    34431.161    15545.547     4955.367        8.042        2.747      325.059       73.140        0.051      350.911       32.423      859.924
08/31/2013  16:25:00     -264.934       26.698       -7.846      152.556      155.182       78.183    23273.202    24081.388     6112.643        6.220        2.673      266.276       70.268        0.070      350.986       32.553      859.896
08/31/2013  16:26:00     -373.173     -116.856      -12.200      206.254      154.912       95.854    42540.550    23997.766     9188.057       11.438        3.786      391.042      107.303        0.075      350.906       32.412      859.908
08/31/2013  16:27:00     -221.441     -155.112        3.589      150.430      160.215       78.332    22629.192    25668.887     6135.906        6.376        2.722      270.363       67.531        0.062      350.818       32.260      859.925
08/31/2013  16:28:00     -280.929     -100.856        3.663      170.316      120.558       68.572    29007.600    14534.155     4702.088        6.867        2.412      298.484       87.764        0.086      350.859       32.332      859.925
08/31/2013  16:29:00     -297.803     -107.935        0.237      208.467      146.673       88.456    43458.331    21512.853     7824.537        8.655        3.640      316.759      107.656        0.116      350.782       32.199      859.921
08/31/2013  16:30:00     -329.966     -207.100      -12.158      226.813      174.447       99.069    51443.935    30431.796     9814.594       12.178        4.585      389.574      121.769        0.098      350.729       32.105      859.883
08/31/2013  16:31:00     -317.468     -144.381      -26.496      182.813      201.260       73.795    33420.697    40505.694     5445.686       10.084        3.969      348.757       80.753        0.054      350.793       32.216      859.920
08/31/2013  16:32:00     -380.288      -25.563      -27.503      173.707      149.795       85.671    30174.257    22438.499     7339.450       10.298        2.998      381.146       89.403        0.055      350.860       32.335      859.953
08/31/2013  16:33:00     -222.513      -89.533        4.059      165.745      132.073       66.696    27471.261    17443.205     4448.373        5.344        2.468      239.850       81.000        0.114      350.990       32.561      859.951
08/31/2013  16:34:00     -473.111      -77.611      -24.711      184.591      138.494       76.375    34073.709    19180.617     5833.173       14.477        2.954      479.434       84.646        0.031      350.673       32.008      859.950
08/31/2013  16:35:00     -393.866      -13.354      -15.079      202.196      154.036       71.123    40883.336    23727.176     5058.457       11.259        3.483      394.093       69.583        0.031      350.735       32.116      859.937
08/31/2013  16:36:00     -283.652      -18.647      -18.111      152.849      115.735       55.742    23362.931    13394.513     3107.217        6.049        1.993      284.264       60.256        0.045      350.833       32.288      859.910
08/31/2013  16:37:00     -342.495      -91.232      -23.953      182.699      145.712       68.925    33378.780    21232.064     4750.593        9.277        2.968      354.438       64.406        0.033      350.937       32.469      859.900
08/31/2013  16:38:00     -510.398     -176.873      -30.394      138.839      116.808       64.839    19276.195    13644.176     4204.145       16.491        1.856      540.176       63.574        0.014      350.663       31.990      859.891
08/31/2013  16:39:00     -380.839     -140.920      -18.266      203.711      135.435       84.770    41498.354    18342.686     7185.972       11.612        3.351      406.075      101.050        0.062      350.671       32.005      859.917
08/31/2013  16:40:00     -296.124     -175.121        2.509      171.300      144.031       70.597    29343.747    20745.002     4983.922        8.671        2.754      344.031       79.814        0.054      350.702       32.059      859.907
08/31/2013  16:41:00     -343.012     -183.745      -12.356      179.074      139.871       69.140    32067.450    19563.994     4780.296       10.398        2.821      389.127       76.304        0.038      350.709       32.071      859.931
08/31/2013  16:42:00     -267.075     -198.590      -11.914      240.176      170.366       98.395    57684.724    29024.691     9681.605       10.363        4.820      332.817      112.590        0.114      350.749       32.140      859.912
08/31/2013  16:43:00     -410.419     -171.836      -14.048      221.673      182.631       96.760    49139.079    33354.007     9362.492       14.499        4.593      444.940      102.060        0.053      350.649       31.965      859.907
08/31/2013  16:44:00     -418.278      -61.016        0.537      171.041      151.838       80.819    29254.956    23054.768     6531.695       11.875        2.942      422.705       89.745        0.045      350.641       31.952      859.918
08/31/2013  16:45:00     -553.662     -121.204      -33.117      169.925      155.523       74.795    28874.427    24187.544     5594.229       19.048        2.933      566.774       73.063        0.017      350.529       31.758      859.919
08/31/2013  16:46:00     -437.438     -111.432      -15.157      198.292      133.711       90.159    39319.747    17878.582     8128.582       13.465        3.266      451.408      101.135        0.050      350.538       31.771      859.931
08/31/2013  16:47:00     -305.311     -144.836        7.930      172.807      163.196       81.310    29862.164    26633.031     6611.333        8.867        3.155      337.923       82.728        0.060      350.637       31.945      859.933
08/31/2013  16:48:00     -318.490      -55.913       -4.139      229.202      126.635       90.796    52533.650    16036.323     8243.952        9.068        3.841      323.360      101.968        0.099      350.683       32.026      859.936
08/31/2013  16:49:00     -171.641      -11.634       18.954      136.599      124.067       59.950    18659.289    15392.642     3593.955        3.379        1.882      172.035       62.084        0.130      350.742       32.128      859.953
08/31/2013  16:50:00     -148.082     -109.955        3.699      174.296      106.193       70.578    30378.957    11277.032     4981.275        4.033        2.332      184.441       87.644        0.226      350.729       32.106      859.923
08/31/2013  16:51:00     -343.627      -19.509      -13.981      119.606       85.897       58.587    14305.623     7378.337     3432.391        7.188        1.256      344.180       63.993        0.035      350.635       31.941      859.904
08/31/2013  16:52:00     -194.229      -56.394       -5.741      129.112      106.717       52.485    16669.929    11388.473     2754.638        3.587        1.541      202.250       58.625        0.084      350.616       31.909      859.871
08/31/2013  16:53:00     -291.014       22.974      -40.978      142.194      105.601       67.321    20219.154    11151.567     4532.102        6.139        1.795      291.920       68.425        0.055      350.786       32.204      859.876
08/31/2013  16:54:00     -372.273      -16.266      -34.478      166.717      128.980       72.537    27794.562    16635.908     5261.589        9.486        2.485      372.628       78.899        0.045      350.707       32.069      859.881
08/31/2013  16:55:00     -269.783      -99.684      -20.711      129.429       76.068       43.478    16751.964     5786.391     1890.361        5.378        1.221      287.610       35.025        0.015      350.715       32.080      859.871
08/31/2013  16:56:00     -298.550      -95.721      -19.325      142.132      111.232       54.719    20201.572    12372.668     2994.195        6.711        1.778      313.519       44.939        0.021      350.769       32.175      859.871
08/31/2013  16:57:00     -511.161     -145.608      -27.191      159.267      154.745       68.030    25365.996    23945.932     4628.118       16.857        2.697      531.496       77.058        0.021      350.616       31.908      859.869
08/31/2013  16:58:00     -376.756     -183.937       -9.215      160.940      119.573       77.437    25901.789    14297.754     5996.545       11.102        2.310      419.258       75.039        0.032      350.630       31.933      859.877
08/31/2013  16:59:00     -309.318     -110.097      -12.156      148.742      111.405       68.277    22124.074    12411.067     4661.681        7.356        1.960      328.327       82.194        0.063      350.615       31.907      859.893
08/31/2013  17:00:00     -247.672      -89.093       11.409      165.064      100.029       53.625    27246.167    10005.751     2875.677        5.476        2.006      263.209       66.191        0.063      350.670       32.004      859.887
08/31/2013  17:01:00     -323.088      -84.560       -3.009      157.539       85.897       58.313    24818.498     7378.245     3400.381        7.356        1.780      333.970       61.584        0.034      350.724       32.098      859.865
08/31/2013  17:02:00     -504.882      -21.844      -15.474      195.327      161.966       95.855    38152.488    26232.966     9188.137       16.458        3.679      505.355       98.978        0.038      350.609       31.896      859.858
08/31/2013  17:03:00     -511.408     -130.710      -40.885      189.090      161.579       91.462    35755.056    26107.677     8365.267       17.525        3.511      527.848       99.737        0.036      350.569       31.828      859.872
08/31/2013  17:04:00     -426.865     -247.982      -21.452      248.213      143.144       84.075    61609.739    20490.159     7068.604       16.665        4.458      493.669       89.530        0.033      350.512       31.726      859.868
08/31/2013  17:05:00     -346.195     -138.898       -7.737      164.994      140.207       73.144    27223.153    19657.938     5350.003        9.571        2.612      373.019       75.258        0.041      350.592       31.866      859.888
08/31/2013  17:06:00     -493.250     -114.513      -15.654      133.418      136.416       75.295    17800.282    18609.386     5669.319       14.936        2.104      506.368       62.957        0.015      350.624       31.922      859.890
08/31/2013  17:07:00     -492.596     -100.317      -34.291      178.024      127.417       84.243    31692.651    16235.049     7096.899       15.445        2.751      502.707       84.311        0.028      350.633       31.939      859.903
08/31/2013  17:08:00     -428.925      -28.415      -26.925      244.016      160.085      106.928    59543.739    25627.225    11433.572       14.104        4.830      429.865      115.436        0.072      350.571       31.831      859.924
08/31/2013  17:09:00     -423.723      -75.816       -2.665      178.810      167.027       69.340    31972.872    27897.852     4808.067       12.497        3.234      430.453       62.428        0.021      350.390       31.516      859.930
08/31/2013  17:10:00     -290.843      -66.071       -4.745      113.606      132.735       59.418    12906.260    17618.649     3530.464        6.151        1.703      298.253       58.250        0.038      350.439       31.601      859.898
08/31/2013  17:11:00     -213.139       28.126      -12.997      122.512       90.062       59.983    15009.128     8111.074     3597.980        3.655        1.336      214.987       63.208        0.086      350.598       31.877      859.908
08/31/2013  17:12:00     -350.774      -72.246      -20.075      163.219      136.421       62.008    26640.404    18610.617     3845.033        8.887        2.455      358.137       73.155        0.042      350.505       31.715      859.867
08/31/2013  17:13:00     -146.658      -23.506       -3.501      107.244       91.874       71.703    11501.214     8440.787     5141.315        2.357        1.254      148.529       57.180        0.148      350.540       31.778      859.876
08/31/2013  17:14:00     -222.117      -96.590      -12.268      128.295       89.725       68.854    16459.489     8050.663     4740.872        4.403        1.463      242.210       62.660        0.067      350.611       31.900      859.877
08/31/2013  17:15:00     -284.671       -6.421      -13.187      117.227       89.888       57.208    13742.063     8079.804     3272.753        5.317        1.255      284.744       57.023        0.040      350.603       31.885      859.894
08/31/2013  17:16:00     -324.060      -28.599      -32.320      183.833      113.050       69.085    33794.410    12780.360     4772.770        7.910        2.567      325.319       90.076        0.077      350.582       31.849      859.917
08/31/2013  17:17:00     -493.424     -137.746      -52.640      174.945      154.144       77.774    30605.771    23760.366     6048.855       16.280        3.021      512.290       74.457        0.021      350.486       31.680      859.884
08/31/2013  17:18:00     -382.292      -59.407      -19.208      166.522      126.736       65.528    27729.736    16062.067     4293.897        9.906        2.404      386.880       74.770        0.037      350.523       31.747      859.905
08/31/2013  17:19:00     -281.978      -88.760      -15.935      235.172      253.023       83.013    55305.908    64020.453     6891.094       10.691        6.311      295.618      119.982        0.165      350.532       31.764      859.896
08/31/2013  17:20:00     -608.052     -173.254      -55.867      209.574      188.334       94.504    43921.127    35469.851     8931.010       24.558        4.416      632.253       87.478        0.019      350.433       31.590      859.869
08/31/2013  17:21:00     -433.417       31.206      -35.255      244.660      149.019       80.563    59858.524    22206.653     6490.374       13.929        4.428      434.539       85.587        0.039      350.455       31.627      859.851
08/31/2013  17:22:00     -389.191      -93.880      -27.160      169.953      138.984       77.303    28884.126    19316.690     5975.788       10.759        2.709      400.354       88.966        0.049      350.477       31.666      859.856
08/31/2013  17:23:00     -426.269     -141.385      -16.907      159.340      159.944       79.303    25389.234    25582.050     6288.932       12.961        2.863      449.105       72.314        0.026      350.435       31.593      859.863
08/31/2013  17:24:00     -238.623      -68.739       -9.052      127.830      109.883       56.667    16340.501    12074.229     3211.152        4.668        1.581      248.326       63.924        0.066      350.481       31.675      859.892
08/31/2013  17:25:00     -217.490      -58.030        5.751      154.482      100.727       66.758    23864.567    10146.024     4456.593        4.458        1.923      225.098       82.530        0.134      350.570       31.829      859.916
08/31/2013  17:26:00     -385.000     -216.174      -10.195      206.504      128.154       68.533    42643.936    16423.482     4696.723       12.940        3.188      441.539       72.214        0.027      350.353       31.451      859.918
08/31/2013  17:27:00     -347.015     -190.323       -5.739      185.360      167.838       90.554    34358.476    28169.477     8200.095       11.369        3.536      395.781       97.688        0.061      350.453       31.625      859.921
08/31/2013  17:28:00     -421.371      -89.512       -4.315      208.444      158.216       79.918    43449.031    25032.384     6386.943       13.021        3.743      430.774       94.583        0.048      350.367       31.476      859.927
08/31/2013  17:29:00     -368.369     -214.416       -7.213      208.640      175.506      101.227    43530.704    30802.194    10246.969       13.313        4.229      426.227      110.306        0.067      350.293       31.346      859.947
08/31/2013  17:30:00     -179.375     -118.014       29.576      186.821      168.867       80.118    34902.043    28515.910     6418.827        5.839        3.492      214.716       85.870        0.160      350.334       31.419      859.956
08/31/2013  17:31:00     -339.337      -74.192       -3.016      220.441      136.872       81.715    48594.059    18734.016     6677.378        9.732        3.700      347.353       82.560        0.056      350.403       31.538      859.988
08/31/2013  17:32:00     -483.100     -130.224      -10.784      177.430      158.233      102.161    31481.257    25037.755    10436.841       15.869        3.348      500.343       98.843        0.039      350.241       31.258      859.991
08/31/2013  17:33:00     -545.555     -101.510      -26.181      234.850      191.967      108.225    55154.677    36851.166    11712.561       20.615        5.186      554.919      111.501        0.040      350.206       31.196      859.984
08/31/2013  17:34:00     -286.626     -169.847        9.221      186.664      176.446       81.974    34843.566    31133.217     6719.787        9.188        3.635      333.170       99.942        0.090      350.246       31.265      860.013
08/31/2013  17:35:00     -275.676      -89.056       13.469      236.653      164.076       75.512    56004.657    26920.775     5702.096        8.635        4.431      289.703       83.174        0.082      350.262       31.292      859.996
08/31/2013  17:36:00     -353.284     -151.876        3.972      219.879      127.727       90.676    48346.587    16314.182     8222.133       11.037        3.644      384.547      100.078        0.068      350.252       31.276      860.012
08/31/2013  17:37:00     -257.525      -47.179      -19.905      181.733       98.234       60.081    33026.977     9649.846     3609.730        5.760        2.314      261.810       76.743        0.086      350.280       31.325      860.005
08/31/2013  17:38:00     -290.586       -0.767        3.029      245.512      112.893       69.537    60276.176    12744.924     4835.371        8.114        3.893      290.587       99.250        0.117      350.277       31.320      859.993
08/31/2013  17:39:00     -529.677      -36.638      -22.500      203.813      195.006       92.334    41539.672    38027.183     8525.599       18.523        4.405      530.942       95.352        0.032      350.199       31.183      859.985
08/31/2013  17:40:00     -470.633      -70.281      -14.810      175.781      145.843       92.722    30899.043    21270.195     8597.324       14.370        3.038      475.851       79.720        0.028      350.230       31.237      859.999
08/31/2013  17:41:00     -484.539     -114.028      -27.450      195.702      150.183       86.101    38299.394    22554.996     7413.444       15.839        3.413      497.775       95.827        0.037      350.169       31.131      860.017
08/31/2013  17:42:00     -336.245     -147.304        3.999      179.366      156.106       92.178    32172.060    24369.089     8496.692        9.989        3.252      367.096       97.373        0.070      350.111       31.031      860.009
08/31/2013  17:43:00     -232.296      -20.029       21.719      157.236      112.602       70.985    24723.025    12679.203     5038.911        4.863        2.122      233.158       80.346        0.119      350.205       31.195      860.001
08/31/2013  17:44:00     -360.708     -132.460      -14.747      195.873      136.300       73.082    38366.046    18577.705     5340.977       10.507        3.114      384.260       77.396        0.041      350.184       31.157      859.998
08/31/2013  17:45:00     -301.212     -197.653       -9.906      199.148       92.670       63.712    39659.895     8587.728     4059.244        9.109        2.615      360.271       76.468        0.045      350.172       31.136      860.010
08/31/2013  17:46:00     -362.177     -141.493      -23.833      167.161      142.798       73.293    27942.892    20391.239     5371.837       10.272        2.685      388.834       70.231        0.033      350.119       31.044      860.019
08/31/2013  17:47:00     -302.998     -201.032        6.605      233.098      183.959       87.606    54334.870    33840.761     7674.839       11.404        4.793      363.624      106.644        0.086      350.083       30.982      860.007
08/31/2013  17:48:00     -336.556     -226.810       11.153      199.738      160.237       95.233    39895.463    25675.842     9069.379       11.972        3.732      405.848      110.170        0.074      350.047       30.919      859.989
08/31/2013  17:49:00     -280.262     -147.026       12.185      186.090      174.233       82.633    34629.656    30356.987     6828.270        8.605        3.591      316.486       98.967        0.098      350.125       31.054      859.981
08/31/2013  17:50:00     -306.448     -190.380       -6.333      182.117      122.413       82.701    33166.758    14985.052     6839.448        9.258        2.750      360.770      103.730        0.083      350.041       30.907      859.950
08/31/2013  17:51:00     -355.456      -83.316       -2.440      216.615      147.952       80.857    46921.888    21889.775     6537.927       10.431        3.767      365.090       71.673        0.039      350.029       30.887      859.950
08/31/2013  17:52:00     -483.826      -63.365      -30.769      204.386      196.304       81.211    41773.841    38535.147     6595.248       16.296        4.345      487.958       77.702        0.025      350.063       30.948      859.959
08/31/2013  17:53:00     -413.747      -57.479       -8.399      223.368      164.227       95.938    49893.120    26970.405     9204.034       13.030        4.303      417.721      103.229        0.061      349.952       30.755      859.920
08/31/2013  17:54:00     -492.106      -83.058      -21.560      310.651      162.381      102.085    96503.743    26367.725    10421.245       19.138        6.665      499.066      125.235        0.063      349.938       30.732      859.906
08/31/2013  17:55:00     -446.046     -195.906       -9.203      224.710      159.974       99.820    50494.668    25591.807     9963.988       16.172        4.303      487.172      115.663        0.056      349.948       30.749      859.917
08/31/2013  17:56:00     -383.802      -78.472       -3.289      201.142      170.151       99.427    40458.097    28951.296     9885.658       11.637        3.965      391.742       81.145        0.043      349.979       30.802      859.922
08/31/2013  17:57:00     -475.079     -208.683       -9.011      258.975      177.006       97.117    67068.035    31331.136     9431.737       18.856        5.392      518.892      113.639        0.048      349.901       30.666      859.897
08/31/2013  17:58:00     -359.735     -270.979        0.622      197.255      154.475      105.136    38909.507    23862.463    11053.512       13.832        3.691      450.376      110.211        0.060      349.916       30.693      859.885
08/31/2013  17:59:00     -325.567      -85.127      -14.955      159.453      148.905       75.525    25425.212    22172.786     5704.073        8.337        2.665      336.512       75.396        0.050      349.993       30.826      859.899
08/31/2013  18:00:00     -228.273     -109.998       -5.152      165.982      141.200       73.214    27550.186    19937.368     5360.220        5.853        2.642      253.393       78.607        0.096      349.999       30.838      859.907
08/31/2013  18:01:00     -490.775     -152.861      -35.671      164.001      182.043       85.573    26896.225    33139.509     7322.752       16.642        3.368      514.030       83.878        0.027      349.894       30.655      859.900
08/31/2013  18:02:00     -408.553     -139.542      -21.309      271.951      168.280       88.156    73957.378    28318.089     7771.466       14.842        5.502      431.726      109.407        0.064      349.874       30.619      859.898
08/31/2013  18:03:00     -434.843      -96.809       -8.089      265.685      150.823       93.195    70588.392    22747.520     8685.257       15.025        5.101      445.489      123.190        0.076      349.821       30.528      859.877
08/31/2013  18:04:00     -249.569     -136.237        0.241      228.239      144.826       99.223    52092.814    20974.500     9845.155        8.186        4.146      284.333      119.795        0.178      349.849       30.577      859.888
08/31/2013  18:05:00     -319.936     -188.802        3.539      201.331      168.843       84.141    40534.130    28507.948     7079.761       10.705        3.806      371.490       97.716        0.069      349.833       30.548      859.902
08/31/2013  18:06:00     -589.944     -327.488      -18.513      220.735      208.005      111.276    48724.010    43265.880    12382.329       27.998        5.219      674.746      124.458        0.034      349.735       30.377      859.890
08/31/2013  18:07:00     -574.025     -257.048      -12.181      287.728      199.247      104.527    82787.222    39699.304    10925.845       26.454        6.671      628.950      124.305        0.039      349.731       30.369      859.876
08/31/2013  18:08:00     -461.123     -335.136       -6.969      232.833      186.617      113.705    54211.339    34825.931    12928.844       21.346        5.098      570.044      117.682        0.043      349.724       30.357      859.874
08/31/2013  18:09:00     -414.530     -197.881       -1.826      247.004      137.989       85.100    61010.872    19040.895     7242.011       14.913        4.365      459.339      109.684        0.057      349.766       30.432      859.913
08/31/2013  18:10:00     -347.872     -169.525       -4.658      191.469      186.748       86.600    36660.568    34874.720     7499.631       11.439        3.952      386.981       86.627        0.050      349.802       30.493      859.929
08/31/2013  18:11:00     -473.769     -299.592      -15.100      222.786      187.968       98.485    49633.555    35332.010     9699.208       20.453        4.733      560.546      102.074        0.033      349.727       30.362      859.907
08/31/2013  18:12:00     -403.575     -256.402      -11.308      219.658      159.733      108.378    48249.718    25514.656    11745.869       15.711        4.276      478.137      129.691        0.074      349.722       30.352      859.912
08/31/2013  18:13:00     -384.324     -335.109      -16.891      203.629      185.939      106.733    41464.819    34573.163    11391.899       17.384        4.371      509.905      108.898        0.046      349.713       30.337      859.913
08/31/2013  18:14:00     -489.995     -250.386      -20.520      200.763      156.190       90.086    40305.904    24395.410     8115.495       18.800        3.641      550.262      102.775        0.035      349.716       30.344      859.925
08/31/2013  18:15:00     -500.470     -292.006      -23.942      260.727      165.533      110.320    67978.788    27401.038    12170.403       22.191        5.378      579.429      108.915        0.035      349.666       30.258      859.907
08/31/2013  18:16:00     -418.719     -360.219       -0.910      264.540      188.231      125.144    69981.611    35431.028    15661.114       21.306        6.054      552.344      143.027        0.067      349.664       30.254      859.886
08/31/2013  18:17:00     -448.813     -254.967      -10.880      272.921      166.925      111.713    74485.965    27863.800    12479.721       19.067        5.741      516.180      125.962        0.060      349.659       30.245      859.878
08/31/2013  18:18:00     -434.325     -135.134      -22.171      202.737      160.272       99.482    41102.150    25687.108     9896.658       14.202        3.834      454.862       99.227        0.048      349.663       30.251      859.918
08/31/2013  18:19:00     -457.109     -374.622      -10.651      252.324      226.930      119.706    63667.606    51497.279    14329.493       23.942        6.475      591.008      133.041        0.051      349.621       30.180      859.892
08/31/2013  18:20:00     -435.989     -323.387        2.753      235.292      177.906      115.682    55362.154    31650.383    13382.396       19.751        5.020      542.831      130.779        0.058      349.593       30.132      859.881
08/31/2013  18:21:00     -361.704     -252.974       -6.123      252.971      186.644      109.021    63994.555    34835.814    11885.534       15.277        5.536      441.390      117.583        0.071      349.575       30.100      859.883
08/31/2013  18:22:00     -474.145     -307.082      -14.769      268.103      194.046       97.454    71879.485    37653.905     9497.328       21.916        5.952      564.901      101.900        0.033      349.579       30.109      859.867
08/31/2013  18:23:00     -482.556     -257.897       -3.335      221.078      183.457       96.884    48875.378    33656.444     9386.461       19.563        4.596      547.148      113.180        0.043      349.574       30.099      859.889
08/31/2013  18:24:00     -521.356     -277.266       -5.634      237.213      215.245       99.276    56269.872    46330.421     9855.821       23.057        5.623      590.499      106.332        0.032      349.548       30.054      859.885
08/31/2013  18:25:00     -526.418     -125.083        4.554      307.952      216.552      103.196    94834.385    46894.831    10649.315       22.255        7.619      541.075      126.491        0.055      349.553       30.062      859.884
08/31/2013  18:26:00     -476.760     -218.917      -29.762      240.930      164.023       93.085    58047.456    26903.507     8664.748       18.484        4.681      524.619      107.036        0.042      349.555       30.065      859.899
08/31/2013  18:27:00     -346.211     -174.590        4.649      206.290      177.702       96.915    42555.411    31578.119     9392.573       11.693        4.176      387.742      107.863        0.077      349.557       30.069      859.881
08/31/2013  18:28:00     -459.875     -225.497       -3.163      256.949      171.948       93.228    66022.881    29566.011     8691.542       18.329        5.214      512.186      108.255        0.045      349.529       30.021      859.873
08/31/2013  18:29:00     -375.567      -97.878       12.249      287.728      214.989      121.358    82787.356    46220.178    14727.854       14.723        7.187      388.112      138.459        0.127      349.484       29.943      859.879
08/31/2013  18:30:00     -460.224     -171.331      -21.894      193.511      215.209       88.977    37446.530    46314.847     7916.976       16.664        4.584      491.081       94.457        0.037      349.511       29.988      859.899
08/31/2013  18:31:00     -397.872     -162.240      -14.233      221.349      126.741       86.123    48995.549    16063.254     7417.148       12.864        3.624      429.679      100.426        0.055      349.535       30.030      859.904
08/31/2013  18:32:00     -391.677     -228.297       -7.065      215.186      182.371      105.914    46305.020    33259.238    11217.831       14.816        4.539      453.355      110.521        0.059      349.483       29.941      859.918
08/31/2013  18:33:00     -504.917     -275.393      -15.847      259.616      199.911      109.109    67400.586    39964.362    11904.814       22.513        5.963      575.137      125.079        0.047      349.427       29.842      859.887
08/31/2013  18:34:00     -400.213     -257.992       -6.050      261.875      216.144      110.240    68578.637    46718.439    12152.959       17.708        6.373      476.162      120.267        0.064      349.396       29.788      859.894
08/31/2013  18:35:00     -366.079     -202.426        3.634      191.293      144.744       82.000    36593.109    20950.866     6723.926       11.962        3.213      418.318       99.398        0.056      349.401       29.798      859.891
08/31/2013  18:36:00     -409.123     -146.097        6.391      208.673      194.473       90.786    43544.285    37819.624     8242.042       13.917        4.480      434.426       93.297        0.046      349.397       29.792      859.903
08/31/2013  18:37:00     -287.492     -211.760       -9.360      209.380      208.687       94.065    43839.936    43550.183     8848.258       11.189        4.812      357.063      108.769        0.093      349.399       29.793      859.913
08/31/2013  18:38:00     -486.975     -243.731       -4.629      246.973      165.981      111.112    60995.748    27549.828    12345.836       19.871        5.045      544.564      115.671        0.045      349.346       29.702      859.901
08/31/2013  18:39:00     -402.981     -156.671       12.806      252.291      172.440      103.365    63650.718    29735.623    10684.289       14.557        5.204      432.365      116.619        0.073      349.343       29.697      859.874
08/31/2013  18:40:00     -513.301     -200.267      -20.774      264.013      223.101      114.092    69703.117    49774.222    13016.999       21.823        6.625      550.985      129.415        0.055      349.319       29.655      859.864
08/31/2013  18:41:00     -415.968     -156.521      -31.894      246.154      176.457       96.717    60591.761    31137.042     9354.255       14.979        5.054      444.441      122.696        0.076      349.329       29.673      859.868
08/31/2013  18:42:00     -304.193     -202.756       11.533      161.390      149.993       79.502    26046.685    22497.881     6320.492        9.431        2.743      365.573       69.836        0.036      349.342       29.696      859.874
08/31/2013  18:43:00     -332.098     -256.086       -5.333      141.015      147.636       82.808    19885.227    21796.244     6857.166       11.221        2.427      419.367       80.090        0.036      349.332       29.679      859.873
08/31/2013  18:44:00     -325.981     -234.839      -20.428      216.917      205.798       97.859    47052.790    42352.628     9576.396       13.039        4.949      401.763      124.893        0.097      349.325       29.667      859.844
08/31/2013  18:45:00     -220.399      -77.969       13.292      199.375      192.076       97.128    39750.548    36893.066     9433.826        7.044        4.304      233.783       99.902        0.183      349.323       29.665      859.859
08/31/2013  18:46:00     -323.743     -182.255        6.933      201.734      168.924       94.614    40696.406    28535.293     8951.882       10.811        3.909      371.519      107.980        0.084      349.310       29.640      859.878
08/31/2013  18:47:00     -373.568     -170.821       -5.870      212.302      155.512      100.534    45072.114    24183.967    10107.087       12.405        3.968      410.771      110.983        0.073      349.286       29.601      859.877
08/31/2013  18:48:00     -529.417     -123.316      -34.734      196.126      209.775       94.551    38465.494    44005.544     8939.974       19.404        4.571      543.590       96.410        0.031      349.319       29.656      859.890
08/31/2013  18:49:00     -471.591     -176.951      -22.058      264.173      211.896      103.866    69787.600    44899.895    10788.120       18.981        6.274      503.696      107.651        0.046      349.280       29.589      859.909
08/31/2013  18:50:00     -305.459     -251.008       -4.389      235.867      171.785       93.500    55633.387    29510.199     8742.207       12.509        4.694      395.361      107.419        0.074      349.276       29.583      859.904
08/31/2013  18:51:00     -321.450     -190.223       -4.878      192.282      155.689       91.783    36972.463    24239.081     8424.119       10.457        3.482      373.517      102.259        0.075      349.263       29.561      859.880
08/31/2013  18:52:00     -315.275     -148.460        5.656      215.251      194.617      120.590    46332.969    37875.878    14541.895       11.009        4.938      348.481      133.766        0.147      349.270       29.572      859.855
08/31/2013  18:53:00     -269.752     -140.345        3.698      223.962      166.726       97.002    50159.039    27797.407     9409.478        8.990        4.368      304.077      116.811        0.148      349.247       29.533      859.882
08/31/2013  18:54:00     -338.944     -129.766      -19.148      223.781      154.204       82.527    50078.127    23778.866     6810.631       10.636        4.033      362.936       97.001        0.071      349.276       29.583      859.883
08/31/2013  18:55:00     -462.773     -240.866       -8.438      228.344      195.468      103.151    52140.927    38207.763    10640.114       18.660        5.049      521.705      121.652        0.054      349.227       29.497      859.872
08/31/2013  18:56:00     -456.544     -249.403      -14.517      230.926      224.999      113.087    53326.630    50624.640    12788.585       19.377        5.837      520.225      120.889        0.054      349.208       29.463      859.900
08/31/2013  18:57:00     -417.185     -178.954       -6.762      205.682      208.971       88.941    42304.893    43668.711     7910.459       14.998        4.694      453.947       93.233        0.042      349.227       29.497      859.898
08/31/2013  18:58:00     -395.325     -250.706       -0.089      220.059      161.794       99.324    48426.113    26177.431     9865.317       15.179        4.223      468.119      115.323        0.061      349.197       29.445      859.928
08/31/2013  18:59:00     -340.829     -173.031      -18.760      145.457      118.569       68.604    21157.747    14058.706     4706.529        9.318        1.996      382.236       69.535        0.033      349.200       29.450      859.934
08/31/2013  19:00:00     -313.650      -97.202      -10.938      152.052      163.391       87.314    23119.961    26696.565     7623.671        8.268        2.872      328.366       68.229        0.043      349.188       29.429      859.964
08/31/2013  19:01:00     -455.818     -210.747      -15.775      237.862      203.510      105.922    56578.426    41416.131    11219.391       18.080        5.461      502.179      124.584        0.062      349.120       29.312      859.943
08/31/2013  19:02:00     -340.568     -213.100       -3.343      227.629      203.113      102.791    51814.754    41254.793    10565.929       13.250        5.182      401.744      105.729        0.069      349.091       29.259      859.933
08/31/2013  19:03:00     -503.140     -188.895      -26.392      201.289      199.608       90.865    40517.421    39843.178     8256.478       18.905        4.431      537.430       91.340        0.029      349.094       29.264      859.940
08/31/2013  19:04:00     -414.603     -129.099       -4.635      213.682      200.515       84.291    45659.848    40206.385     7104.977       14.076        4.649      434.237       84.185        0.038      349.083       29.247      859.955
08/31/2013  19:05:00     -271.101     -137.499      -25.782      153.994      154.758       69.704    23714.035    23950.100     4858.691        7.278        2.626      303.976       79.119        0.068      349.070       29.225      859.973
08/31/2013  19:06:00     -376.672     -111.923      -10.232      154.540      164.865       64.435    23882.551    27180.502     4151.842       10.485        2.761      392.949       71.105        0.033      349.071       29.225      859.969
08/31/2013  19:07:00     -315.527     -146.152      -11.985      179.177      218.952       82.139    32104.459    47939.773     6746.868       10.391        4.340      347.733       96.507        0.077      349.028       29.152      859.991
08/31/2013  19:08:00     -372.372      -41.975       -9.187      152.395      192.960       81.749    23224.340    37233.464     6682.835       10.381        3.357      374.731       75.708        0.041      349.028       29.152      860.006
08/31/2013  19:09:00     -441.043     -156.586      -19.049      298.360      197.011      108.836    89018.770    38813.150    11845.380       17.951        6.984      468.016      135.000        0.083      349.006       29.114      859.981
08/31/2013  19:10:00     -329.747      -54.920       -5.518      212.697      208.714       89.465    45240.038    43561.579     8003.925       10.427        4.840      334.289      108.032        0.104      348.982       29.073      859.999
08/31/2013  19:11:00     -295.485     -176.515       -6.272      206.643      181.552      104.481    42701.374    32961.067    10916.227       10.253        4.329      344.193       97.094        0.080      348.962       29.040      860.020
08/31/2013  19:12:00     -279.886      -88.768        8.083      257.719      152.449       87.676    66418.879    23240.559     7687.055        9.179        4.867      293.625      108.380        0.136      348.934       28.990      860.020
08/31/2013  19:13:00     -400.823     -160.261      -19.459      257.810      162.792       89.119    66466.089    26501.141     7942.221       14.379        5.045      431.674       93.369        0.047      348.955       29.024      860.029
08/31/2013  19:14:00     -440.151     -224.485       -9.063      216.968      258.221      108.107    47075.209    66678.114    11687.126       18.480        6.272      494.091      113.222        0.053      348.911       28.949      860.015
08/31/2013  19:15:00     -403.772     -236.175       -7.453      267.756      217.150      109.757    71693.176    47153.978    12046.533       17.485        6.545      467.771      127.273        0.074      348.877       28.890      860.026
08/31/2013  19:16:00     -585.764     -164.750      -37.676      271.867      222.491      101.802    73911.668    49502.300    10363.606       25.270        6.689      608.492      115.822        0.036      348.856       28.854      860.064
08/31/2013  19:17:00     -214.259     -175.863       12.156      219.241      171.264       99.035    48066.714    29331.489     9807.960        8.208        4.360      277.191      120.585        0.189      348.851       28.845      860.096
08/31/2013  19:18:00     -473.669     -282.419       -8.420      234.524      177.784      117.017    55001.460    31606.975    13692.904       20.223        5.015      551.473      125.412        0.052      348.817       28.784      860.090
08/31/2013  19:19:00     -368.112     -108.157      -28.223      153.077      126.441       83.309    23432.643    15987.230     6940.355        9.717        2.318      383.672       79.174        0.043      348.821       28.791      860.130
08/31/2013  19:20:00     -249.842     -163.403       -0.767      156.288      188.467       98.297    24425.874    35519.704     9662.327        7.935        3.480      298.533       93.181        0.097      348.781       28.724      860.140
08/31/2013  19:21:00     -387.552     -278.169      -17.781      223.399      175.435      100.264    49907.215    30777.307    10052.855       15.930        4.537      477.047      115.972        0.059      348.762       28.691      860.124
08/31/2013  19:22:00     -469.604     -222.444      -23.331      201.420      191.780       76.461    40569.968    36779.689     5846.343       17.686        4.160      519.624       72.259        0.019      348.745       28.662      860.136
08/31/2013  19:23:00     -292.298      -20.717       -8.541      137.028      149.352       69.074    18776.723    22305.888     4771.160        6.589        2.293      293.031       62.336        0.045      348.732       28.639      860.128
08/31/2013  19:24:00     -216.786      -68.849       31.136      189.623      192.986      106.866    35956.710    37243.777    11420.346        6.865        4.231      227.457      110.176        0.235      348.695       28.576      860.102
08/31/2013  19:25:00     -434.150     -130.996       -8.824      217.487      204.578      103.637    47300.650    41852.081    10740.603       15.279        4.995      453.482      106.859        0.056      348.679       28.549      860.108
08/31/2013  19:26:00     -227.517     -172.014       31.434      237.927      198.299      125.666    56609.349    39322.605    15791.935        9.701        5.586      285.224      146.635        0.264      348.645       28.490      860.104
08/31/2013  19:27:00     -318.285     -194.082      -12.898      216.829      159.806       89.779    47014.809    25537.853     8060.210       10.986        4.031      372.791       96.001        0.066      348.644       28.486      860.122
08/31/2013  19:28:00     -378.996     -129.180      -16.419      241.115      164.540       94.839    58136.625    27073.445     8994.354       12.738        4.710      400.407      120.080        0.090      348.631       28.463      860.139
08/31/2013  19:29:00     -467.492     -330.132      -34.987      242.160      170.533       99.209    58641.368    29081.498     9842.422       21.314        4.878      572.307      101.916        0.032      348.618       28.443      860.134
08/31/2013  19:30:00     -422.793     -126.315       -3.985      300.933      245.434      117.689    90560.706    60237.773    13850.803       17.965        8.232      441.259      136.827        0.096      348.600       28.411      860.109
08/31/2013  19:31:00     -456.055     -295.664      -26.262      222.580      202.279      125.225    49541.655    40916.602    15681.274       20.109        5.307      543.510      120.178        0.049      348.591       28.394      860.108
08/31/2013  19:32:00     -461.077      -91.770       13.276      326.324      199.404      107.492   106487.638    39762.117    11554.580       18.947        7.890      470.121      140.869        0.090      348.572       28.361      860.165
08/31/2013  19:33:00     -327.939     -161.281       14.932      288.443      203.757      120.700    83199.109    41516.712    14568.561       13.650        6.964      365.453      132.739        0.132      348.545       28.316      860.156
08/31/2013  19:34:00     -335.637     -118.551        1.039      218.370      230.137       95.801    47685.650    52963.246     9177.849       11.825        5.491      355.958      108.822        0.093      348.539       28.304      860.176
08/31/2013  19:35:00     -302.076     -109.426       12.105      200.010      177.912       97.989    40003.987    31652.731     9601.748        9.230        4.063      321.285      101.595        0.100      348.524       28.277      860.214
08/31/2013  19:36:00     -458.687     -217.216      -21.865      317.426      194.846      111.448   100759.380    37965.042    12420.601       20.457        7.557      507.519      140.598        0.077      348.533       28.293      860.208
08/31/2013  19:37:00     -389.652     -214.360        3.119      266.865      228.685      104.190    71217.194    52296.815    10855.601       16.605        6.718      444.723      128.414        0.083      348.533       28.294      860.217
08/31/2013  19:38:00     -339.896      -70.088       -0.963      249.432      166.816       93.970    62216.509    27827.419     8830.309       10.964        4.944      347.047      117.743        0.115      348.521       28.273      860.243
08/31/2013  19:39:00     -499.835     -248.583      -12.199      283.803      204.779      123.132    80544.329    41934.437    15161.492       22.468        6.882      558.237      140.251        0.063      348.525       28.280      860.260
08/31/2013  19:40:00     -383.883     -168.792      -19.343      202.465      138.366       90.885    40992.236    19145.082     8260.144       12.230        3.420      419.353       91.457        0.048      348.519       28.270      860.308
08/31/2013  19:41:00     -490.211      -79.120      -27.953      262.983      203.983       98.371    69159.911    41608.901     9676.805       18.387        6.022      496.555      109.166        0.048      348.510       28.256      860.282
08/31/2013  19:42:00     -350.698     -149.791       -2.288      246.657      213.347      104.776    60839.919    45516.774    10977.932       13.136        5.867      381.348      117.095        0.094      348.487       28.217      860.291
08/31/2013  19:43:00     -452.105      -46.247        8.747      235.119      199.625      128.989    55281.099    39850.139    16638.146       15.917        5.588      454.464      132.528        0.085      348.476       28.197      860.286
08/31/2013  19:44:00     -472.117     -182.958      -16.429      241.729      226.294       96.174    58432.948    51208.882     9249.452       18.774        5.945      506.328      107.900        0.045      348.477       28.199      860.292
08/31/2013  19:45:00     -361.027     -118.960      -19.344      211.595      132.880       83.553    44772.334    17657.139     6981.157       10.712        3.471      380.121       87.762        0.053      348.466       28.181      860.345
08/31/2013  19:46:00     -386.913      -74.557       -5.600      216.637      144.686       85.458    46931.447    20933.923     7303.054       11.521        3.758      394.031       95.566        0.059      348.463       28.174      860.382
08/31/2013  19:47:00     -540.284        3.451      -14.069      243.541      207.607      106.433    59312.223    43100.681    11327.928       20.291        5.687      540.295      113.521        0.044      348.423       28.106      860.398
08/31/2013  19:48:00     -317.438      -75.787       11.312      278.003      155.037      105.223    77285.575    24036.347    11071.896       10.949        5.620      326.359      138.423        0.180      348.420       28.102      860.407
08/31/2013  19:49:00     -349.540      -86.966      -11.930      169.820      121.910       78.499    28838.944    14862.118     6162.133        8.986        2.493      360.196       72.353        0.040      348.431       28.120      860.427
08/31/2013  19:50:00     -384.314     -144.619        0.439      247.483      197.410       94.725    61247.750    38970.511     8972.884       13.888        5.460      410.624      104.758        0.065      348.421       28.103      860.388
08/31/2013  19:51:00     -450.197     -136.624       12.538      284.031      209.680      114.227    80673.514    43965.819    13047.872       17.957        6.884      470.471      133.603        0.081      348.380       28.031      860.378
08/31/2013  19:52:00     -387.886     -137.896        5.322      253.441      160.742      109.483    64232.125    25838.039    11986.432       13.576        5.103      411.669      131.351        0.102      348.373       28.018      860.378
08/31/2013  19:53:00     -468.668     -189.704      -10.576      249.564      166.399       99.806    62282.377    27688.559     9961.222       17.782        4.997      505.606      117.055        0.054      348.370       28.012      860.388
08/31/2013  19:54:00     -676.016      -95.807      -25.467      284.939      250.049      120.457    81190.366    62524.501    14509.867       31.249        7.911      682.772      141.378        0.043      348.351       27.980      860.398
08/31/2013  19:55:00     -362.804      -50.462        7.849      236.117      177.934       80.671    55751.373    31660.344     6507.884       11.406        4.696      366.297       93.539        0.065      348.346       27.970      860.443
08/31/2013  19:56:00     -423.282      -67.765        2.732      226.634      179.381       97.404    51362.941    32177.615     9487.591       13.838        4.651      428.673      107.320        0.063      348.333       27.947      860.460
08/31/2013  19:57:00     -422.604      -78.184      -10.447      160.156      137.531       82.483    25650.017    18914.736     6803.512       11.808        2.568      429.775       82.503        0.037      348.325       27.934      860.504
08/31/2013  19:58:00     -287.587      -58.034      -11.728      127.568      155.045       70.501    16273.646    24038.980     4970.451        6.574        2.264      293.384       64.869        0.049      348.294       27.881      860.514
08/31/2013  19:59:00     -358.121      -91.389       -6.408      215.387      191.255      100.011    46391.592    36578.536    10002.127       11.479        4.649      369.598       94.534        0.065      348.279       27.854      860.477
08/31/2013  20:00:00     -361.590     -136.524       -1.630      253.714      157.364       93.964    64370.957    24763.347     8829.306       12.366        4.898      386.505      120.960        0.098      348.243       27.792      860.494
08/31/2013  20:01:00     -553.770     -136.425      -14.534      240.998      185.186      111.341    58079.815    34293.897    12396.824       21.511        5.239      570.328      115.387        0.041      348.235       27.780      860.510
08/31/2013  20:02:00     -270.567      -65.375       -1.289      197.361      173.656       98.688    38951.441    30156.574     9739.264        7.815        3.942      278.353       83.190        0.089      348.233       27.776      860.549
08/31/2013  20:03:00     -451.942      -95.883       -9.035      202.714      164.517       95.348    41092.957    27065.713     9091.262       14.537        3.862      462.001      101.718        0.048      348.210       27.737      860.602
08/31/2013  20:04:00     -430.751      -79.088      -19.228      208.955      156.425       95.245    43662.140    24468.754     9071.587       13.467        3.860      437.951       97.500        0.050      348.207       27.732      860.650
08/31/2013  20:05:00     -243.484     -127.416        4.574      221.584      149.697       90.720    49099.517    22409.117     8230.122        7.762        3.987      274.807      104.656        0.145      348.207       27.733      860.691
08/31/2013  20:06:00     -279.826      -17.594        8.840      202.470      133.336       80.588    40994.247    17778.540     6494.491        7.197        3.263      280.378       99.241        0.125      348.186       27.695      860.715
08/31/2013  20:07:00     -226.346      -37.745        1.857      159.293      129.117       67.369    25374.241    16671.178     4538.602        4.961        2.329      229.472       80.569        0.123      348.142       27.622      860.717
08/31/2013  20:08:00     -486.809      -30.062       -9.781      289.860      258.803      105.044    84019.086    66979.004    11034.231       19.998        8.102      487.737      134.270        0.076      348.134       27.604      860.713
08/31/2013  20:09:00     -464.761       11.325      -31.272      179.890      154.612       83.919    32360.250    23904.745     7042.361       14.020        3.165      464.899       92.121        0.039      348.140       27.615      860.729
08/31/2013  20:10:00     -313.827      -88.740        8.186      208.253      152.893       89.817    43369.453    23376.358     8067.098        9.061        3.741      326.132       92.873        0.081      348.134       27.606      860.737
08/31/2013  20:11:00     -347.000      -63.770      -14.063      220.150      135.052       82.114    48465.935    18239.162     6742.657        9.905        3.672      352.811       98.274        0.078      348.131       27.601      860.751
08/31/2013  20:12:00     -490.376      -86.117      -23.055      185.548      173.006       78.544    34428.228    29931.086     6169.113       15.946        3.526      497.881       85.261        0.029      348.119       27.580      860.771
08/31/2013  20:13:00     -496.967      -71.946      -22.107      232.125      121.940       74.222    53881.856    14869.435     5508.927       16.344        3.713      502.148       84.425        0.028      348.124       27.588      860.784
08/31/2013  20:14:00     -362.469      -14.604       -8.182      191.897      141.001       92.393    36824.307    19881.250     8536.516        9.844        3.262      362.763       98.313        0.073      348.100       27.546      860.807
08/31/2013  20:15:00     -406.444      -70.884      -14.236      165.454      156.685       71.893    27375.100    24550.308     5168.609       11.375        2.855      412.579       73.799        0.032      348.092       27.530      860.827
08/31/2013  20:16:00     -494.190       44.142      -37.602      119.685      105.343       51.542    14324.552    11097.216     2656.575       13.783        1.404      496.158       48.771        0.010      348.086       27.520      860.832
08/31/2013  20:17:00     -282.780      -41.295      -13.853      143.069      107.618       60.880    20468.819    11581.624     3706.315        5.880        1.788      285.779       65.885        0.053      348.075       27.503      860.815
08/31/2013  20:18:00     -389.090      -72.813      -18.087      180.012      177.947       72.286    32404.313    31664.998     5225.286       11.314        3.465      395.844       71.475        0.033      348.058       27.473      860.824
08/31/2013  20:19:00     -246.337      -27.652        8.918      253.312      121.025       78.136    64167.171    14647.070     6105.222        7.321        4.246      247.884      106.998        0.186      347.982       27.344      860.835
08/31/2013  20:20:00     -417.418     -132.401      -21.809      229.906      152.449       73.734    52856.674    23240.724     5436.720       13.687        4.077      437.914       81.729        0.035      348.044       27.449      860.869
08/31/2013  20:21:00     -313.117      -62.355        0.609      177.527      146.702       73.778    31515.782    21521.491     5443.174        8.019        2.924      319.266       79.526        0.062      348.025       27.417      860.878
08/31/2013  20:22:00     -428.148     -116.069      -13.201      236.559      164.567       97.150    55959.934    27082.362     9438.188       14.470        4.624      443.602      126.959        0.082      348.046       27.452      860.880
08/31/2013  20:23:00     -349.119      -42.741        5.292      216.015      160.040       82.093    46662.502    25612.817     6739.252       10.136        3.951      351.726      102.985        0.086      348.034       27.432      860.907
08/31/2013  20:24:00     -490.784       -7.237      -39.506      133.364      132.287       64.998    17785.843    17499.970     4224.761       14.099        1.976      490.837       49.255        0.010      348.039       27.441      860.929
08/31/2013  20:25:00     -319.304      -49.593      -22.146      225.761      142.363       77.192    50967.886    20267.119     5958.582        9.103        3.860      323.132       86.958        0.072      348.006       27.383      860.943
08/31/2013  20:26:00     -328.569      -38.559       -7.247      187.894      123.340       67.033    35304.183    15212.747     4493.359        8.224        2.751      330.824       68.322        0.043      348.015       27.398      860.952
08/31/2013  20:27:00     -330.924      -56.828        3.630      184.008      166.286       82.619    33859.007    27651.075     6825.871        9.053        3.417      335.768       93.997        0.078      348.015       27.399      860.953
08/31/2013  20:28:00     -393.792        2.097      -28.730      174.603      146.407       76.223    30486.260    21434.888     5809.904       10.680        2.887      393.797       81.206        0.043      348.015       27.399      860.982
08/31/2013  20:29:00     -393.606      -53.616      -18.899      182.292      117.308       79.198    33230.482    13761.275     6272.343       10.570        2.663      397.241       94.918        0.057      348.015       27.399      860.989
08/31/2013  20:30:00     -235.832      -74.055       -2.071      144.653      108.687       63.058    20924.513    11812.797     3976.312        4.890        1.836      247.186       77.393        0.098      347.980       27.340      860.987
08/31/2013  20:31:00     -233.636      -77.575        4.495      126.307       97.556       55.526    15953.508     9517.171     3083.135        4.458        1.428      246.178       54.869        0.050      347.963       27.310      861.013
08/31/2013  20:32:00     -290.953     -198.068       -3.966      168.916      142.772       82.469    28532.575    20383.770     6801.201        8.980        2.786      351.973       88.316        0.063      347.960       27.305      861.033
08/31/2013  20:33:00     -291.962     -124.742      -13.488      154.244      107.639       57.900    23791.121    11586.233     3352.402        6.985        1.936      317.494       63.482        0.040      347.960       27.303      861.061
08/31/2013  20:34:00     -398.122      -84.583       -5.744      214.806      123.078       83.530    46141.792    15148.108     6977.332       11.696        3.413      407.008       91.362        0.050      347.977       27.335      861.068
08/31/2013  20:35:00     -379.419      -15.687      -41.852      140.519       87.472       68.810    19745.548     7651.373     4734.840        8.904        1.607      379.743       74.127        0.038      347.982       27.343      861.098
08/31/2013  20:36:00     -188.919        3.068        5.057      176.420       93.942       64.254    31123.905     8825.156     4128.529        3.989        2.204      188.944       87.833        0.216      347.929       27.253      861.116
08/31/2013  20:37:00     -288.725      -69.568       -9.132      110.945      106.280       56.153    12308.821    11295.473     3153.200        5.752        1.338      296.988       45.507        0.023      347.940       27.271      861.137
08/31/2013  20:38:00     -301.706      -70.036      -12.456      176.628      111.345       63.149    31197.599    12397.752     3987.791        7.183        2.379      309.728       78.313        0.064      347.892       27.189      861.151
08/31/2013  20:39:00     -280.904     -100.244      -11.989      110.140       99.033       47.702    12130.804     9807.506     2275.462        5.665        1.211      298.255       24.606        0.007      347.937       27.265      861.166
08/31/2013  20:40:00     -253.607      -58.305       -8.974      100.122       85.852       44.041    10024.321     7370.578     1939.593        4.356        0.967      260.223       49.493        0.036      347.905       27.209      861.184
08/31/2013  20:41:00     -345.862      -26.111      -28.580      202.946      110.777       59.239    41186.891    12271.638     3509.263        8.903        2.848      346.846       81.964        0.056      347.854       27.122      861.177
08/31/2013  20:42:00     -496.677     -137.669      -26.345      144.194      128.591       75.482    20791.856    16535.555     5697.475       15.467        2.151      515.404       67.357        0.017      347.922       27.238      861.173
08/31/2013  20:43:00     -334.482      -46.708      -39.183      134.283      126.414       65.745    18031.848    15980.531     4322.468        7.696        1.917      337.728       71.169        0.044      347.907       27.213      861.206
08/31/2013  20:44:00     -243.579     -134.368        5.451      150.741      180.660       89.017    22722.737    32638.060     7924.075        7.034        3.164      278.183       97.456        0.123      347.886       27.176      861.204
08/31/2013  20:45:00     -234.429      -91.926       -7.940      167.056      122.725       56.622    27907.836    15061.361     3206.093        5.481        2.309      251.808       68.310        0.074      347.899       27.199      861.223
08/31/2013  20:46:00     -242.884     -123.619       -4.042      122.039      156.689       65.804    14893.615    24551.402     4330.151        5.902        2.189      272.533       69.403        0.065      347.892       27.186      861.216
08/31/2013  20:47:00     -178.577      -68.931       -7.585      169.838      118.496       61.285    28845.069    14041.184     3755.819        4.166        2.332      191.419       70.559        0.136      347.875       27.156      861.200
08/31/2013  20:48:00     -249.284      -81.755       -9.750      103.072       99.555       58.048    10623.879     9911.207     3369.568        4.641        1.195      262.347       50.384        0.037      347.843       27.101      861.195
08/31/2013  20:49:00     -205.886      -50.937        9.148      159.761      130.819       71.667    25523.642    17113.531     5136.209        4.641        2.389      212.094       74.004        0.122      347.802       27.031      861.172
08/31/2013  20:50:00     -302.164     -128.132      -19.568      130.083       86.874       58.527    16921.483     7547.097     3425.379        6.799        1.395      328.209       59.901        0.033      347.791       27.012      861.213
08/31/2013  20:51:00     -387.074      -82.413      -18.338      183.254      132.533       70.046    33581.845    17565.011     4906.383       10.649        2.803      395.750       79.541        0.040      347.823       27.067      861.230
08/31/2013  20:52:00     -383.964     -156.543      -11.423      153.997      156.777       74.901    23715.158    24579.059     5610.219       11.297        2.695      414.650       62.764        0.023      347.845       27.107      861.230
08/31/2013  20:53:00     -337.744      -78.681      -17.647      123.333      103.377       60.829    15210.925    10686.805     3700.138        7.508        1.480      346.788       58.198        0.028      347.823       27.067      861.238
08/31/2013  20:54:00     -403.105      -98.681       -9.865      179.607      118.457       78.959    32258.747    14032.170     6234.518       11.242        2.626      415.008       96.109        0.054      347.810       27.047      861.227
08/31/2013  20:55:00     -336.310      -55.489      -10.217      146.325      116.989       54.514    21411.133    13686.533     2971.803        7.717        1.903      340.857       60.689        0.032      347.783       27.000      861.219
08/31/2013  20:56:00     -200.171      -67.751        2.805      146.831       83.364       56.208    21559.256     6949.508     3159.296        3.816        1.583      211.326       76.046        0.129      347.760       26.960      861.207
08/31/2013  20:57:00     -397.923     -118.820      -20.179      224.721      137.015       71.321    50499.516    18773.101     5086.751       12.360        3.718      415.284       88.236        0.045      347.729       26.906      861.203
08/31/2013  20:58:00     -322.814     -170.058      -19.695      197.183      171.828       84.515    38881.002    29524.893     7142.869       10.452        3.777      364.868       83.789        0.053      347.775       26.986      861.183
08/31/2013  20:59:00     -380.691      -93.278      -20.908      183.568      128.722       67.883    33697.333    16569.480     4608.117       10.446        2.744      391.952       73.768        0.035      347.770       26.975      861.160
08/31/2013  21:00:00     -371.307      -58.071       -4.113      186.089      134.731       81.178    34628.986    18152.362     6589.822       10.030        2.969      375.821       79.880        0.045      347.736       26.918      861.156
08/31/2013  21:01:00     -316.819     -133.005      -18.048      208.990      144.026       88.117    43676.797    20743.537     7764.688        9.527        3.609      343.605       86.736        0.064      347.717       26.884      861.175
08/31/2013  21:02:00     -446.800      -74.873      -36.818      175.510      109.687       70.822    30803.886    12031.252     5015.794       12.721        2.393      453.030       73.865        0.027      347.752       26.946      861.188
08/31/2013  21:03:00     -403.048     -111.840      -21.580      181.078      125.353       68.138    32789.360    15713.478     4642.800       11.427        2.657      418.277       78.134        0.035      347.737       26.920      861.172
08/31/2013  21:04:00     -442.064     -126.257        6.885      187.935      140.379       74.415    35319.428    19706.194     5537.522       13.597        3.028      459.740       83.803        0.033      347.772       26.980      861.177
08/31/2013  21:05:00     -323.310      -11.735      -18.597      144.699       99.080       60.521    20937.900     9816.909     3662.813        6.971        1.721      323.523       62.873        0.038      347.740       26.925      861.180
08/31/2013  21:06:00     -256.884      -54.422        9.797      151.072      123.686       66.086    22822.626    15298.222     4367.359        5.576        2.124      262.585       68.352        0.068      347.729       26.906      861.172
08/31/2013  21:07:00     -370.682     -108.251      -14.566      193.601      116.250       75.044    37481.157    13513.999     5631.545       10.297        2.831      386.165       86.867        0.051      347.750       26.943      861.169
08/31/2013  21:08:00     -408.029      -55.363      -26.790      157.085      115.089       61.202    24675.762    13245.445     3745.678       10.596        2.083      411.768       52.633        0.016      347.774       26.985      861.152
08/31/2013  21:09:00     -224.052     -104.388        1.701      127.578       95.244       57.563    16276.218     9071.374     3313.553        4.487        1.433      247.177       62.836        0.065      347.687       26.833      861.152
08/31/2013  21:10:00     -249.364      -59.507        7.127      183.495       66.664       68.538    33670.463     4444.104     4697.519        5.428        2.141      256.366       97.284        0.144      347.674       26.812      861.164
08/31/2013  21:11:00     -226.927     -101.232       -9.535      181.759      154.977       62.948    33036.372    24017.847     3962.491        6.141        3.051      248.483       76.456        0.095      347.688       26.837      861.134
08/31/2013  21:12:00     -492.358      -30.306      -40.118      183.759      163.448       80.671    33767.218    26715.311     6507.868       15.595        3.350      493.290       86.157        0.031      347.676       26.814      861.108
08/31/2013  21:13:00     -468.415     -158.703       -7.102      181.329      171.305       94.497    32880.095    29345.509     8929.625       15.789        3.558      494.569      101.939        0.042      347.711       26.874      861.120
08/31/2013  21:14:00     -661.635      -85.826      -57.953      172.846      153.121       86.132    29875.584    23446.193     7418.794       25.460        3.037      667.178       78.263        0.014      347.842       27.100      861.145
08/31/2013  21:15:00     -424.077     -119.068      -23.594      148.371      144.133       74.134    22013.954    20774.447     5495.822       12.142        2.414      440.475       64.589        0.022      347.744       26.932      861.176
08/31/2013  21:16:00     -377.858      -93.974      -19.149      176.642      149.911       75.269    31202.501    22473.324     5665.370       10.565        2.967      389.369       71.795        0.034      347.725       26.898      861.150
08/31/2013  21:17:00     -371.730     -110.826       -3.585      162.342       94.465       61.154    26354.886     8923.589     3739.781        9.474        1.951      387.899       55.868        0.021      347.654       26.776      861.162
08/31/2013  21:18:00     -261.620      -92.563       -5.684      148.509      141.709       73.469    22055.058    20081.418     5397.643        6.228        2.377      277.512       73.713        0.071      347.592       26.671      861.152
08/31/2013  21:19:00     -296.305      -66.669        7.456      215.453      134.778       74.211    46420.089    18164.983     5507.238        8.118        3.505      303.713       78.381        0.067      347.595       26.675      861.174
08/31/2013  21:20:00     -389.100      -32.452      -24.704      173.396      145.703       83.660    30066.001    21229.326     6999.042       10.567        2.915      390.451       87.142        0.050      347.612       26.703      861.169
08/31/2013  21:21:00     -372.146      -64.492       -6.931      171.490      130.312       82.263    29408.926    16981.289     6767.234        9.792        2.658      377.693       99.254        0.069      347.601       26.685      861.217
08/31/2013  21:22:00     -434.400      -59.070      -30.647      185.461      135.968       77.934    34395.623    18487.398     6073.652       12.603        2.948      438.398       75.701        0.030      347.624       26.725      861.253
08/31/2013  21:23:00     -428.852      -98.343       -6.968      171.685      125.629       77.860    29475.806    15782.656     6062.119       12.247        2.566      439.983       87.194        0.039      347.639       26.749      861.268
08/31/2013  21:24:00     -449.996     -109.219      -29.688      153.743      117.517       63.892    23637.024    13810.297     4082.239       12.841        2.076      463.061       71.095        0.024      347.604       26.690      861.269
08/31/2013  21:25:00     -329.790     -118.610       -4.756      143.344      120.951       62.215    20547.419    14629.252     3870.721        8.094        1.952      350.471       58.658        0.028      347.571       26.633      861.282
08/31/2013  21:26:00     -364.212     -165.798       -8.202      158.929      137.592       67.432    25258.397    18931.527     4547.117       10.446        2.437      400.174       80.612        0.041      347.588       26.664      861.269
08/31/2013  21:27:00     -278.585      -41.446      -30.844      157.974       90.573       66.708    24955.638     8203.555     4449.944        5.894        1.880      281.651       80.875        0.082      347.579       26.647      861.291
08/31/2013  21:28:00     -307.690      -80.335        9.058      164.573      116.569       79.570    27084.218    13588.240     6331.456        7.410        2.350      318.004       91.408        0.083      347.510       26.528      861.283
08/31/2013  21:29:00     -383.835     -165.291      -32.739      203.006      162.240       77.922    41211.274    26321.817     6071.812       12.465        3.680      417.911       86.688        0.043      347.516       26.538      861.290
08/31/2013  21:30:00     -395.851      -27.900      -19.115      181.056      111.462       66.322    32781.371    12423.832     4398.622       10.371        2.480      396.833       73.980        0.035      347.532       26.566      861.290
08/31/2013  21:31:00     -244.739      -45.476        4.301      135.286      117.743       64.333    18302.285    13863.314     4138.708        4.914        1.815      248.928       51.176        0.042      347.468       26.455      861.286
08/31/2013  21:32:00     -418.336      -44.061      -38.825      157.598      111.355       69.323    24837.166    12400.004     4805.675       11.024        2.102      420.650       61.213        0.021      347.540       26.580      861.280
08/31/2013  21:33:00     -335.894     -136.293       -7.116      194.361      136.806       72.239    37776.112    18715.936     5218.413        9.657        3.086      362.492       88.453        0.060      347.506       26.521      861.303
08/31/2013  21:34:00     -345.130      -65.090      -32.494      170.413      114.895       60.678    29040.492    13200.823     3681.845        8.516        2.296      351.214       61.285        0.030      347.494       26.502      861.315
08/31/2013  21:35:00     -356.316      -30.657       -5.150      162.258      136.020       77.398    26327.650    18501.547     5990.425        8.936        2.541      357.632       80.036        0.050      347.434       26.397      861.319
08/31/2013  21:36:00     -323.468      -25.503      -27.062      148.311       94.295       58.246    21996.055     8891.481     3392.572        7.014        1.714      324.472       64.998        0.040      347.475       26.467      861.339
08/31/2013  21:37:00     -181.867      -68.990       -4.781      167.159       85.108       56.649    27942.054     7243.423     3209.105        3.812        1.920      194.513       64.583        0.110      347.428       26.385      861.364
08/31/2013  21:38:00     -200.424      -64.933        1.212      135.343       81.118       70.433    18317.746     6580.098     4960.831        3.712        1.493      210.680       80.864        0.147      347.407       26.349      861.368
08/31/2013  21:39:00     -305.676     -155.199      -18.676      207.886      196.247       77.835    43216.698    38512.908     6058.213       10.281        4.389      342.818       96.833        0.080      347.478       26.473      861.358
08/31/2013  21:40:00     -361.474      -94.902      -20.466      146.668      167.580       68.400    21511.588    28082.891     4678.561        9.717        2.714      373.724       56.832        0.023      347.467       26.453      861.361
08/31/2013  21:41:00     -307.588      -97.710       -3.643      178.672      140.924       78.216    31923.521    19859.498     6117.671        8.102        2.895      322.735       87.134        0.073      347.479       26.474      861.388
08/31/2013  21:42:00     -343.603     -219.598      -25.523      172.357      198.171       91.088    29706.872    39271.836     8296.999       12.209        3.864      407.783       81.480        0.040      347.493       26.497      861.375
08/31/2013  21:43:00     -359.918     -137.552        1.015      188.285      150.502       85.087    35451.077    22650.712     7239.723       10.689        3.267      385.307       91.568        0.056      347.465       26.449      861.399
08/31/2013  21:44:00     -317.232       12.650      -16.557      123.678       87.170       67.482    15296.214     7598.642     4553.783        6.425        1.372      317.484       64.795        0.042      347.458       26.436      861.397
08/31/2013  21:45:00     -182.173       -8.713       29.017      142.292       82.576       58.939    20247.115     6818.775     3473.845        3.232        1.527      182.381       68.719        0.142      347.362       26.273      861.366
08/31/2013  21:46:00     -181.993      -59.084        7.342      111.418       98.744       51.751    12413.880     9750.371     2678.125        3.075        1.242      191.343       51.855        0.073      347.375       26.297      861.378
08/31/2013  21:47:00     -210.448      -70.351       15.846      148.623      100.107       78.378    22088.678    10021.398     6143.085        4.386        1.913      221.895       82.865        0.139      347.406       26.350      861.396
08/31/2013  21:48:00     -223.247     -133.713       -3.868      107.814      107.329       66.832    11623.889    11519.503     4466.562        4.767        1.380      260.228       49.064        0.036      347.452       26.427      861.399
08/31/2013  21:49:00     -178.076      -90.595       12.460      128.348      124.272       68.870    16473.137    15443.428     4743.139        3.836        1.833      199.796       62.233        0.097      347.411       26.359      861.412
08/31/2013  21:50:00     -370.016     -160.382      -13.474      167.690      134.261       80.347    28119.785    18026.017     6455.717       10.770        2.630      403.280       80.257        0.040      347.465       26.449      861.413
08/31/2013  21:51:00     -283.364     -165.859      -13.523      182.821      128.212       69.201    33423.650    16438.418     4788.787        8.131        2.733      328.336       72.409        0.049      347.456       26.434      861.392
08/31/2013  21:52:00     -211.355      -18.861       -3.487      127.481       80.175       66.150    16251.291     6428.091     4375.843        3.604        1.353      212.195       65.424        0.095      347.399       26.336      861.403
08/31/2013  21:53:00     -248.496     -166.187        1.870      161.922      102.197       60.641    26218.830    10444.300     3677.283        6.485        2.017      298.945       72.794        0.059      347.449       26.424      861.396
08/31/2013  21:54:00     -266.799      -89.939      -13.258      136.679       76.635       56.329    18681.019     5872.856     3172.988        5.358        1.386      281.551       60.261        0.046      347.406       26.349      861.400
08/31/2013  21:55:00     -268.717      -24.705      -17.406      130.038       93.671       67.228    16909.861     8774.222     4519.548        5.166        1.510      269.850       62.428        0.054      347.387       26.316      861.410
08/31/2013  21:56:00     -180.313      -88.762       10.581      133.162      154.500       68.339    17732.241    23870.319     4670.215        4.338        2.314      200.976       64.710        0.104      347.378       26.300      861.384
08/31/2013  21:57:00     -347.625     -130.417       -4.148      218.630      158.540       67.133    47799.165    25134.979     4506.902       10.764        3.872      371.284       74.981        0.041      347.401       26.339      861.385
08/31/2013  21:58:00     -210.723      -55.255        7.055      128.138      112.101       73.164    16419.378    12566.623     5352.940        4.092        1.717      217.847       80.287        0.136      347.368       26.284      861.413
08/31/2013  21:59:00     -214.413      -23.276       -3.433       87.566       88.389       48.295     7667.748     7812.700     2332.382        3.217        0.891      215.672       41.772        0.038      347.402       26.341      861.416
08/31/2013  22:00:00     -182.978        3.375      -16.504       77.125       67.672       45.935     5948.337     4579.559     2110.045        2.320        0.632      183.009       25.525        0.019      347.453       26.431      861.388
08/31/2013  22:01:00     -176.286      -84.636       -6.644       99.342      121.456       55.850     9868.919    14751.525     3119.191        3.301        1.387      195.550       48.654        0.062      347.401       26.340      861.398
08/31/2013  22:02:00     -158.248     -123.683       16.659      134.284      107.541       66.000    18032.203    11564.969     4355.964        3.728        1.698      200.848       72.973        0.132      347.352       26.255      861.386
08/31/2013  22:03:00     -221.910        2.396        3.397      178.217      108.437       79.213    31761.147    11758.549     6274.690        4.952        2.490      221.923       87.471        0.155      347.274       26.121      861.391
08/31/2013  22:04:00     -331.657      -75.263        9.083      267.867      145.066      104.913    71752.554    21044.142    11006.842       10.975        5.190      340.089      135.833        0.160      347.336       26.228      861.381
08/31/2013  22:05:00     -319.222     -103.973       -7.508      132.780      132.242       63.380    17630.622    17488.048     4017.015        7.594        1.957      335.727       61.889        0.034      347.312       26.187      861.364
08/31/2013  22:06:00     -193.278      -63.580        4.463      136.624      127.903       69.450    18666.184    16359.127     4823.352        4.063        1.992      203.467       69.648        0.117      347.283       26.136      861.376
08/31/2013  22:07:00     -473.283      -97.921      -18.334      225.953      154.180       89.422    51054.829    23771.537     7996.329       15.836        4.141      483.307      107.060        0.049      347.378       26.299      861.376
08/31/2013  22:08:00     -434.780      -27.221      -27.182      159.489      196.211       81.361    25436.889    38498.863     6619.622       13.052        3.528      435.632       62.544        0.021      347.415       26.364      861.360
08/31/2013  22:09:00     -287.102      -46.812      -13.773      147.081      108.186       53.134    21632.753    11704.293     2823.204        6.048        1.808      290.894       38.582        0.018      347.372       26.289      861.347
08/31/2013  22:10:00     -474.486     -125.482      -26.343      187.659      128.611       69.360    35215.755    16540.912     4810.864       14.906        2.828      490.798       78.569        0.026      347.347       26.246      861.320
08/31/2013  22:11:00     -343.035     -145.759      -21.205      119.456      109.272       53.049    14269.744    11940.276     2814.170        8.419        1.451      372.718       53.065        0.020      347.302       26.169      861.346
08/31/2013  22:12:00     -320.463      -60.121       -7.364      131.958      141.456       60.406    17412.995    20009.925     3648.836        7.371        2.054      326.054       57.119        0.031      347.276       26.124      861.322
08/31/2013  22:13:00     -289.626      -93.967       16.800      207.433      127.126       78.541    43028.296    16160.900     6168.750        7.916        3.268      304.488       85.445        0.079      347.258       26.094      861.345
08/31/2013  22:14:00     -192.044      -52.737        1.856      117.457       88.473       53.558    13796.084     7827.539     2868.451        3.207        1.225      199.154       57.953        0.085      347.363       26.275      861.362
08/31/2013  22:15:00     -280.912     -103.912      -13.198      105.878       89.084       60.646    11210.122     7935.889     3677.954        5.635        1.141      299.516       63.798        0.045      347.333       26.223      861.360
08/31/2013  22:16:00     -327.841      -65.188      -18.753      134.892      101.223       54.254    18195.933    10246.103     2943.457        7.173        1.569      334.259       59.691        0.032      347.314       26.189      861.348
08/31/2013  22:17:00     -173.506      -97.986       23.931      134.108       99.773       70.793    17984.824     9954.647     5011.662        3.661        1.648      199.263       77.904        0.153      347.237       26.058      861.343
08/31/2013  22:18:00     -302.794     -124.674       -5.351      167.699      125.070       70.777    28123.100    15642.607     5009.334        7.801        2.439      327.457       76.336        0.054      347.258       26.094      861.338
08/31/2013  22:19:00     -367.974      -15.894      -14.082      131.052      150.604       67.333    17174.747    22681.592     4533.756        9.011        2.220      368.317       66.903        0.033      347.272       26.116      861.333
08/31/2013  22:20:00     -298.785      -67.082      -11.153       96.598       96.526       54.898     9331.268     9317.314     3013.842        5.778        1.083      306.223       50.965        0.028      347.246       26.072      861.342
08/31/2013  22:21:00     -320.714      -29.634       -9.428      186.522      111.494       66.102    34790.322    12430.874     4369.504        7.770        2.580      322.080       83.104        0.067      347.225       26.038      861.334
08/31/2013  22:22:00     -282.744     -183.584       -7.836      139.336      141.198       81.454    19414.409    19936.933     6634.744        7.984        2.299      337.116       79.045        0.055      347.278       26.127      861.330
08/31/2013  22:23:00     -164.881      -32.076       -3.483      114.524       86.176       44.985    13115.844     7426.232     2023.673        2.539        1.128      167.972       46.602        0.077      347.168       25.939      861.326
08/31/2013  22:24:00     -270.389     -172.839        0.562      148.009      125.644       67.781    21906.679    15786.393     4594.294        7.263        2.114      320.910       68.563        0.046      347.213       26.016      861.343
08/31/2013  22:25:00     -142.471      -81.831       17.540      151.856      109.263       62.719    23060.211    11938.310     3933.643        3.311        1.947      164.299       68.029        0.171      347.177       25.956      861.345
08/31/2013  22:26:00     -255.091     -139.729      -39.665      148.983      109.069       77.439    22195.948    11895.959     5996.853        6.312        2.004      290.853       77.041        0.070      347.240       26.060      861.337
08/31/2013  22:27:00     -195.481      -39.541        7.233      190.871      123.940       84.955    36431.768    15361.071     7217.360        4.941        2.951      199.440       85.594        0.184      347.206       26.004      861.339
08/31/2013  22:28:00     -229.304      -61.997       -8.806      117.026      109.765       59.326    13695.115    12048.286     3519.579        4.288        1.463      237.537       55.419        0.054      347.227       26.040      861.330
08/31/2013  22:29:00     -245.518      -51.393       -7.749      137.395      108.409       67.199    18877.452    11752.495     4515.676        4.906        1.757      250.839       63.835        0.065      347.189       25.975      861.329
08/31/2013  22:30:00     -312.935      -30.873      -18.358      124.697      107.991       64.671    15549.252    11662.037     4182.333        6.530        1.570      314.454       69.925        0.049      347.178       25.956      861.347
08/31/2013  22:31:00     -304.913      -61.995      -24.271      120.396       96.884       57.865    14495.212     9386.512     3348.365        6.231        1.362      311.152       60.882        0.038      347.129       25.870      861.366
08/31/2013  22:32:00     -181.141      -20.948       -4.723       86.102       95.018       40.117     7413.559     9028.429     1609.356        2.566        0.903      182.348       27.133        0.022      347.141       25.895      861.371
08/31/2013  22:33:00      -96.775      -21.886       -1.138      100.775       70.375       46.144    10155.663     4952.705     2129.280        1.354        0.862       99.219       52.548        0.280      347.140       25.892      861.333
08/31/2013  22:34:00     -248.605      -59.173      -10.080       90.243       68.621       40.807     8143.869     4708.884     1665.191        3.996        0.726      255.551       40.129        0.025      347.191       25.977      861.326
08/31/2013  22:35:00     -233.110      -93.761       -1.915      104.480      120.364       57.533    10916.029    14487.397     3310.099        4.592        1.436      251.259       57.684        0.053      347.183       25.965      861.327
08/31/2013  22:36:00     -235.002     -149.882        4.628       99.047       75.706       51.036     9810.266     5731.456     2604.686        4.793        0.907      278.730       44.681        0.026      347.192       25.980      861.334
08/31/2013  22:37:00     -161.539       -1.409       -8.192      106.126      109.702       50.918    11262.770    12034.541     2592.649        2.602        1.294      161.545       42.756        0.070      347.127       25.870      861.337
08/31/2013  22:38:00     -194.088       14.853       -1.917      185.298       95.504       57.505    34335.281     9121.011     3306.834        4.232        2.338      194.656       74.045        0.145      347.130       25.876      861.310
08/31/2013  22:39:00     -343.756        0.598      -13.155      124.746       95.614       51.421    15561.626     9142.052     2644.086        7.284        1.367      343.757       53.013        0.024      347.195       25.985      861.310
08/31/2013  22:40:00     -235.481      -57.206       -0.048      121.573       91.381       55.223    14780.075     8350.444     3049.591        4.245        1.309      242.330       46.685        0.037      347.162       25.928      861.327
08/31/2013  22:41:00     -316.038      -59.456      -14.741      107.274       99.745       62.475    11507.751     9949.098     3903.181        6.449        1.268      321.582       58.181        0.033      347.148       25.904      861.328
08/31/2013  22:42:00     -225.257        3.801       -2.063       98.835       87.631       50.846     9768.390     7679.218     2585.291        3.539        1.002      225.289       44.755        0.039      347.173       25.947      861.321
08/31/2013  22:43:00     -168.044      -19.663       -5.526       88.491       69.931       42.969     7830.726     4890.322     1846.309        2.161        0.728      169.190       41.829        0.061      347.167       25.938      861.304
08/31/2013  22:44:00     -169.999      -21.071      -15.419      142.640       86.668       48.029    20346.184     7511.423     2306.797        2.987        1.508      171.300       57.244        0.112      347.102       25.825      861.297
08/31/2013  22:45:00      -84.549      -67.453       27.027      114.799       90.555       56.043    13178.779     8200.293     3140.845        1.847        1.226      108.159       67.288        0.387      347.015       25.676      861.310
08/31/2013  22:46:00     -212.636      -70.260      -13.094      109.582       84.594       53.215    12008.317     7156.212     2831.880        3.615        1.100      223.943       53.102        0.056      347.086       25.797      861.288
08/31/2013  22:47:00     -214.791      -39.358       -2.911       99.760       60.458       48.838     9952.140     3655.128     2385.182        3.184        0.800      218.367       50.338        0.053      347.099       25.819      861.278
08/31/2013  22:48:00     -143.069     -127.748        7.769      182.757      139.564       62.684    33400.160    19478.090     3929.270        4.682        2.840      191.803       77.624        0.164      347.039       25.717      861.270
08/31/2013  22:49:00     -153.313      -37.735       13.551      125.401       89.682       66.805    15725.309     8042.817     4462.958        2.667        1.412      157.888       67.580        0.183      347.101       25.825      861.268
08/31/2013  22:50:00     -351.695      -74.935      -41.345      107.281       83.532       50.292    11509.186     6977.562     2529.248        7.601        1.051      359.590       44.966        0.016      347.195       25.986      861.252
08/31/2013  22:51:00     -323.831      -35.281      -23.774      128.450       81.581       52.257    16499.380     6655.403     2730.789        6.628        1.294      325.747       54.156        0.028      347.185       25.967      861.222
08/31/2013  22:52:00     -165.368      -76.242       -4.791       87.095       89.427       49.763     7585.604     7997.110     2476.350        2.562        0.903      182.098       50.420        0.077      347.048       25.730      861.222
08/31/2013  22:53:00     -249.064     -125.601       -3.824      124.207       74.918       58.441    15427.284     5612.724     3415.316        5.113        1.223      278.942       50.036        0.032      347.096       25.815      861.208
08/31/2013  22:54:00     -148.083      -48.473       15.581      120.485       97.581       41.228    14516.541     9522.075     1699.708        2.512        1.287      155.815       46.454        0.089      347.036       25.712      861.228
08/31/2013  22:55:00      -92.340       -5.614        5.664      110.855       84.021       42.206    12288.737     7059.550     1781.382        1.486        1.056       92.511       52.554        0.323      346.928       25.525      861.222
08/31/2013  22:56:00     -127.244      -70.489        5.465       96.148       83.427       44.674     9244.455     6960.109     1995.764        1.969        0.910      145.464       41.416        0.081      347.061       25.756      861.228
08/31/2013  22:57:00     -186.617      -37.129       -3.509      110.579       93.168       51.875    12227.783     8680.343     2690.996        2.990        1.180      190.275       59.052        0.096      347.035       25.711      861.241
08/31/2013  22:58:00     -165.722       17.249      -11.037       84.352       65.117       42.468     7115.291     4240.197     1803.493        2.052        0.658      166.617       44.908        0.073      346.998       25.646      861.230
08/31/2013  22:59:00     -108.961      -18.701       -1.121       76.900       63.561       35.422     5913.553     4039.944     1254.731        1.171        0.560      110.554       43.309        0.153      346.992       25.637      861.213
08/31/2013  23:00:00     -243.573       17.442      -25.532       91.358       99.881       51.625     8346.303     9976.267     2665.172        4.063        1.049      244.197       44.212        0.033      347.112       25.841      861.218
08/31/2013  23:01:00     -154.992       -4.265      -12.375      121.691       44.286       47.204    14808.676     1961.277     2228.210        2.159        0.950      155.050       66.883        0.186      347.075       25.779      861.205
08/31/2013  23:02:00      -83.391      -44.059        6.793       96.382       81.347       48.693     9289.519     6617.414     2370.969        1.361        0.914       94.315       48.457        0.264      347.025       25.695      861.231
08/31/2013  23:03:00     -125.109      -37.579        3.581      117.558       60.559       34.910    13819.834     3667.417     1218.710        1.789        0.935      130.631       44.282        0.115      346.944       25.554      861.221
08/31/2013  23:04:00     -122.029       -0.282       -1.884       92.282       48.925       34.845     8516.035     2393.663     1214.153        1.351        0.606      122.030       46.817        0.147      346.898       25.475      861.234
08/31/2013  23:05:00      -90.770      -13.315       11.629       77.421       64.688       39.110     5993.987     4184.582     1529.587        1.013        0.585       91.741       41.576        0.205      346.872       25.430      861.242
08/31/2013  23:06:00     -129.904      -16.936       -3.668       82.293       60.913       35.109     6772.185     3710.388     1232.663        1.444        0.586      131.003       42.269        0.104      347.025       25.694      861.287
08/31/2013  23:07:00     -183.345        0.136        0.476       88.859       73.561       45.699     7895.910     5411.173     2088.387        2.450        0.770      183.345       40.283        0.048      347.044       25.724      861.322
08/31/2013  23:08:00     -124.951      -25.291        0.406       45.675       37.899       23.931     2086.163     1436.305      572.709        1.017        0.205      127.485       19.572        0.024      347.079       25.788      861.329
08/31/2013  23:09:00     -126.389      -15.321      -12.038       38.207       48.947       21.287     1459.773     2395.843      453.151        1.033        0.215      127.314       18.692        0.022      347.062       25.760      861.353
08/31/2013  23:10:00       15.596       30.679       28.670       86.813       35.894       36.509     7536.539     1288.379     1332.939        0.608        0.508       34.415       24.966        0.526      345.924       23.802      861.367
08/31/2013  23:11:00       65.076      -19.651       -1.074       23.507       25.968       19.145      552.563      674.321      366.537        0.311        0.080       67.979       10.289        0.023      346.379       24.584      861.378
08/31/2013  23:12:00      -21.391      -19.507       19.633       92.340       52.297       37.928     8526.709     2735.011     1438.521        0.696        0.635       28.951       49.290        2.899      346.358       24.548      861.396
08/31/2013  23:13:00     -174.918      -67.803       -8.794       68.983       51.888       35.673     4758.624     2692.411     1272.576        2.200        0.436      187.600       26.019        0.019      347.015       25.676      861.414
08/31/2013  23:14:00       -3.458       17.904       14.142       58.558       25.778       25.605     3429.068      664.513      655.603        0.264        0.237       18.235       22.795        1.563      346.606       24.975      861.391
08/31/2013  23:15:00       12.091       13.230       29.356       25.177       21.211       20.246      633.875      449.894      409.895        0.134        0.075       17.923        7.129        0.158      346.054       24.024      861.384
08/31/2013  23:16:00      -34.041       -9.601      -13.483       17.504       12.229       17.049      306.385      149.536      290.673        0.109        0.037       35.370        8.419        0.057      346.606       24.974      861.443
08/31/2013  23:17:00       40.950       14.010       14.073       52.756       18.227       14.778     2783.160      332.209      218.378        0.270        0.167       43.280        9.598        0.049      345.747       23.498      861.466
08/31/2013  23:18:00      107.499       42.587       30.651       38.336       38.606       31.443     1469.676     1490.412      988.640        0.913        0.197      115.628       14.251        0.015      345.671       23.368      861.465
08/31/2013  23:19:00       32.162       15.465       27.379       34.190       22.967       27.997     1168.966      527.481      783.831        0.225        0.124       35.687       11.929        0.112      345.343       22.806      861.483
08/31/2013  23:20:00       54.575        9.768        3.252       40.700       35.044       26.721     1656.487     1228.096      714.009        0.334        0.180       55.442       21.534        0.151      345.265       22.671      861.492
08/31/2013  23:21:00       31.218        6.979       19.614       28.291       31.455       25.247      800.384      989.428      637.414        0.192        0.121       31.989       13.882        0.188      345.403       22.908      861.496
08/31/2013  23:22:00       15.535       17.086        7.447       27.438       31.241       29.137      752.871      975.996      848.977        0.158        0.129       23.092       22.157        0.921      345.405       22.910      861.520
08/31/2013  23:23:00       30.926        6.869       18.726       33.552       38.546       23.335     1125.741     1485.831      544.505        0.225        0.158       31.680       28.331        0.800      345.620       23.281      861.527
08/31/2013  23:24:00       29.975      -21.410        3.118       27.023       32.953       29.147      730.256     1085.898      849.552        0.202        0.133       36.836       23.970        0.423      345.564       23.182      861.532
08/31/2013  23:25:00       48.501       29.593       16.607       33.088       39.572       32.149     1094.811     1565.952     1033.527        0.360        0.185       56.816       25.651        0.204      345.710       23.435      861.556
08/31/2013  23:26:00       95.054       42.197       17.218       45.747       41.371       26.339     2092.760     1711.588      693.764        0.780        0.225      103.999       15.066        0.021      345.894       23.751      861.567
08/31/2013  23:27:00       80.257        8.936       -0.117       37.070       31.550       21.498     1374.185      995.399      462.168        0.468        0.142       80.753       13.642        0.029      345.339       22.800      861.576
08/31/2013  23:28:00       50.001      -28.274       -4.123       17.625       26.960       20.904      310.654      726.830      436.957        0.240        0.074       57.441       13.470        0.055      345.887       23.741      861.594
08/31/2013  23:29:00      -25.371      -72.422        3.421       28.565       45.880       17.686      815.968     2104.992      312.809        0.457        0.162       76.737       26.289        0.117      346.450       24.706      861.588
08/31/2013  23:30:00      -49.036      -60.770       -0.741       29.033       22.856       19.812      842.910      522.403      392.531        0.393        0.088       78.087       20.123        0.066      346.572       24.915      861.585
08/31/2013  23:31:00      -17.598      -58.890       11.450       15.458       21.726       14.820      238.951      472.006      219.630        0.242        0.047       61.463       13.858        0.051      346.688       25.115      861.584
08/31/2013  23:32:00       17.302        4.575       24.873       34.720       21.166       19.433     1205.495      448.014      377.644        0.148        0.102       17.897       11.172        0.390      345.586       23.222      861.568
08/31/2013  23:33:00       39.378       -0.368       16.139       39.174       18.360       21.872     1534.572      337.087      478.379        0.208        0.118       39.380       20.923        0.282      345.347       22.812      861.549
08/31/2013  23:34:00       67.442       -6.040       26.439       24.904       25.945       24.167      620.215      673.146      584.032        0.358        0.094       67.712       18.140        0.072      345.689       23.400      861.540
08/31/2013  23:35:00       57.913       11.154       30.027       32.284       34.195       22.502     1042.224     1169.298      506.323        0.355        0.136       58.978       19.004        0.104      345.196       22.553      861.514
08/31/2013  23:36:00       18.141        5.889       24.348       32.182       41.416       23.111     1035.701     1715.285      534.133        0.212        0.164       19.073       19.387        1.033      345.393       22.891      861.502
08/31/2013  23:37:00       45.401      -25.317        5.302       36.909       32.136       33.801     1362.256     1032.733     1142.540        0.313        0.177       51.982       27.705        0.284      345.354       22.826      861.514
08/31/2013  23:38:00       -2.738       32.313       27.059       36.085       26.137       26.045     1302.138      683.138      678.360        0.222        0.133       32.429       16.605        0.262      345.237       22.622      861.534
08/31/2013  23:39:00      -89.850       19.709       -6.839       34.186       26.925       11.940     1168.699      724.965      142.555        0.527        0.102       91.986        7.399        0.006      346.104       24.112      861.551
08/31/2013  23:40:00     -142.509      -10.484      -10.517       79.245       50.622       30.940     6279.743     2562.624      957.311        1.516        0.490      142.894       35.865        0.063      346.283       24.418      861.573
08/31/2013  23:41:00     -112.071      -24.424        6.603       61.864       49.663       28.072     3827.144     2466.435      788.045        1.014        0.354      114.702       30.234        0.069      346.318       24.479      861.581
08/31/2013  23:42:00     -144.604       12.924      -14.860       40.728       31.419       20.722     1658.771      987.165      429.390        1.219        0.154      145.180       18.858        0.017      346.589       24.946      861.575
08/31/2013  23:43:00     -112.059       -9.184       -2.571       32.527       33.952       15.267     1057.987     1152.753      233.094        0.755        0.122      112.435       14.433        0.016      346.661       25.070      861.581
08/31/2013  23:44:00      -39.280       -1.658       13.234       28.094       32.320       20.958      789.283     1044.605      439.246        0.200        0.114       39.315       21.937        0.311      346.182       24.246      861.565
08/31/2013  23:45:00       27.002        3.165        7.009       42.566       23.025       27.784     1811.858      530.138      771.935        0.195        0.156       27.187       17.215        0.401      345.337       22.797      861.540
08/31/2013  23:46:00        4.170       13.838        0.430       23.114       25.017       24.571      534.240      625.830      603.717        0.099        0.088       14.453       14.754        1.042      345.595       23.239      861.545
08/31/2013  23:47:00       40.893       18.542        8.124       32.189       14.382       22.183     1036.116      206.828      492.077        0.191        0.087       44.901       21.021        0.219      345.482       23.044      861.559
08/31/2013  23:48:00       56.033       24.551       24.023       26.648       15.724       24.350      710.098      247.249      592.944        0.293        0.078       61.176       10.147        0.028      345.216       22.588      861.551
08/31/2013  23:49:00       41.666       22.244       24.480       19.344       20.920       23.827      374.190      437.640      567.745        0.210        0.069       47.232       10.165        0.046      345.304       22.740      861.544
08/31/2013  23:50:00       12.895       35.322        7.042       22.576       19.128       16.926      509.657      365.887      286.503        0.131        0.058       37.602        8.604        0.052      345.549       23.159      861.545
08/31/2013  23:51:00        1.219       13.952        5.503        6.871       12.830       10.039       47.214      164.612      100.784        0.027        0.016       14.005        4.372        0.097      345.302       22.736      861.537
08/31/2013  23:52:00      -10.020       19.283       16.752       24.133       20.415       16.117      582.400      416.772      259.765        0.101        0.063       21.730       16.969        0.610      345.508       23.089      861.537
08/31/2013  23:53:00      -60.303        0.639       -5.792       15.898       29.319       12.535      252.753      859.581      157.132        0.247        0.063       60.306       11.592        0.037      346.132       24.160      861.554
08/31/2013  23:54:00      -67.994      -15.942       -9.614       12.752       14.841        8.140      162.613      220.243       66.263        0.271        0.022       69.838        5.644        0.007      346.037       23.996      861.546
08/31/2013  23:55:00      -40.159        2.737       -6.384       19.838       23.341       10.334      393.542      544.819      106.794        0.135        0.052       40.252       12.274        0.093      345.971       23.883      861.528
08/31/2013  23:56:00       15.432       17.299       14.173       25.466       15.923       17.018      648.513      253.529      289.606        0.096        0.060       23.182       13.688        0.349      345.635       23.307      861.514
08/31/2013  23:57:00       26.937        3.840       32.510       35.857       25.708       20.272     1285.711      660.890      410.971        0.208        0.118       27.209       15.295        0.316      344.918       22.077      861.489
08/31/2013  23:58:00       22.511        6.844        6.163       25.578       19.695       17.649      654.251      387.908      311.482        0.097        0.068       23.528       13.345        0.322      345.506       23.085      861.471
08/31/2013  23:59:00       -6.248      -20.725        4.813       18.959       19.581       16.951      359.430      383.412      287.347        0.076        0.052       21.646       15.245        0.496      345.638       23.313      861.477
